<?xml version='1.0' encoding='UTF-8'?><gpx version="1.1" creator="JPX - https://github.com/jenetics/jpx" xmlns="http://www.topografix.com/GPX/1/1"><trk><trkseg><trkpt lat="43.62189582697637" lon="10.605757236844413"><ele>18.0</ele><time>2026-04-03T08:15:17.999Z</time></trkpt><trkpt lat="43.621867122185925" lon="10.605940343290618"><ele>18.0</ele><time>2026-04-03T08:15:19.999Z</time></trkpt><trkpt lat="43.6218518209212" lon="10.606112102649304"><ele>18.0</ele><time>2026-04-03T08:15:20.999Z</time></trkpt><trkpt lat="43.62184085133915" lon="10.606300294876643"><ele>18.0</ele><time>2026-04-03T08:15:21.999Z</time></trkpt><trkpt lat="43.62181063568254" lon="10.606455845955074"><ele>17.666666666666668</ele><time>2026-04-03T08:15:22.999Z</time></trkpt><trkpt lat="43.621705969856926" lon="10.60662047097033"><ele>17.333333333333336</ele><time>2026-04-03T08:15:23.999Z</time></trkpt><trkpt lat="43.621619594805566" lon="10.606845837584832"><ele>17.0</ele><time>2026-04-03T08:15:24.999Z</time></trkpt><trkpt lat="43.62153023454111" lon="10.607081935790822"><ele>16.0</ele><time>2026-04-03T08:15:25.999Z</time></trkpt><trkpt lat="43.62143064215116" lon="10.607344267865246"><ele>15.0</ele><time>2026-04-03T08:15:26.999Z</time></trkpt><trkpt lat="43.621298036019674" lon="10.607689890839074"><ele>15.0</ele><time>2026-04-03T08:15:27.999Z</time></trkpt><trkpt lat="43.62116790474478" lon="10.608031295282299"><ele>15.0</ele><time>2026-04-03T08:15:28.999Z</time></trkpt><trkpt lat="43.62106734378955" lon="10.608294328712311"><ele>15.333333333333332</ele><time>2026-04-03T08:15:29.999Z</time></trkpt><trkpt lat="43.62098946184181" lon="10.608496111980395"><ele>15.666666666666666</ele><time>2026-04-03T08:15:30.999Z</time></trkpt><trkpt lat="43.62091752711801" lon="10.60868248675274"><ele>16.0</ele><time>2026-04-03T08:15:31.999Z</time></trkpt><trkpt lat="43.62084028131783" lon="10.608881675749629"><ele>16.0</ele><time>2026-04-03T08:15:32.999Z</time></trkpt><trkpt lat="43.62076071493944" lon="10.609098905818534"><ele>16.0</ele><time>2026-04-03T08:15:33.999Z</time></trkpt><trkpt lat="43.62067780461614" lon="10.609312305589267"><ele>16.0</ele><time>2026-04-03T08:15:34.999Z</time></trkpt><trkpt lat="43.62060022508877" lon="10.60951421762951"><ele>16.0</ele><time>2026-04-03T08:15:35.999Z</time></trkpt><trkpt lat="43.620522732039674" lon="10.609710466719068"><ele>16.0</ele><time>2026-04-03T08:15:36.999Z</time></trkpt><trkpt lat="43.62044784100944" lon="10.60990053160365"><ele>16.0</ele><time>2026-04-03T08:15:37.999Z</time></trkpt><trkpt lat="43.62037101792411" lon="10.610096486091248"><ele>16.333333333333332</ele><time>2026-04-03T08:15:39Z</time></trkpt><trkpt lat="43.62029209859341" lon="10.610297020348515"><ele>16.666666666666668</ele><time>2026-04-03T08:15:40Z</time></trkpt><trkpt lat="43.620214961802134" lon="10.610501476115774"><ele>17.0</ele><time>2026-04-03T08:15:41Z</time></trkpt><trkpt lat="43.62013730478758" lon="10.61070449543477"><ele>17.0</ele><time>2026-04-03T08:15:42Z</time></trkpt><trkpt lat="43.62006325498611" lon="10.610886937496856"><ele>17.0</ele><time>2026-04-03T08:15:43Z</time></trkpt><trkpt lat="43.62000142429508" lon="10.611057628569425"><ele>17.0</ele><time>2026-04-03T08:15:44Z</time></trkpt><trkpt lat="43.619942234141895" lon="10.611215377624571"><ele>17.0</ele><time>2026-04-03T08:15:45Z</time></trkpt><trkpt lat="43.61988201516772" lon="10.611358735724165"><ele>17.0</ele><time>2026-04-03T08:15:46Z</time></trkpt><trkpt lat="43.61983079241654" lon="10.611492330967499"><ele>17.0</ele><time>2026-04-03T08:15:47Z</time></trkpt><trkpt lat="43.61978366074398" lon="10.611616964156187"><ele>17.0</ele><time>2026-04-03T08:15:48Z</time></trkpt><trkpt lat="43.61972957614199" lon="10.611740185215469"><ele>17.0</ele><time>2026-04-03T08:15:49Z</time></trkpt><trkpt lat="43.61967857434567" lon="10.611840371727695"><ele>17.0</ele><time>2026-04-03T08:15:50Z</time></trkpt><trkpt lat="43.61961560313734" lon="10.611937838081582"><ele>17.0</ele><time>2026-04-03T08:15:51Z</time></trkpt><trkpt lat="43.61953723402947" lon="10.612012591505943"><ele>17.0</ele><time>2026-04-03T08:15:52Z</time></trkpt><trkpt lat="43.61944916206813" lon="10.612085888943684"><ele>17.0</ele><time>2026-04-03T08:15:53Z</time></trkpt><trkpt lat="43.619393938178625" lon="10.612191884512313"><ele>17.0</ele><time>2026-04-03T08:15:54Z</time></trkpt><trkpt lat="43.61937997293956" lon="10.612329210151255"><ele>17.0</ele><time>2026-04-03T08:15:55Z</time></trkpt><trkpt lat="43.61937578738148" lon="10.612482038536145"><ele>17.25</ele><time>2026-04-03T08:15:56Z</time></trkpt><trkpt lat="43.61937252280341" lon="10.61264020814838"><ele>17.5</ele><time>2026-04-03T08:15:57Z</time></trkpt><trkpt lat="43.61934658150705" lon="10.612798551895459"><ele>17.75</ele><time>2026-04-03T08:15:58Z</time></trkpt><trkpt lat="43.6192958780028" lon="10.612953841739929"><ele>18.0</ele><time>2026-04-03T08:15:59Z</time></trkpt><trkpt lat="43.61923620375605" lon="10.61311546785792"><ele>18.0</ele><time>2026-04-03T08:16:00Z</time></trkpt><trkpt lat="43.6191706463516" lon="10.61328573502487"><ele>18.0</ele><time>2026-04-03T08:16:01Z</time></trkpt><trkpt lat="43.61909730007706" lon="10.613471984080356"><ele>18.0</ele><time>2026-04-03T08:16:02Z</time></trkpt><trkpt lat="43.61902343749227" lon="10.613664448380437"><ele>18.0</ele><time>2026-04-03T08:16:03Z</time></trkpt><trkpt lat="43.61894658618671" lon="10.613866314648682"><ele>18.0</ele><time>2026-04-03T08:16:04Z</time></trkpt><trkpt lat="43.61886437725671" lon="10.614072574071043"><ele>18.0</ele><time>2026-04-03T08:16:05Z</time></trkpt><trkpt lat="43.61877496517127" lon="10.614291286270834"><ele>18.0</ele><time>2026-04-03T08:16:06Z</time></trkpt><trkpt lat="43.618669148689" lon="10.614492143441383"><ele>18.0</ele><time>2026-04-03T08:16:07Z</time></trkpt><trkpt lat="43.61858662782504" lon="10.614714475569942"><ele>18.0</ele><time>2026-04-03T08:16:08Z</time></trkpt><trkpt lat="43.61848565433856" lon="10.614909656377876"><ele>18.0</ele><time>2026-04-03T08:16:09Z</time></trkpt><trkpt lat="43.618391497922005" lon="10.615104116210704"><ele>18.0</ele><time>2026-04-03T08:16:10Z</time></trkpt><trkpt lat="43.618285528594875" lon="10.615322921364081"><ele>18.0</ele><time>2026-04-03T08:16:11Z</time></trkpt><trkpt lat="43.61816833512405" lon="10.615547195424673"><ele>18.0</ele><time>2026-04-03T08:16:12Z</time></trkpt><trkpt lat="43.618052762992576" lon="10.61575559366527"><ele>18.0</ele><time>2026-04-03T08:16:13Z</time></trkpt><trkpt lat="43.61794862111557" lon="10.615934572877142"><ele>18.0</ele><time>2026-04-03T08:16:14Z</time></trkpt><trkpt lat="43.61785511708857" lon="10.616090057008483"><ele>18.0</ele><time>2026-04-03T08:16:15Z</time></trkpt><trkpt lat="43.61777646038052" lon="10.616220437192775"><ele>18.0</ele><time>2026-04-03T08:16:16Z</time></trkpt><trkpt lat="43.61769668483762" lon="10.616352486559224"><ele>18.0</ele><time>2026-04-03T08:16:17Z</time></trkpt><trkpt lat="43.61759070582271" lon="10.616525464586774"><ele>18.0</ele><time>2026-04-03T08:16:18Z</time></trkpt><trkpt lat="43.617455364787794" lon="10.616723604371918"><ele>18.0</ele><time>2026-04-03T08:16:19Z</time></trkpt><trkpt lat="43.617297964859766" lon="10.616942487955807"><ele>18.0</ele><time>2026-04-03T08:16:20Z</time></trkpt><trkpt lat="43.61713546423141" lon="10.617163741415238"><ele>17.5</ele><time>2026-04-03T08:16:21Z</time></trkpt><trkpt lat="43.61696835845208" lon="10.617388585907634"><ele>17.0</ele><time>2026-04-03T08:16:22Z</time></trkpt><trkpt lat="43.616788515252395" lon="10.617620032083117"><ele>17.5</ele><time>2026-04-03T08:16:23Z</time></trkpt><trkpt lat="43.61660575400064" lon="10.617846907469232"><ele>18.0</ele><time>2026-04-03T08:16:24Z</time></trkpt><trkpt lat="43.61641718064836" lon="10.618072021980778"><ele>18.0</ele><time>2026-04-03T08:16:25Z</time></trkpt><trkpt lat="43.616228945813454" lon="10.61827849143028"><ele>18.0</ele><time>2026-04-03T08:16:26Z</time></trkpt><trkpt lat="43.616026857829766" lon="10.61847586820628"><ele>18.5</ele><time>2026-04-03T08:16:27Z</time></trkpt><trkpt lat="43.615817253982264" lon="10.618668382316143"><ele>19.0</ele><time>2026-04-03T08:16:28Z</time></trkpt><trkpt lat="43.615608556219804" lon="10.618850882829861"><ele>19.0</ele><time>2026-04-03T08:16:29Z</time></trkpt><trkpt lat="43.61541318757102" lon="10.619016982307246"><ele>19.0</ele><time>2026-04-03T08:16:30Z</time></trkpt><trkpt lat="43.61523498872994" lon="10.6191642248948"><ele>19.0</ele><time>2026-04-03T08:16:31Z</time></trkpt><trkpt lat="43.61506880011601" lon="10.619302034114869"><ele>19.0</ele><time>2026-04-03T08:16:32Z</time></trkpt><trkpt lat="43.61490699684348" lon="10.619426189154819"><ele>19.0</ele><time>2026-04-03T08:16:33Z</time></trkpt><trkpt lat="43.61475291214911" lon="10.6195262300997"><ele>19.0</ele><time>2026-04-03T08:16:34Z</time></trkpt><trkpt lat="43.61458504439297" lon="10.619632177796174"><ele>19.333333333333332</ele><time>2026-04-03T08:16:35Z</time></trkpt><trkpt lat="43.6143854250121" lon="10.619737543598573"><ele>19.666666666666668</ele><time>2026-04-03T08:16:36Z</time></trkpt><trkpt lat="43.61416661508775" lon="10.619833175079576"><ele>20.0</ele><time>2026-04-03T08:16:37Z</time></trkpt><trkpt lat="43.61394162659169" lon="10.619917073257932"><ele>20.0</ele><time>2026-04-03T08:16:38Z</time></trkpt><trkpt lat="43.61370165352228" lon="10.620016776301144"><ele>20.0</ele><time>2026-04-03T08:16:39Z</time></trkpt><trkpt lat="43.61346790064551" lon="10.620122055449265"><ele>20.5</ele><time>2026-04-03T08:16:40Z</time></trkpt><trkpt lat="43.61323783228718" lon="10.620228763809992"><ele>21.0</ele><time>2026-04-03T08:16:41Z</time></trkpt><trkpt lat="43.61301716129642" lon="10.620331982231287"><ele>22.0</ele><time>2026-04-03T08:16:42Z</time></trkpt><trkpt lat="43.61281357759492" lon="10.620425412921906"><ele>23.0</ele><time>2026-04-03T08:16:43Z</time></trkpt><trkpt lat="43.612657465953866" lon="10.620495120580046"><ele>24.0</ele><time>2026-04-03T08:16:44Z</time></trkpt><trkpt lat="43.612532774689534" lon="10.620541527609129"><ele>24.0</ele><time>2026-04-03T08:16:45Z</time></trkpt><trkpt lat="43.612426011169354" lon="10.6205611448149"><ele>24.0</ele><time>2026-04-03T08:16:46Z</time></trkpt><trkpt lat="43.61233796982318" lon="10.6205974576661"><ele>24.0</ele><time>2026-04-03T08:16:47Z</time></trkpt><trkpt lat="43.61218711726661" lon="10.62036508406875"><ele>24.0</ele><time>2026-04-03T08:16:49Z</time></trkpt><trkpt lat="43.61212701978449" lon="10.62022834008981"><ele>24.333333333333336</ele><time>2026-04-03T08:16:50Z</time></trkpt><trkpt lat="43.61203957615895" lon="10.62012564234949"><ele>24.666666666666668</ele><time>2026-04-03T08:16:51Z</time></trkpt><trkpt lat="43.61209269991277" lon="10.619863178665508"><ele>25.0</ele><time>2026-04-03T08:16:52Z</time></trkpt><trkpt lat="43.61208637362184" lon="10.619620175075898"><ele>25.333333333333336</ele><time>2026-04-03T08:16:53Z</time></trkpt><trkpt lat="43.612065605021826" lon="10.619340236949279"><ele>25.666666666666664</ele><time>2026-04-03T08:16:54Z</time></trkpt><trkpt lat="43.612064011706615" lon="10.61906395473497"><ele>26.0</ele><time>2026-04-03T08:16:55Z</time></trkpt><trkpt lat="43.61205568360183" lon="10.618843077714383"><ele>26.25</ele><time>2026-04-03T08:16:56Z</time></trkpt><trkpt lat="43.61205345807622" lon="10.618632576725263"><ele>26.5</ele><time>2026-04-03T08:16:57Z</time></trkpt><trkpt lat="43.61204832526809" lon="10.618429225589193"><ele>26.75</ele><time>2026-04-03T08:16:58Z</time></trkpt><trkpt lat="43.6120404645639" lon="10.618240896365322"><ele>27.0</ele><time>2026-04-03T08:16:59Z</time></trkpt><trkpt lat="43.61202700849528" lon="10.618055662920058"><ele>27.0</ele><time>2026-04-03T08:17:00Z</time></trkpt><trkpt lat="43.61199547521955" lon="10.61786230335683"><ele>27.0</ele><time>2026-04-03T08:17:01Z</time></trkpt><trkpt lat="43.61194476032452" lon="10.61767529092994"><ele>27.0</ele><time>2026-04-03T08:17:02Z</time></trkpt><trkpt lat="43.61187672612113" lon="10.617509276261593"><ele>27.0</ele><time>2026-04-03T08:17:03Z</time></trkpt><trkpt lat="43.61179712831631" lon="10.61734163740899"><ele>27.0</ele><time>2026-04-03T08:17:04Z</time></trkpt><trkpt lat="43.61170966098363" lon="10.617185398258313"><ele>27.0</ele><time>2026-04-03T08:17:05Z</time></trkpt><trkpt lat="43.61161948699387" lon="10.617030015176638"><ele>27.0</ele><time>2026-04-03T08:17:06Z</time></trkpt><trkpt lat="43.61153332134193" lon="10.616868826770506"><ele>27.0</ele><time>2026-04-03T08:17:07Z</time></trkpt><trkpt lat="43.61145109217162" lon="10.61671420056161"><ele>26.5</ele><time>2026-04-03T08:17:08Z</time></trkpt><trkpt lat="43.61136386144066" lon="10.616556502943224"><ele>26.0</ele><time>2026-04-03T08:17:09Z</time></trkpt><trkpt lat="43.61127441971277" lon="10.616404270783853"><ele>25.5</ele><time>2026-04-03T08:17:10Z</time></trkpt><trkpt lat="43.61117872576539" lon="10.616260216945543"><ele>25.0</ele><time>2026-04-03T08:17:11Z</time></trkpt><trkpt lat="43.611072090899434" lon="10.616119423183443"><ele>24.666666666666668</ele><time>2026-04-03T08:17:12Z</time></trkpt><trkpt lat="43.61095292901221" lon="10.61594523451552"><ele>24.333333333333336</ele><time>2026-04-03T08:17:12.999Z</time></trkpt><trkpt lat="43.61079503984663" lon="10.615739715136069"><ele>24.0</ele><time>2026-04-03T08:17:13.999Z</time></trkpt><trkpt lat="43.61063230147487" lon="10.615527883544667"><ele>24.0</ele><time>2026-04-03T08:17:14.999Z</time></trkpt><trkpt lat="43.61045714014491" lon="10.615307576809236"><ele>24.0</ele><time>2026-04-03T08:17:15.999Z</time></trkpt><trkpt lat="43.61029153336081" lon="10.615095961352893"><ele>24.0</ele><time>2026-04-03T08:17:16.999Z</time></trkpt><trkpt lat="43.610136112586396" lon="10.614913037718308"><ele>24.0</ele><time>2026-04-03T08:17:17.999Z</time></trkpt><trkpt lat="43.610017324867904" lon="10.614713122096793"><ele>24.0</ele><time>2026-04-03T08:17:18.999Z</time></trkpt><trkpt lat="43.609891922490206" lon="10.614522637529813"><ele>23.666666666666668</ele><time>2026-04-03T08:17:19.999Z</time></trkpt><trkpt lat="43.60980068989" lon="10.614279544716924"><ele>23.333333333333336</ele><time>2026-04-03T08:17:20.999Z</time></trkpt><trkpt lat="43.60973375881441" lon="10.614010185156756"><ele>23.0</ele><time>2026-04-03T08:17:21.999Z</time></trkpt><trkpt lat="43.6096922037571" lon="10.61370932039666"><ele>22.5</ele><time>2026-04-03T08:17:22.999Z</time></trkpt><trkpt lat="43.609631851700264" lon="10.613404389986632"><ele>22.0</ele><time>2026-04-03T08:17:23.999Z</time></trkpt><trkpt lat="43.60955672880436" lon="10.613103747184393"><ele>22.0</ele><time>2026-04-03T08:17:24.999Z</time></trkpt><trkpt lat="43.6095127794597" lon="10.612797205408155"><ele>22.0</ele><time>2026-04-03T08:17:25.999Z</time></trkpt><trkpt lat="43.60945635231309" lon="10.612508108611339"><ele>22.0</ele><time>2026-04-03T08:17:26.999Z</time></trkpt><trkpt lat="43.60938881430964" lon="10.612247313120852"><ele>22.333333333333332</ele><time>2026-04-03T08:17:27.999Z</time></trkpt><trkpt lat="43.6093386643577" lon="10.611975045503113"><ele>22.666666666666668</ele><time>2026-04-03T08:17:28.999Z</time></trkpt><trkpt lat="43.609286502169944" lon="10.611706403054802"><ele>23.0</ele><time>2026-04-03T08:17:29.999Z</time></trkpt><trkpt lat="43.60923559804046" lon="10.611446890192608"><ele>23.0</ele><time>2026-04-03T08:17:30.999Z</time></trkpt><trkpt lat="43.60918702971868" lon="10.611190158061081"><ele>23.0</ele><time>2026-04-03T08:17:31.999Z</time></trkpt><trkpt lat="43.60913897846739" lon="10.610932623269807"><ele>23.0</ele><time>2026-04-03T08:17:32.999Z</time></trkpt><trkpt lat="43.60908992502204" lon="10.610669427096166"><ele>23.0</ele><time>2026-04-03T08:17:33.999Z</time></trkpt><trkpt lat="43.60903947273236" lon="10.610402227580833"><ele>23.0</ele><time>2026-04-03T08:17:34.999Z</time></trkpt><trkpt lat="43.60898592630609" lon="10.610136113783243"><ele>23.0</ele><time>2026-04-03T08:17:35.999Z</time></trkpt><trkpt lat="43.60893230787777" lon="10.609853432876466"><ele>22.666666666666668</ele><time>2026-04-03T08:17:36.999Z</time></trkpt><trkpt lat="43.608877181469865" lon="10.609569234541189"><ele>22.333333333333332</ele><time>2026-04-03T08:17:37.999Z</time></trkpt><trkpt lat="43.608821717640055" lon="10.609276446067176"><ele>22.0</ele><time>2026-04-03T08:17:38.999Z</time></trkpt><trkpt lat="43.60876525849164" lon="10.608979047093149"><ele>21.666666666666664</ele><time>2026-04-03T08:17:39.999Z</time></trkpt><trkpt lat="43.60870911961022" lon="10.608682067356641"><ele>21.333333333333332</ele><time>2026-04-03T08:17:40.999Z</time></trkpt><trkpt lat="43.60865490880086" lon="10.608385844598162"><ele>21.0</ele><time>2026-04-03T08:17:41.999Z</time></trkpt><trkpt lat="43.60860030016814" lon="10.608089731689239"><ele>21.666666666666668</ele><time>2026-04-03T08:17:42.999Z</time></trkpt><trkpt lat="43.60854691688468" lon="10.607798681123894"><ele>22.333333333333336</ele><time>2026-04-03T08:17:43.999Z</time></trkpt><trkpt lat="43.60850887880951" lon="10.607503704719157"><ele>23.0</ele><time>2026-04-03T08:17:44.999Z</time></trkpt><trkpt lat="43.608439048104145" lon="10.607218324477884"><ele>23.0</ele><time>2026-04-03T08:17:45.999Z</time></trkpt><trkpt lat="43.60838670477206" lon="10.606930239920322"><ele>23.0</ele><time>2026-04-03T08:17:46.999Z</time></trkpt><trkpt lat="43.60833381694639" lon="10.606641985090038"><ele>23.0</ele><time>2026-04-03T08:17:47.999Z</time></trkpt><trkpt lat="43.60828170478379" lon="10.606353061607924"><ele>22.333333333333336</ele><time>2026-04-03T08:17:48.999Z</time></trkpt><trkpt lat="43.60822966674527" lon="10.606066303375483"><ele>21.666666666666668</ele><time>2026-04-03T08:17:49.999Z</time></trkpt><trkpt lat="43.60817746191365" lon="10.605782563604802"><ele>21.0</ele><time>2026-04-03T08:17:50.999Z</time></trkpt><trkpt lat="43.60812393845278" lon="10.605502889210781"><ele>20.0</ele><time>2026-04-03T08:17:51.999Z</time></trkpt><trkpt lat="43.60807066888285" lon="10.605226008175404"><ele>19.0</ele><time>2026-04-03T08:17:52.999Z</time></trkpt><trkpt lat="43.60804479850908" lon="10.604950047900218"><ele>18.0</ele><time>2026-04-03T08:17:53.999Z</time></trkpt><trkpt lat="43.608028835542136" lon="10.604698725554442"><ele>18.0</ele><time>2026-04-03T08:17:54.999Z</time></trkpt><trkpt lat="43.60803800486321" lon="10.60444591680972"><ele>18.0</ele><time>2026-04-03T08:17:55.999Z</time></trkpt><trkpt lat="43.60805024915243" lon="10.604185702685255"><ele>18.0</ele><time>2026-04-03T08:17:56.999Z</time></trkpt><trkpt lat="43.608109029573086" lon="10.603925140360762"><ele>18.0</ele><time>2026-04-03T08:17:57.999Z</time></trkpt><trkpt lat="43.608139998710286" lon="10.603667725725836"><ele>18.0</ele><time>2026-04-03T08:17:58.999Z</time></trkpt><trkpt lat="43.60818589905044" lon="10.603409952602743"><ele>18.0</ele><time>2026-04-03T08:17:59.999Z</time></trkpt><trkpt lat="43.608227688675726" lon="10.603143445132831"><ele>18.333333333333332</ele><time>2026-04-03T08:18:00.999Z</time></trkpt><trkpt lat="43.60827179314172" lon="10.602876589762573"><ele>18.666666666666664</ele><time>2026-04-03T08:18:01.999Z</time></trkpt><trkpt lat="43.60831824262376" lon="10.602602518381895"><ele>19.0</ele><time>2026-04-03T08:18:02.999Z</time></trkpt><trkpt lat="43.60836658187795" lon="10.602318961424944"><ele>19.333333333333332</ele><time>2026-04-03T08:18:03.999Z</time></trkpt><trkpt lat="43.60840963055975" lon="10.602032068719758"><ele>19.666666666666668</ele><time>2026-04-03T08:18:04.999Z</time></trkpt><trkpt lat="43.60847233380439" lon="10.601747724336615"><ele>20.0</ele><time>2026-04-03T08:18:05.999Z</time></trkpt><trkpt lat="43.60851959699479" lon="10.601455712724567"><ele>19.333333333333336</ele><time>2026-04-03T08:18:06.999Z</time></trkpt><trkpt lat="43.60850926184201" lon="10.60114297862124"><ele>18.666666666666668</ele><time>2026-04-03T08:18:07.999Z</time></trkpt><trkpt lat="43.60853156063031" lon="10.60084371267966"><ele>18.0</ele><time>2026-04-03T08:18:08.999Z</time></trkpt><trkpt lat="43.60855059488448" lon="10.600543348718999"><ele>18.333333333333332</ele><time>2026-04-03T08:18:09.999Z</time></trkpt><trkpt lat="43.60857129221117" lon="10.600258409232717"><ele>18.666666666666664</ele><time>2026-04-03T08:18:10.999Z</time></trkpt><trkpt lat="43.608585374317876" lon="10.599995255097932"><ele>19.0</ele><time>2026-04-03T08:18:11.999Z</time></trkpt><trkpt lat="43.60856912996462" lon="10.599739892602352"><ele>19.0</ele><time>2026-04-03T08:18:12.999Z</time></trkpt><trkpt lat="43.60851474786733" lon="10.599475876229176"><ele>19.0</ele><time>2026-04-03T08:18:13.999Z</time></trkpt><trkpt lat="43.60842106408319" lon="10.599244825615058"><ele>19.0</ele><time>2026-04-03T08:18:14.999Z</time></trkpt><trkpt lat="43.60828623801568" lon="10.599004565018067"><ele>19.0</ele><time>2026-04-03T08:18:15.999Z</time></trkpt><trkpt lat="43.60812734846305" lon="10.598741774599533"><ele>19.0</ele><time>2026-04-03T08:18:17Z</time></trkpt><trkpt lat="43.60797151650013" lon="10.598474266869337"><ele>19.0</ele><time>2026-04-03T08:18:18Z</time></trkpt><trkpt lat="43.60781866933005" lon="10.5982070611664"><ele>19.0</ele><time>2026-04-03T08:18:19Z</time></trkpt><trkpt lat="43.60767865284562" lon="10.597959796185709"><ele>18.666666666666664</ele><time>2026-04-03T08:18:20Z</time></trkpt><trkpt lat="43.60754992574444" lon="10.597733013527797"><ele>18.333333333333332</ele><time>2026-04-03T08:18:21Z</time></trkpt><trkpt lat="43.60743023314114" lon="10.59751597289722"><ele>18.0</ele><time>2026-04-03T08:18:22Z</time></trkpt><trkpt lat="43.60731296195182" lon="10.597302865617714"><ele>18.0</ele><time>2026-04-03T08:18:23Z</time></trkpt><trkpt lat="43.60719183369207" lon="10.597078378404225"><ele>18.0</ele><time>2026-04-03T08:18:24Z</time></trkpt><trkpt lat="43.60707119701708" lon="10.59685094052132"><ele>18.0</ele><time>2026-04-03T08:18:25Z</time></trkpt><trkpt lat="43.606941934362354" lon="10.596642177033267"><ele>18.333333333333332</ele><time>2026-04-03T08:18:26Z</time></trkpt><trkpt lat="43.606787702677245" lon="10.596468426953253"><ele>18.666666666666664</ele><time>2026-04-03T08:18:27Z</time></trkpt><trkpt lat="43.606608780060704" lon="10.596331982301306"><ele>19.0</ele><time>2026-04-03T08:18:28Z</time></trkpt><trkpt lat="43.606419504225904" lon="10.596215648449247"><ele>19.333333333333332</ele><time>2026-04-03T08:18:29Z</time></trkpt><trkpt lat="43.60622315414368" lon="10.596104638843524"><ele>19.666666666666668</ele><time>2026-04-03T08:18:30Z</time></trkpt><trkpt lat="43.60603121941676" lon="10.595995972751087"><ele>20.0</ele><time>2026-04-03T08:18:31Z</time></trkpt><trkpt lat="43.60584716672443" lon="10.59589058258752"><ele>20.333333333333336</ele><time>2026-04-03T08:18:32Z</time></trkpt><trkpt lat="43.605678368573905" lon="10.595795001650226"><ele>20.666666666666668</ele><time>2026-04-03T08:18:33Z</time></trkpt><trkpt lat="43.60551983688452" lon="10.595703450183796"><ele>21.0</ele><time>2026-04-03T08:18:34Z</time></trkpt><trkpt lat="43.60536984441297" lon="10.595612022451112"><ele>21.0</ele><time>2026-04-03T08:18:35Z</time></trkpt><trkpt lat="43.605229909887974" lon="10.595526998308715"><ele>21.0</ele><time>2026-04-03T08:18:36Z</time></trkpt><trkpt lat="43.60508908627414" lon="10.595443331355272"><ele>21.0</ele><time>2026-04-03T08:18:37Z</time></trkpt><trkpt lat="43.60495823873278" lon="10.595366211248864"><ele>21.0</ele><time>2026-04-03T08:18:38Z</time></trkpt><trkpt lat="43.60484447304901" lon="10.59529222620756"><ele>21.0</ele><time>2026-04-03T08:18:39Z</time></trkpt><trkpt lat="43.60475565445053" lon="10.595218613185528"><ele>21.0</ele><time>2026-04-03T08:18:40Z</time></trkpt><trkpt lat="43.60469400241773" lon="10.595140346299436"><ele>21.0</ele><time>2026-04-03T08:18:41Z</time></trkpt><trkpt lat="43.604653320841386" lon="10.595053226742127"><ele>21.0</ele><time>2026-04-03T08:18:42Z</time></trkpt><trkpt lat="43.60461647369143" lon="10.594968285285397"><ele>21.0</ele><time>2026-04-03T08:18:43Z</time></trkpt><trkpt lat="43.604562446838464" lon="10.594910705285914"><ele>21.0</ele><time>2026-04-03T08:18:44Z</time></trkpt><trkpt lat="43.60448444984076" lon="10.594903383679936"><ele>21.200000000000003</ele><time>2026-04-03T08:18:45Z</time></trkpt><trkpt lat="43.60440503063531" lon="10.594947197299298"><ele>21.400000000000002</ele><time>2026-04-03T08:18:46Z</time></trkpt><trkpt lat="43.604321823645215" lon="10.595001397153847"><ele>21.6</ele><time>2026-04-03T08:18:47Z</time></trkpt><trkpt lat="43.60422030467145" lon="10.59500918186373"><ele>21.8</ele><time>2026-04-03T08:18:48Z</time></trkpt><trkpt lat="43.60410773177153" lon="10.594964143208179"><ele>22.0</ele><time>2026-04-03T08:18:49Z</time></trkpt><trkpt lat="43.60398084995697" lon="10.594889969075176"><ele>22.0</ele><time>2026-04-03T08:18:50Z</time></trkpt><trkpt lat="43.603839594434454" lon="10.594808876752793"><ele>22.0</ele><time>2026-04-03T08:18:51Z</time></trkpt><trkpt lat="43.603693667077515" lon="10.594734694719515"><ele>22.0</ele><time>2026-04-03T08:18:52Z</time></trkpt><trkpt lat="43.603545347551574" lon="10.594664230868567"><ele>22.333333333333332</ele><time>2026-04-03T08:18:53Z</time></trkpt><trkpt lat="43.60339085864937" lon="10.594588637585971"><ele>22.666666666666668</ele><time>2026-04-03T08:18:54Z</time></trkpt><trkpt lat="43.60322662232221" lon="10.594503832448918"><ele>23.0</ele><time>2026-04-03T08:18:55Z</time></trkpt><trkpt lat="43.603058453616505" lon="10.594416101477275"><ele>23.333333333333336</ele><time>2026-04-03T08:18:56Z</time></trkpt><trkpt lat="43.60289092954775" lon="10.594336776576608"><ele>23.666666666666668</ele><time>2026-04-03T08:18:57Z</time></trkpt><trkpt lat="43.602715876274104" lon="10.594255110279283"><ele>24.0</ele><time>2026-04-03T08:18:58Z</time></trkpt><trkpt lat="43.602539439474924" lon="10.594172615062249"><ele>24.0</ele><time>2026-04-03T08:18:59Z</time></trkpt><trkpt lat="43.602358115239305" lon="10.594088620827456"><ele>24.0</ele><time>2026-04-03T08:19:00Z</time></trkpt><trkpt lat="43.60217638940411" lon="10.59400482386797"><ele>24.0</ele><time>2026-04-03T08:19:01Z</time></trkpt><trkpt lat="43.601992779843535" lon="10.593923077169261"><ele>23.666666666666668</ele><time>2026-04-03T08:19:02Z</time></trkpt><trkpt lat="43.60180945343697" lon="10.593844494926604"><ele>23.333333333333336</ele><time>2026-04-03T08:19:03Z</time></trkpt><trkpt lat="43.60162283795082" lon="10.593766672335933"><ele>23.0</ele><time>2026-04-03T08:19:04Z</time></trkpt><trkpt lat="43.6014335437601" lon="10.593686864446909"><ele>23.0</ele><time>2026-04-03T08:19:05Z</time></trkpt><trkpt lat="43.60124396217554" lon="10.593607327066902"><ele>23.0</ele><time>2026-04-03T08:19:06Z</time></trkpt><trkpt lat="43.60104337396189" lon="10.59352112411412"><ele>23.0</ele><time>2026-04-03T08:19:07Z</time></trkpt><trkpt lat="43.600830744399595" lon="10.59342513590488"><ele>23.0</ele><time>2026-04-03T08:19:08Z</time></trkpt><trkpt lat="43.600618716399076" lon="10.593325712366841"><ele>23.0</ele><time>2026-04-03T08:19:09Z</time></trkpt><trkpt lat="43.60040937423795" lon="10.593225122585638"><ele>23.0</ele><time>2026-04-03T08:19:10Z</time></trkpt><trkpt lat="43.600199208415745" lon="10.5931240658949"><ele>23.5</ele><time>2026-04-03T08:19:11Z</time></trkpt><trkpt lat="43.59997994078003" lon="10.593015161277284"><ele>24.0</ele><time>2026-04-03T08:19:12Z</time></trkpt><trkpt lat="43.59976219367333" lon="10.59290960568181"><ele>24.0</ele><time>2026-04-03T08:19:13Z</time></trkpt><trkpt lat="43.59954030047822" lon="10.592800417554333"><ele>24.0</ele><time>2026-04-03T08:19:14Z</time></trkpt><trkpt lat="43.59932321070037" lon="10.592692928992907"><ele>24.5</ele><time>2026-04-03T08:19:15Z</time></trkpt><trkpt lat="43.59910508141105" lon="10.592581266775294"><ele>25.0</ele><time>2026-04-03T08:19:16Z</time></trkpt><trkpt lat="43.598889778248" lon="10.59246892035601"><ele>25.0</ele><time>2026-04-03T08:19:17Z</time></trkpt><trkpt lat="43.59867560606854" lon="10.592359194288221"><ele>25.0</ele><time>2026-04-03T08:19:18Z</time></trkpt><trkpt lat="43.598466880984034" lon="10.592257032199367"><ele>24.666666666666668</ele><time>2026-04-03T08:19:18.999Z</time></trkpt><trkpt lat="43.598257278320084" lon="10.592156210171227"><ele>24.333333333333336</ele><time>2026-04-03T08:19:19.999Z</time></trkpt><trkpt lat="43.59805115316515" lon="10.592057151505"><ele>24.0</ele><time>2026-04-03T08:19:20.999Z</time></trkpt><trkpt lat="43.59784751210101" lon="10.591938540344463"><ele>25.0</ele><time>2026-04-03T08:19:21.999Z</time></trkpt><trkpt lat="43.597626425735946" lon="10.591878550055421"><ele>26.0</ele><time>2026-04-03T08:19:22.999Z</time></trkpt><trkpt lat="43.597404040663676" lon="10.59181066816746"><ele>26.0</ele><time>2026-04-03T08:19:23.999Z</time></trkpt><trkpt lat="43.59717983323049" lon="10.591745646043766"><ele>26.0</ele><time>2026-04-03T08:19:24.999Z</time></trkpt><trkpt lat="43.59695821576857" lon="10.591683554433764"><ele>26.0</ele><time>2026-04-03T08:19:25.999Z</time></trkpt><trkpt lat="43.59674559529546" lon="10.591629572629747"><ele>26.0</ele><time>2026-04-03T08:19:26.999Z</time></trkpt><trkpt lat="43.59653592754014" lon="10.59157513768718"><ele>26.0</ele><time>2026-04-03T08:19:27.999Z</time></trkpt><trkpt lat="43.59632384726261" lon="10.591516966091676"><ele>25.5</ele><time>2026-04-03T08:19:28.999Z</time></trkpt><trkpt lat="43.59610517228021" lon="10.591467409443721"><ele>25.0</ele><time>2026-04-03T08:19:29.999Z</time></trkpt><trkpt lat="43.595877075614965" lon="10.591455098991226"><ele>25.0</ele><time>2026-04-03T08:19:30.999Z</time></trkpt><trkpt lat="43.59564516682648" lon="10.591481420662658"><ele>25.0</ele><time>2026-04-03T08:19:31.999Z</time></trkpt><trkpt lat="43.59541319398523" lon="10.591558070731246"><ele>25.5</ele><time>2026-04-03T08:19:32.999Z</time></trkpt><trkpt lat="43.59518175420278" lon="10.591656510452443"><ele>26.0</ele><time>2026-04-03T08:19:33.999Z</time></trkpt><trkpt lat="43.59495281477274" lon="10.591751943968166"><ele>26.0</ele><time>2026-04-03T08:19:34.999Z</time></trkpt><trkpt lat="43.594717067622035" lon="10.59184236620115"><ele>26.0</ele><time>2026-04-03T08:19:35.999Z</time></trkpt><trkpt lat="43.5944839494309" lon="10.591929763198308"><ele>25.5</ele><time>2026-04-03T08:19:36.999Z</time></trkpt><trkpt lat="43.59425033978542" lon="10.59202028576583"><ele>25.0</ele><time>2026-04-03T08:19:37.999Z</time></trkpt><trkpt lat="43.59401721656032" lon="10.592107383495737"><ele>25.0</ele><time>2026-04-03T08:19:38.999Z</time></trkpt><trkpt lat="43.59378907461676" lon="10.592190579111524"><ele>25.0</ele><time>2026-04-03T08:19:39.999Z</time></trkpt><trkpt lat="43.593557334232116" lon="10.592274978117834"><ele>25.5</ele><time>2026-04-03T08:19:40.999Z</time></trkpt><trkpt lat="43.59332744978718" lon="10.592356876641459"><ele>26.0</ele><time>2026-04-03T08:19:41.999Z</time></trkpt><trkpt lat="43.59309748816062" lon="10.592442502990854"><ele>26.0</ele><time>2026-04-03T08:19:42.999Z</time></trkpt><trkpt lat="43.59287030825199" lon="10.592527701887509"><ele>26.0</ele><time>2026-04-03T08:19:43.999Z</time></trkpt><trkpt lat="43.592641545373425" lon="10.592615083317094"><ele>26.5</ele><time>2026-04-03T08:19:44.999Z</time></trkpt><trkpt lat="43.59240951565708" lon="10.592704489741978"><ele>27.0</ele><time>2026-04-03T08:19:45.999Z</time></trkpt><trkpt lat="43.59217682710212" lon="10.592795624561079"><ele>28.5</ele><time>2026-04-03T08:19:46.999Z</time></trkpt><trkpt lat="43.59194482129012" lon="10.592881449635232"><ele>30.0</ele><time>2026-04-03T08:19:47.999Z</time></trkpt><trkpt lat="43.59171191425107" lon="10.59296690788168"><ele>30.0</ele><time>2026-04-03T08:19:48.999Z</time></trkpt><trkpt lat="43.591478577636664" lon="10.59305076739273"><ele>30.0</ele><time>2026-04-03T08:19:49.999Z</time></trkpt><trkpt lat="43.591242906812546" lon="10.593138046869111"><ele>30.0</ele><time>2026-04-03T08:19:50.999Z</time></trkpt><trkpt lat="43.59100676127245" lon="10.593228697487115"><ele>30.0</ele><time>2026-04-03T08:19:51.999Z</time></trkpt><trkpt lat="43.59076834040286" lon="10.593315517004461"><ele>30.0</ele><time>2026-04-03T08:19:52.999Z</time></trkpt><trkpt lat="43.5905220132666" lon="10.593399365126304"><ele>30.0</ele><time>2026-04-03T08:19:53.999Z</time></trkpt><trkpt lat="43.59027303791154" lon="10.59347990330987"><ele>29.5</ele><time>2026-04-03T08:19:54.999Z</time></trkpt><trkpt lat="43.59001613819659" lon="10.593555156284136"><ele>29.0</ele><time>2026-04-03T08:19:55.999Z</time></trkpt><trkpt lat="43.589758839689246" lon="10.593625221565457"><ele>29.5</ele><time>2026-04-03T08:19:56.999Z</time></trkpt><trkpt lat="43.58949983224815" lon="10.593696659784714"><ele>30.0</ele><time>2026-04-03T08:19:57.999Z</time></trkpt><trkpt lat="43.58924715952607" lon="10.593769289741939"><ele>30.0</ele><time>2026-04-03T08:19:58.999Z</time></trkpt><trkpt lat="43.58899422148304" lon="10.593841921461628"><ele>30.0</ele><time>2026-04-03T08:19:59.999Z</time></trkpt><trkpt lat="43.588746970109774" lon="10.593912802670916"><ele>31.5</ele><time>2026-04-03T08:20:00.999Z</time></trkpt><trkpt lat="43.58850186506131" lon="10.593985023984994"><ele>33.0</ele><time>2026-04-03T08:20:01.999Z</time></trkpt><trkpt lat="43.588261128225966" lon="10.594057060866685"><ele>33.0</ele><time>2026-04-03T08:20:02.999Z</time></trkpt><trkpt lat="43.5880225097068" lon="10.594122962944386"><ele>33.0</ele><time>2026-04-03T08:20:03.999Z</time></trkpt><trkpt lat="43.58778493541338" lon="10.594193003060484"><ele>34.5</ele><time>2026-04-03T08:20:04.999Z</time></trkpt><trkpt lat="43.587555366540286" lon="10.59426325310208"><ele>36.0</ele><time>2026-04-03T08:20:05.999Z</time></trkpt><trkpt lat="43.58730977332672" lon="10.594334772269297"><ele>36.0</ele><time>2026-04-03T08:20:06.999Z</time></trkpt><trkpt lat="43.58707014674547" lon="10.594407651149764"><ele>36.0</ele><time>2026-04-03T08:20:07.999Z</time></trkpt><trkpt lat="43.586827845857265" lon="10.594480256498192"><ele>33.0</ele><time>2026-04-03T08:20:08.999Z</time></trkpt><trkpt lat="43.58658720819642" lon="10.594550148656948"><ele>30.0</ele><time>2026-04-03T08:20:09.999Z</time></trkpt><trkpt lat="43.58634214413155" lon="10.594620941326344"><ele>32.0</ele><time>2026-04-03T08:20:10.999Z</time></trkpt><trkpt lat="43.586094658666916" lon="10.594693144198567"><ele>34.0</ele><time>2026-04-03T08:20:11.999Z</time></trkpt><trkpt lat="43.58584590018292" lon="10.59476405884748"><ele>34.0</ele><time>2026-04-03T08:20:12.999Z</time></trkpt><trkpt lat="43.585596107902944" lon="10.594841871800222"><ele>34.0</ele><time>2026-04-03T08:20:13.999Z</time></trkpt><trkpt lat="43.58534731545075" lon="10.59492043562185"><ele>34.0</ele><time>2026-04-03T08:20:14.999Z</time></trkpt><trkpt lat="43.58508844176628" lon="10.594963762194965"><ele>34.0</ele><time>2026-04-03T08:20:15.999Z</time></trkpt><trkpt lat="43.58483001505695" lon="10.594962860591833"><ele>34.0</ele><time>2026-04-03T08:20:16.999Z</time></trkpt><trkpt lat="43.58457424586494" lon="10.594917569498834"><ele>34.0</ele><time>2026-04-03T08:20:17.999Z</time></trkpt><trkpt lat="43.584328963564474" lon="10.59484020698478"><ele>34.0</ele><time>2026-04-03T08:20:18.999Z</time></trkpt><trkpt lat="43.584082256753376" lon="10.594763678279294"><ele>34.0</ele><time>2026-04-03T08:20:19.999Z</time></trkpt><trkpt lat="43.5838363571484" lon="10.594693766366506"><ele>34.0</ele><time>2026-04-03T08:20:20.999Z</time></trkpt><trkpt lat="43.58358897012755" lon="10.59462317756088"><ele>34.0</ele><time>2026-04-03T08:20:21.999Z</time></trkpt><trkpt lat="43.58334006519463" lon="10.594550038929725"><ele>36.0</ele><time>2026-04-03T08:20:22.999Z</time></trkpt><trkpt lat="43.58309331682197" lon="10.594480175656757"><ele>38.0</ele><time>2026-04-03T08:20:23.999Z</time></trkpt><trkpt lat="43.5828506238899" lon="10.594411873178649"><ele>38.5</ele><time>2026-04-03T08:20:24.999Z</time></trkpt><trkpt lat="43.58261105981292" lon="10.594343973401747"><ele>39.0</ele><time>2026-04-03T08:20:25.999Z</time></trkpt><trkpt lat="43.58237287694993" lon="10.59427491751715"><ele>39.0</ele><time>2026-04-03T08:20:26.999Z</time></trkpt><trkpt lat="43.58213965299436" lon="10.594208072279065"><ele>39.0</ele><time>2026-04-03T08:20:27.999Z</time></trkpt><trkpt lat="43.58191140081432" lon="10.59414397468285"><ele>38.0</ele><time>2026-04-03T08:20:28.999Z</time></trkpt><trkpt lat="43.5816870957384" lon="10.594075075715033"><ele>37.0</ele><time>2026-04-03T08:20:29.999Z</time></trkpt><trkpt lat="43.58146346053834" lon="10.593992348808198"><ele>37.0</ele><time>2026-04-03T08:20:30.999Z</time></trkpt><trkpt lat="43.58124500429862" lon="10.593886060271613"><ele>37.0</ele><time>2026-04-03T08:20:31.999Z</time></trkpt><trkpt lat="43.5810359339679" lon="10.593748931935792"><ele>37.5</ele><time>2026-04-03T08:20:32.999Z</time></trkpt><trkpt lat="43.580834491009334" lon="10.593584732764228"><ele>38.0</ele><time>2026-04-03T08:20:33.999Z</time></trkpt><trkpt lat="43.580636232738854" lon="10.59341055114127"><ele>38.0</ele><time>2026-04-03T08:20:34.999Z</time></trkpt><trkpt lat="43.5804319606668" lon="10.59323558878936"><ele>38.0</ele><time>2026-04-03T08:20:35.999Z</time></trkpt><trkpt lat="43.58022581223803" lon="10.593061570805414"><ele>37.0</ele><time>2026-04-03T08:20:36.999Z</time></trkpt><trkpt lat="43.58001947727947" lon="10.592888113186751"><ele>36.0</ele><time>2026-04-03T08:20:37.999Z</time></trkpt><trkpt lat="43.579811984586115" lon="10.592715036592242"><ele>38.0</ele><time>2026-04-03T08:20:38.999Z</time></trkpt><trkpt lat="43.57960577900113" lon="10.592545001072152"><ele>40.0</ele><time>2026-04-03T08:20:39.999Z</time></trkpt><trkpt lat="43.579397321049896" lon="10.59237426842794"><ele>40.5</ele><time>2026-04-03T08:20:40.999Z</time></trkpt><trkpt lat="43.579192359021135" lon="10.592205462603431"><ele>41.0</ele><time>2026-04-03T08:20:41.999Z</time></trkpt><trkpt lat="43.57899247292196" lon="10.592037433624181"><ele>44.0</ele><time>2026-04-03T08:20:42.999Z</time></trkpt><trkpt lat="43.57879305708379" lon="10.591869693075836"><ele>47.0</ele><time>2026-04-03T08:20:43.999Z</time></trkpt><trkpt lat="43.57859612648603" lon="10.591705980718784"><ele>48.5</ele><time>2026-04-03T08:20:44.999Z</time></trkpt><trkpt lat="43.578398196850635" lon="10.591536135982256"><ele>50.0</ele><time>2026-04-03T08:20:45.999Z</time></trkpt><trkpt lat="43.57821326399677" lon="10.591352167825928"><ele>52.5</ele><time>2026-04-03T08:20:46.999Z</time></trkpt><trkpt lat="43.578019730472676" lon="10.59116609622917"><ele>55.0</ele><time>2026-04-03T08:20:47.999Z</time></trkpt><trkpt lat="43.57783866740169" lon="10.59096450244382"><ele>55.0</ele><time>2026-04-03T08:20:48.999Z</time></trkpt><trkpt lat="43.577664185744986" lon="10.590754992794109"><ele>55.0</ele><time>2026-04-03T08:20:49.999Z</time></trkpt><trkpt lat="43.577488539669325" lon="10.590547192779493"><ele>63.5</ele><time>2026-04-03T08:20:50.999Z</time></trkpt><trkpt lat="43.5773110524582" lon="10.590339624179679"><ele>72.0</ele><time>2026-04-03T08:20:51.999Z</time></trkpt><trkpt lat="43.5771319767847" lon="10.5901435340339"><ele>68.0</ele><time>2026-04-03T08:20:52.999Z</time></trkpt><trkpt lat="43.576931093987525" lon="10.589962763594661"><ele>64.0</ele><time>2026-04-03T08:20:53.999Z</time></trkpt><trkpt lat="43.57670831886707" lon="10.589839400418311"><ele>64.0</ele><time>2026-04-03T08:20:54.999Z</time></trkpt><trkpt lat="43.576463295842544" lon="10.589746252720154"><ele>64.0</ele><time>2026-04-03T08:20:55.999Z</time></trkpt><trkpt lat="43.57622485500665" lon="10.589704088639976"><ele>67.5</ele><time>2026-04-03T08:20:56.999Z</time></trkpt><trkpt lat="43.575986673535155" lon="10.58973213064644"><ele>71.0</ele><time>2026-04-03T08:20:57.999Z</time></trkpt><trkpt lat="43.5757636747811" lon="10.589803039304197"><ele>71.0</ele><time>2026-04-03T08:20:59Z</time></trkpt><trkpt lat="43.575543844275465" lon="10.589857740201113"><ele>71.0</ele><time>2026-04-03T08:21:00Z</time></trkpt><trkpt lat="43.575322706794935" lon="10.58987944370883"><ele>71.0</ele><time>2026-04-03T08:21:01Z</time></trkpt><trkpt lat="43.57510252488942" lon="10.589909637976376"><ele>73.66666666666667</ele><time>2026-04-03T08:21:02Z</time></trkpt><trkpt lat="43.57490688387134" lon="10.58997054578772"><ele>76.33333333333333</ele><time>2026-04-03T08:21:03Z</time></trkpt><trkpt lat="43.57472338282353" lon="10.590075952344378"><ele>79.0</ele><time>2026-04-03T08:21:04Z</time></trkpt><trkpt lat="43.574565379737095" lon="10.59023614826682"><ele>77.66666666666666</ele><time>2026-04-03T08:21:05Z</time></trkpt><trkpt lat="43.57442891562754" lon="10.590452635470774"><ele>76.33333333333333</ele><time>2026-04-03T08:21:06Z</time></trkpt><trkpt lat="43.574306316081305" lon="10.590706259631784"><ele>75.0</ele><time>2026-04-03T08:21:07Z</time></trkpt><trkpt lat="43.57419493634043" lon="10.590972580624022"><ele>77.33333333333333</ele><time>2026-04-03T08:21:08Z</time></trkpt><trkpt lat="43.574091550435256" lon="10.591224238910476"><ele>79.66666666666666</ele><time>2026-04-03T08:21:09Z</time></trkpt><trkpt lat="43.573988473428955" lon="10.591443456779029"><ele>82.0</ele><time>2026-04-03T08:21:10Z</time></trkpt><trkpt lat="43.57386620744549" lon="10.591614015361708"><ele>82.0</ele><time>2026-04-03T08:21:11Z</time></trkpt><trkpt lat="43.57371166861819" lon="10.591753385195213"><ele>82.0</ele><time>2026-04-03T08:21:12Z</time></trkpt><trkpt lat="43.573533353066054" lon="10.591880970008715"><ele>82.0</ele><time>2026-04-03T08:21:13Z</time></trkpt><trkpt lat="43.57334524758784" lon="10.591996641100538"><ele>81.66666666666666</ele><time>2026-04-03T08:21:14Z</time></trkpt><trkpt lat="43.57316597315527" lon="10.592105383489207"><ele>81.33333333333333</ele><time>2026-04-03T08:21:15Z</time></trkpt><trkpt lat="43.572994016290245" lon="10.592217316880497"><ele>81.0</ele><time>2026-04-03T08:21:16Z</time></trkpt><trkpt lat="43.57282979826426" lon="10.592341535330116"><ele>80.33333333333333</ele><time>2026-04-03T08:21:17Z</time></trkpt><trkpt lat="43.57267541227459" lon="10.592500705524628"><ele>79.66666666666666</ele><time>2026-04-03T08:21:18Z</time></trkpt><trkpt lat="43.57253012029522" lon="10.592695389751103"><ele>79.0</ele><time>2026-04-03T08:21:19Z</time></trkpt><trkpt lat="43.572387131518454" lon="10.592903329715018"><ele>79.33333333333333</ele><time>2026-04-03T08:21:20Z</time></trkpt><trkpt lat="43.57224038505194" lon="10.593103762964214"><ele>79.66666666666667</ele><time>2026-04-03T08:21:21Z</time></trkpt><trkpt lat="43.57208542947607" lon="10.593285013452475"><ele>80.0</ele><time>2026-04-03T08:21:22Z</time></trkpt><trkpt lat="43.57192469524118" lon="10.593445378233731"><ele>80.0</ele><time>2026-04-03T08:21:23Z</time></trkpt><trkpt lat="43.57176360510145" lon="10.593549726466055"><ele>80.0</ele><time>2026-04-03T08:21:24Z</time></trkpt><trkpt lat="43.57159797075222" lon="10.593625983581239"><ele>80.0</ele><time>2026-04-03T08:21:24.999Z</time></trkpt><trkpt lat="43.5714229547864" lon="10.593630060999702"><ele>80.0</ele><time>2026-04-03T08:21:25.999Z</time></trkpt><trkpt lat="43.571256881012246" lon="10.59361673322456"><ele>80.0</ele><time>2026-04-03T08:21:26.999Z</time></trkpt><trkpt lat="43.57112418796469" lon="10.593625450118722"><ele>80.0</ele><time>2026-04-03T08:21:27.999Z</time></trkpt><trkpt lat="43.57100527757627" lon="10.593608720588078"><ele>80.0</ele><time>2026-04-03T08:21:28.999Z</time></trkpt><trkpt lat="43.57090444018212" lon="10.593625965049183"><ele>80.0</ele><time>2026-04-03T08:21:29.999Z</time></trkpt><trkpt lat="43.57079763297442" lon="10.593705923588109"><ele>80.0</ele><time>2026-04-03T08:21:30.999Z</time></trkpt><trkpt lat="43.57066124424597" lon="10.593794111787554"><ele>80.0</ele><time>2026-04-03T08:21:31.999Z</time></trkpt><trkpt lat="43.57049294871263" lon="10.593830564671805"><ele>80.0</ele><time>2026-04-03T08:21:32.999Z</time></trkpt><trkpt lat="43.57031455037142" lon="10.593853591976103"><ele>80.0</ele><time>2026-04-03T08:21:33.999Z</time></trkpt><trkpt lat="43.57015269591401" lon="10.59389757070689"><ele>80.0</ele><time>2026-04-03T08:21:34.999Z</time></trkpt><trkpt lat="43.56998691712375" lon="10.593934759005299"><ele>80.0</ele><time>2026-04-03T08:21:35.999Z</time></trkpt><trkpt lat="43.56983773698144" lon="10.593975348480424"><ele>80.0</ele><time>2026-04-03T08:21:36.999Z</time></trkpt><trkpt lat="43.56970515693646" lon="10.593995968203021"><ele>80.0</ele><time>2026-04-03T08:21:37.999Z</time></trkpt><trkpt lat="43.56958212612027" lon="10.593995288279665"><ele>80.0</ele><time>2026-04-03T08:21:38.999Z</time></trkpt><trkpt lat="43.569478146095626" lon="10.593979534090618"><ele>80.0</ele><time>2026-04-03T08:21:39.999Z</time></trkpt><trkpt lat="43.56940007337286" lon="10.593966666462565"><ele>80.0</ele><time>2026-04-03T08:21:40.999Z</time></trkpt><trkpt lat="43.569316278920056" lon="10.593949922336858"><ele>79.8</ele><time>2026-04-03T08:21:42.999Z</time></trkpt><trkpt lat="43.56925260032832" lon="10.593939307895793"><ele>79.6</ele><time>2026-04-03T08:21:45.999Z</time></trkpt><trkpt lat="43.569176110957685" lon="10.593943718104091"><ele>79.4</ele><time>2026-04-03T08:23:37Z</time></trkpt><trkpt lat="43.56909611975672" lon="10.593902886487001"><ele>79.2</ele><time>2026-04-03T08:23:38Z</time></trkpt><trkpt lat="43.56897660858076" lon="10.593876858719277"><ele>79.0</ele><time>2026-04-03T08:23:39Z</time></trkpt><trkpt lat="43.56883764197449" lon="10.593846998610745"><ele>79.0</ele><time>2026-04-03T08:23:40Z</time></trkpt><trkpt lat="43.568719708797374" lon="10.593818762277001"><ele>79.0</ele><time>2026-04-03T08:23:41Z</time></trkpt><trkpt lat="43.568642482953464" lon="10.593795110636485"><ele>79.0</ele><time>2026-04-03T08:23:42Z</time></trkpt><trkpt lat="43.5685570102511" lon="10.593759787686363"><ele>79.0</ele><time>2026-04-03T08:23:43Z</time></trkpt><trkpt lat="43.568462714060445" lon="10.593712514350472"><ele>79.0</ele><time>2026-04-03T08:23:44Z</time></trkpt><trkpt lat="43.56836023372544" lon="10.593666084557412"><ele>83.25</ele><time>2026-04-03T08:23:45Z</time></trkpt><trkpt lat="43.5682610730848" lon="10.593581938320119"><ele>87.5</ele><time>2026-04-03T08:23:46Z</time></trkpt><trkpt lat="43.568158176826536" lon="10.593488727564798"><ele>91.75</ele><time>2026-04-03T08:23:47Z</time></trkpt><trkpt lat="43.56805509715616" lon="10.593391028718937"><ele>96.0</ele><time>2026-04-03T08:23:48Z</time></trkpt><trkpt lat="43.56795502591265" lon="10.593261929284157"><ele>94.0</ele><time>2026-04-03T08:23:49Z</time></trkpt><trkpt lat="43.56783267657554" lon="10.593147221116011"><ele>92.0</ele><time>2026-04-03T08:23:50Z</time></trkpt><trkpt lat="43.5676983799842" lon="10.593055496968917"><ele>90.0</ele><time>2026-04-03T08:23:51Z</time></trkpt><trkpt lat="43.56756749478025" lon="10.593000906673801"><ele>88.0</ele><time>2026-04-03T08:23:52Z</time></trkpt><trkpt lat="43.56743015608426" lon="10.592951551056368"><ele>88.0</ele><time>2026-04-03T08:23:53Z</time></trkpt><trkpt lat="43.567286172932164" lon="10.592905767610528"><ele>88.0</ele><time>2026-04-03T08:23:54Z</time></trkpt><trkpt lat="43.567146913047935" lon="10.59286826120842"><ele>88.0</ele><time>2026-04-03T08:23:55Z</time></trkpt><trkpt lat="43.56701099778531" lon="10.592848289052846"><ele>88.0</ele><time>2026-04-03T08:23:56Z</time></trkpt><trkpt lat="43.566869326829554" lon="10.592873712217632"><ele>90.33333333333333</ele><time>2026-04-03T08:23:57Z</time></trkpt><trkpt lat="43.566731162720515" lon="10.592992479900817"><ele>92.66666666666667</ele><time>2026-04-03T08:23:58Z</time></trkpt><trkpt lat="43.56659839156235" lon="10.5931029464016"><ele>95.0</ele><time>2026-04-03T08:23:59Z</time></trkpt><trkpt lat="43.56647474035341" lon="10.59323790309627"><ele>95.0</ele><time>2026-04-03T08:24:00Z</time></trkpt><trkpt lat="43.56635178292987" lon="10.593364752583891"><ele>95.0</ele><time>2026-04-03T08:24:01Z</time></trkpt><trkpt lat="43.5662298323206" lon="10.593497157207919"><ele>95.0</ele><time>2026-04-03T08:24:02Z</time></trkpt><trkpt lat="43.5661105217853" lon="10.593673027460648"><ele>100.0</ele><time>2026-04-03T08:24:03Z</time></trkpt><trkpt lat="43.56601366172373" lon="10.593899371515773"><ele>105.0</ele><time>2026-04-03T08:24:04Z</time></trkpt><trkpt lat="43.56596079157757" lon="10.59412426372603"><ele>110.0</ele><time>2026-04-03T08:24:05Z</time></trkpt><trkpt lat="43.56595869096904" lon="10.594351193125004"><ele>111.0</ele><time>2026-04-03T08:24:06Z</time></trkpt><trkpt lat="43.56600027887742" lon="10.594597462522408"><ele>112.0</ele><time>2026-04-03T08:24:07Z</time></trkpt><trkpt lat="43.56607912547581" lon="10.594840231027103"><ele>113.0</ele><time>2026-04-03T08:24:08Z</time></trkpt><trkpt lat="43.56617982248492" lon="10.595052565223718"><ele>109.60000000000001</ele><time>2026-04-03T08:24:09.001Z</time></trkpt><trkpt lat="43.56626091542256" lon="10.59523963745987"><ele>106.20000000000002</ele><time>2026-04-03T08:24:10.001Z</time></trkpt><trkpt lat="43.56630035935676" lon="10.595371322330243"><ele>102.8</ele><time>2026-04-03T08:24:11.001Z</time></trkpt><trkpt lat="43.56630052366858" lon="10.595476401881474"><ele>99.4</ele><time>2026-04-03T08:24:12.001Z</time></trkpt><trkpt lat="43.56624481423385" lon="10.595563688914439"><ele>96.0</ele><time>2026-04-03T08:24:13.001Z</time></trkpt><trkpt lat="43.566139570647856" lon="10.595597261663087"><ele>96.0</ele><time>2026-04-03T08:24:14.001Z</time></trkpt><trkpt lat="43.56604131100036" lon="10.595614120132577"><ele>96.0</ele><time>2026-04-03T08:24:15.001Z</time></trkpt><trkpt lat="43.56593838931295" lon="10.595529640739919"><ele>96.0</ele><time>2026-04-03T08:24:16.001Z</time></trkpt><trkpt lat="43.56579236842803" lon="10.595467623313803"><ele>96.0</ele><time>2026-04-03T08:24:17.001Z</time></trkpt><trkpt lat="43.56562486455263" lon="10.595364305889504"><ele>99.25</ele><time>2026-04-03T08:24:18.001Z</time></trkpt><trkpt lat="43.56546942559155" lon="10.595270318665078"><ele>102.5</ele><time>2026-04-03T08:24:19.001Z</time></trkpt><trkpt lat="43.565406983735436" lon="10.595257350308346"><ele>105.75</ele><time>2026-04-03T08:24:20.001Z</time></trkpt><trkpt lat="43.5652662416991" lon="10.595291119474675"><ele>109.0</ele><time>2026-04-03T08:24:21.001Z</time></trkpt><trkpt lat="43.56516096403783" lon="10.595361855198648"><ele>109.0</ele><time>2026-04-03T08:24:22.001Z</time></trkpt><trkpt lat="43.56507613078283" lon="10.595444900404255"><ele>109.0</ele><time>2026-04-03T08:24:23.001Z</time></trkpt><trkpt lat="43.565002476804395" lon="10.59551859423768"><ele>109.0</ele><time>2026-04-03T08:24:24.001Z</time></trkpt><trkpt lat="43.56493682255343" lon="10.595558595014616"><ele>109.0</ele><time>2026-04-03T08:24:25.001Z</time></trkpt><trkpt lat="43.56485916673873" lon="10.595588325489961"><ele>109.0</ele><time>2026-04-03T08:24:27.001Z</time></trkpt><trkpt lat="43.56474400498786" lon="10.59559347334961"><ele>109.0</ele><time>2026-04-03T08:24:30.001Z</time></trkpt><trkpt lat="43.56469583525445" lon="10.59565845973578"><ele>109.0</ele><time>2026-04-03T08:24:31.001Z</time></trkpt><trkpt lat="43.56463221556172" lon="10.595744289623164"><ele>109.0</ele><time>2026-04-03T08:24:32.001Z</time></trkpt><trkpt lat="43.56455919985273" lon="10.595849776578973"><ele>109.0</ele><time>2026-04-03T08:24:33.001Z</time></trkpt><trkpt lat="43.564494931312915" lon="10.595971389848543"><ele>109.0</ele><time>2026-04-03T08:24:34.001Z</time></trkpt><trkpt lat="43.56441158030525" lon="10.596090854627908"><ele>109.5</ele><time>2026-04-03T08:24:35.001Z</time></trkpt><trkpt lat="43.564314351976414" lon="10.596201767176282"><ele>110.0</ele><time>2026-04-03T08:24:36.001Z</time></trkpt><trkpt lat="43.564233564041736" lon="10.596320674197816"><ele>110.5</ele><time>2026-04-03T08:24:37.001Z</time></trkpt><trkpt lat="43.56415425554174" lon="10.596435792932317"><ele>111.0</ele><time>2026-04-03T08:24:38.001Z</time></trkpt><trkpt lat="43.56407147135416" lon="10.596551717758052"><ele>111.0</ele><time>2026-04-03T08:24:39.001Z</time></trkpt><trkpt lat="43.56397465303043" lon="10.59666891332115"><ele>111.0</ele><time>2026-04-03T08:24:40.001Z</time></trkpt><trkpt lat="43.56389399293643" lon="10.596804487302359"><ele>111.0</ele><time>2026-04-03T08:24:41.001Z</time></trkpt><trkpt lat="43.563806336224935" lon="10.59692632654733"><ele>111.0</ele><time>2026-04-03T08:24:42.001Z</time></trkpt><trkpt lat="43.56370990850183" lon="10.597052044610107"><ele>113.25</ele><time>2026-04-03T08:24:43.001Z</time></trkpt><trkpt lat="43.56362147437498" lon="10.597173376860983"><ele>115.5</ele><time>2026-04-03T08:24:44.001Z</time></trkpt><trkpt lat="43.56353259778159" lon="10.597294308273185"><ele>117.75</ele><time>2026-04-03T08:24:45.001Z</time></trkpt><trkpt lat="43.563439029297164" lon="10.597415316593386"><ele>120.0</ele><time>2026-04-03T08:24:46.001Z</time></trkpt><trkpt lat="43.56331601867669" lon="10.597510477283016"><ele>120.0</ele><time>2026-04-03T08:24:47.001Z</time></trkpt><trkpt lat="43.563206150023014" lon="10.597589558824632"><ele>120.0</ele><time>2026-04-03T08:24:48.001Z</time></trkpt><trkpt lat="43.56308696327783" lon="10.59765152166888"><ele>120.0</ele><time>2026-04-03T08:24:49.001Z</time></trkpt><trkpt lat="43.562964354537776" lon="10.597714371787873"><ele>120.0</ele><time>2026-04-03T08:24:50.001Z</time></trkpt><trkpt lat="43.5628458484936" lon="10.59777370250311"><ele>120.75</ele><time>2026-04-03T08:24:51.001Z</time></trkpt><trkpt lat="43.562728756479004" lon="10.597835325724468"><ele>121.5</ele><time>2026-04-03T08:24:52.001Z</time></trkpt><trkpt lat="43.56261429645826" lon="10.597889881959931"><ele>122.25</ele><time>2026-04-03T08:24:53.001Z</time></trkpt><trkpt lat="43.56250568752095" lon="10.597927751641315"><ele>123.0</ele><time>2026-04-03T08:24:54.001Z</time></trkpt><trkpt lat="43.562403671272875" lon="10.597950897135664"><ele>123.0</ele><time>2026-04-03T08:24:55.001Z</time></trkpt><trkpt lat="43.562313532499154" lon="10.597984146522148"><ele>123.00000000000001</ele><time>2026-04-03T08:24:56.001Z</time></trkpt><trkpt lat="43.562215999560806" lon="10.597955672656749"><ele>123.00000000000001</ele><time>2026-04-03T08:24:57.001Z</time></trkpt><trkpt lat="43.56211573448532" lon="10.597936436015235"><ele>123.0</ele><time>2026-04-03T08:24:58.001Z</time></trkpt><trkpt lat="43.56201540503" lon="10.59791135941139"><ele>123.0</ele><time>2026-04-03T08:24:59.001Z</time></trkpt><trkpt lat="43.561915222347295" lon="10.597895808058057"><ele>122.4</ele><time>2026-04-03T08:25:00.001Z</time></trkpt><trkpt lat="43.56182327828823" lon="10.597841698872967"><ele>121.80000000000001</ele><time>2026-04-03T08:25:01.001Z</time></trkpt><trkpt lat="43.561732675161146" lon="10.597804730241059"><ele>121.2</ele><time>2026-04-03T08:25:02.001Z</time></trkpt><trkpt lat="43.56163808660814" lon="10.597766171859188"><ele>120.6</ele><time>2026-04-03T08:25:03.001Z</time></trkpt><trkpt lat="43.561541350691435" lon="10.597732564693649"><ele>120.0</ele><time>2026-04-03T08:25:04.001Z</time></trkpt><trkpt lat="43.56144585859782" lon="10.597713525074676"><ele>120.0</ele><time>2026-04-03T08:25:05.001Z</time></trkpt><trkpt lat="43.56133875023579" lon="10.597687926369263"><ele>120.0</ele><time>2026-04-03T08:25:06.001Z</time></trkpt><trkpt lat="43.56118753766419" lon="10.59771475363021"><ele>120.0</ele><time>2026-04-03T08:25:07.001Z</time></trkpt><trkpt lat="43.56103977876245" lon="10.597768182639811"><ele>120.0</ele><time>2026-04-03T08:25:08.001Z</time></trkpt><trkpt lat="43.560921547791274" lon="10.597800232197903"><ele>122.8</ele><time>2026-04-03T08:25:09.001Z</time></trkpt><trkpt lat="43.56081388279268" lon="10.597811162955693"><ele>125.6</ele><time>2026-04-03T08:25:10.001Z</time></trkpt><trkpt lat="43.56069534204636" lon="10.597796999628235"><ele>128.4</ele><time>2026-04-03T08:25:11.001Z</time></trkpt><trkpt lat="43.56059943127059" lon="10.5977768731651"><ele>131.2</ele><time>2026-04-03T08:25:12.001Z</time></trkpt><trkpt lat="43.56049351204638" lon="10.597749698451008"><ele>134.0</ele><time>2026-04-03T08:25:13.001Z</time></trkpt><trkpt lat="43.56037420934952" lon="10.597716641746551"><ele>134.66666666666666</ele><time>2026-04-03T08:25:14.001Z</time></trkpt><trkpt lat="43.56024063650635" lon="10.59768056725904"><ele>135.33333333333334</ele><time>2026-04-03T08:25:15.001Z</time></trkpt><trkpt lat="43.5600918431227" lon="10.597686898924216"><ele>136.0</ele><time>2026-04-03T08:25:16.001Z</time></trkpt><trkpt lat="43.55992843422006" lon="10.597651544819838"><ele>136.0</ele><time>2026-04-03T08:25:17.001Z</time></trkpt><trkpt lat="43.55977117241132" lon="10.59761001881717"><ele>136.0</ele><time>2026-04-03T08:25:18.001Z</time></trkpt><trkpt lat="43.559610957758466" lon="10.597560361557072"><ele>136.0</ele><time>2026-04-03T08:25:19.001Z</time></trkpt><trkpt lat="43.55945997037878" lon="10.597475005118495"><ele>135.66666666666669</ele><time>2026-04-03T08:25:20.001Z</time></trkpt><trkpt lat="43.55929184616478" lon="10.59744559488395"><ele>135.33333333333334</ele><time>2026-04-03T08:25:21.001Z</time></trkpt><trkpt lat="43.559136080581034" lon="10.597406436367507"><ele>135.0</ele><time>2026-04-03T08:25:22.001Z</time></trkpt><trkpt lat="43.55896852791838" lon="10.597387449915338"><ele>135.0</ele><time>2026-04-03T08:25:23.001Z</time></trkpt><trkpt lat="43.55879541641436" lon="10.597399212681278"><ele>135.0</ele><time>2026-04-03T08:25:24.001Z</time></trkpt><trkpt lat="43.55861121686146" lon="10.597457439747872"><ele>135.0</ele><time>2026-04-03T08:25:25.001Z</time></trkpt><trkpt lat="43.55842789154557" lon="10.597550242037341"><ele>135.33333333333334</ele><time>2026-04-03T08:25:26.001Z</time></trkpt><trkpt lat="43.55824810242395" lon="10.59766327736716"><ele>135.66666666666669</ele><time>2026-04-03T08:25:27.001Z</time></trkpt><trkpt lat="43.55807306866643" lon="10.597781123553842"><ele>136.0</ele><time>2026-04-03T08:25:28.001Z</time></trkpt><trkpt lat="43.55791154896745" lon="10.597913768492345"><ele>136.33333333333334</ele><time>2026-04-03T08:25:29.001Z</time></trkpt><trkpt lat="43.55775923668518" lon="10.598068322183837"><ele>136.66666666666666</ele><time>2026-04-03T08:25:30.001Z</time></trkpt><trkpt lat="43.557614546963606" lon="10.598260112109635"><ele>137.0</ele><time>2026-04-03T08:25:31.001Z</time></trkpt><trkpt lat="43.557481704590444" lon="10.598470197103321"><ele>137.0</ele><time>2026-04-03T08:25:32.001Z</time></trkpt><trkpt lat="43.557319076931876" lon="10.598665931082998"><ele>137.0</ele><time>2026-04-03T08:25:33.001Z</time></trkpt><trkpt lat="43.55715615003449" lon="10.598884586639333"><ele>137.0</ele><time>2026-04-03T08:25:34.001Z</time></trkpt><trkpt lat="43.557009711682824" lon="10.599128504341868"><ele>137.0</ele><time>2026-04-03T08:25:35.001Z</time></trkpt><trkpt lat="43.55685650545547" lon="10.59938160813723"><ele>137.0</ele><time>2026-04-03T08:25:36.001Z</time></trkpt><trkpt lat="43.55671658186694" lon="10.599608969157202"><ele>139.0</ele><time>2026-04-03T08:25:37.001Z</time></trkpt><trkpt lat="43.556571582145374" lon="10.59978243950772"><ele>141.0</ele><time>2026-04-03T08:25:38.001Z</time></trkpt><trkpt lat="43.55639926484331" lon="10.599878836238087"><ele>143.0</ele><time>2026-04-03T08:25:39.001Z</time></trkpt><trkpt lat="43.556198208333605" lon="10.599982152593833"><ele>143.0</ele><time>2026-04-03T08:25:40.001Z</time></trkpt><trkpt lat="43.55600104044722" lon="10.600143061935386"><ele>143.0</ele><time>2026-04-03T08:25:41.001Z</time></trkpt><trkpt lat="43.555807306816064" lon="10.60032123455034"><ele>143.66666666666666</ele><time>2026-04-03T08:25:42.001Z</time></trkpt><trkpt lat="43.5556376487749" lon="10.600539139098471"><ele>144.33333333333334</ele><time>2026-04-03T08:25:43.001Z</time></trkpt><trkpt lat="43.555491689651" lon="10.600738370803482"><ele>145.0</ele><time>2026-04-03T08:25:44.001Z</time></trkpt><trkpt lat="43.55535858383102" lon="10.600915442420085"><ele>142.66666666666669</ele><time>2026-04-03T08:25:45.001Z</time></trkpt><trkpt lat="43.55525280897995" lon="10.601100974669718"><ele>140.33333333333334</ele><time>2026-04-03T08:25:46.001Z</time></trkpt><trkpt lat="43.55518786053862" lon="10.60132488993534"><ele>138.0</ele><time>2026-04-03T08:25:47.001Z</time></trkpt><trkpt lat="43.555159127919474" lon="10.601596703201299"><ele>136.0</ele><time>2026-04-03T08:25:48.001Z</time></trkpt><trkpt lat="43.555165531961634" lon="10.601888347495585"><ele>134.0</ele><time>2026-04-03T08:25:49.001Z</time></trkpt><trkpt lat="43.55519945417853" lon="10.602185414600124"><ele>132.0</ele><time>2026-04-03T08:25:50.001Z</time></trkpt><trkpt lat="43.555237619636394" lon="10.602479993699328"><ele>130.33333333333334</ele><time>2026-04-03T08:25:51.001Z</time></trkpt><trkpt lat="43.555260093527735" lon="10.60276439419879"><ele>128.66666666666669</ele><time>2026-04-03T08:25:52.001Z</time></trkpt><trkpt lat="43.55523980861068" lon="10.603031808717068"><ele>127.0</ele><time>2026-04-03T08:25:53.001Z</time></trkpt><trkpt lat="43.5551928019603" lon="10.603300153694503"><ele>127.0</ele><time>2026-04-03T08:25:54.001Z</time></trkpt><trkpt lat="43.55512389441829" lon="10.603556588452813"><ele>127.0</ele><time>2026-04-03T08:25:55.001Z</time></trkpt><trkpt lat="43.55505464302403" lon="10.603796090604762"><ele>127.0</ele><time>2026-04-03T08:25:56.001Z</time></trkpt><trkpt lat="43.55497056504735" lon="10.603987536671642"><ele>129.33333333333334</ele><time>2026-04-03T08:25:57.001Z</time></trkpt><trkpt lat="43.554871804212894" lon="10.60414928288395"><ele>131.66666666666666</ele><time>2026-04-03T08:25:58.001Z</time></trkpt><trkpt lat="43.554764472801914" lon="10.604283723302636"><ele>134.0</ele><time>2026-04-03T08:25:59.001Z</time></trkpt><trkpt lat="43.55462890801842" lon="10.604377413002231"><ele>135.33333333333331</ele><time>2026-04-03T08:26:00.001Z</time></trkpt><trkpt lat="43.5544738951432" lon="10.604387502734534"><ele>136.66666666666666</ele><time>2026-04-03T08:26:01.001Z</time></trkpt><trkpt lat="43.55433280891724" lon="10.60434899313316"><ele>138.0</ele><time>2026-04-03T08:26:02.001Z</time></trkpt><trkpt lat="43.554174965106526" lon="10.604283389047898"><ele>138.0</ele><time>2026-04-03T08:26:03.001Z</time></trkpt><trkpt lat="43.55400864556246" lon="10.604207984271788"><ele>138.0</ele><time>2026-04-03T08:26:04.001Z</time></trkpt><trkpt lat="43.55383595129076" lon="10.60412978146287"><ele>138.0</ele><time>2026-04-03T08:26:05.001Z</time></trkpt><trkpt lat="43.5536572788415" lon="10.604050999308972"><ele>140.33333333333334</ele><time>2026-04-03T08:26:06.001Z</time></trkpt><trkpt lat="43.553477300412915" lon="10.603973092713055"><ele>142.66666666666669</ele><time>2026-04-03T08:26:07.001Z</time></trkpt><trkpt lat="43.55329963758504" lon="10.603899124193918"><ele>145.0</ele><time>2026-04-03T08:26:08.001Z</time></trkpt><trkpt lat="43.55310912349026" lon="10.6038587523614"><ele>145.0</ele><time>2026-04-03T08:26:09.001Z</time></trkpt><trkpt lat="43.552918533804906" lon="10.60377492071792"><ele>145.0</ele><time>2026-04-03T08:26:10.001Z</time></trkpt><trkpt lat="43.55272195809116" lon="10.603701394457222"><ele>145.0</ele><time>2026-04-03T08:26:11.001Z</time></trkpt><trkpt lat="43.5525277526562" lon="10.603617387370013"><ele>146.33333333333334</ele><time>2026-04-03T08:26:12.001Z</time></trkpt><trkpt lat="43.552326043577374" lon="10.6035362242864"><ele>147.66666666666666</ele><time>2026-04-03T08:26:13.001Z</time></trkpt><trkpt lat="43.55213705257151" lon="10.603439324792403"><ele>149.0</ele><time>2026-04-03T08:26:14.001Z</time></trkpt><trkpt lat="43.55194883198763" lon="10.603343410517562"><ele>149.0</ele><time>2026-04-03T08:26:15.001Z</time></trkpt><trkpt lat="43.55175948373906" lon="10.603265186769004"><ele>149.0</ele><time>2026-04-03T08:26:16.001Z</time></trkpt><trkpt lat="43.55156896049887" lon="10.603187928327115"><ele>149.0</ele><time>2026-04-03T08:26:17.001Z</time></trkpt><trkpt lat="43.5513789151841" lon="10.603106450404375"><ele>147.0</ele><time>2026-04-03T08:26:18.001Z</time></trkpt><trkpt lat="43.55118871160682" lon="10.603025804081465"><ele>145.0</ele><time>2026-04-03T08:26:19.001Z</time></trkpt><trkpt lat="43.550982249815306" lon="10.602979625016452"><ele>143.0</ele><time>2026-04-03T08:26:20.001Z</time></trkpt><trkpt lat="43.55077154265538" lon="10.602933026175082"><ele>143.0</ele><time>2026-04-03T08:26:21.001Z</time></trkpt><trkpt lat="43.55055170945682" lon="10.602921210687827"><ele>143.0</ele><time>2026-04-03T08:26:22.001Z</time></trkpt><trkpt lat="43.55032577112988" lon="10.6028916846116"><ele>143.0</ele><time>2026-04-03T08:26:23.001Z</time></trkpt><trkpt lat="43.55010031701127" lon="10.602887823797234"><ele>140.66666666666666</ele><time>2026-04-03T08:26:24.001Z</time></trkpt><trkpt lat="43.54987953652273" lon="10.602884043014392"><ele>138.33333333333334</ele><time>2026-04-03T08:26:25.001Z</time></trkpt><trkpt lat="43.54967144385979" lon="10.602899947419324"><ele>136.0</ele><time>2026-04-03T08:26:26.001Z</time></trkpt><trkpt lat="43.54947164487221" lon="10.602896103132325"><ele>135.0</ele><time>2026-04-03T08:26:27.001Z</time></trkpt><trkpt lat="43.54927580709102" lon="10.602891140337961"><ele>134.0</ele><time>2026-04-03T08:26:28.001Z</time></trkpt><trkpt lat="43.54909109847388" lon="10.602917648688633"><ele>133.0</ele><time>2026-04-03T08:26:29.001Z</time></trkpt><trkpt lat="43.548898197117545" lon="10.603004258207"><ele>133.66666666666669</ele><time>2026-04-03T08:26:30.001Z</time></trkpt><trkpt lat="43.54870490431557" lon="10.603121881506684"><ele>134.33333333333334</ele><time>2026-04-03T08:26:31.001Z</time></trkpt><trkpt lat="43.54850768539537" lon="10.60323514173184"><ele>135.0</ele><time>2026-04-03T08:26:32.001Z</time></trkpt><trkpt lat="43.54830179766771" lon="10.603345390985"><ele>135.0</ele><time>2026-04-03T08:26:33.001Z</time></trkpt><trkpt lat="43.548094525584034" lon="10.6034525316519"><ele>135.0</ele><time>2026-04-03T08:26:34.001Z</time></trkpt><trkpt lat="43.547892497189714" lon="10.603550575051813"><ele>135.0</ele><time>2026-04-03T08:26:35.001Z</time></trkpt><trkpt lat="43.54769363774561" lon="10.603617164673508"><ele>137.66666666666666</ele><time>2026-04-03T08:26:36.001Z</time></trkpt><trkpt lat="43.54750249098541" lon="10.603654274832229"><ele>140.33333333333331</ele><time>2026-04-03T08:26:37.001Z</time></trkpt><trkpt lat="43.547310246378004" lon="10.603643405938172"><ele>143.0</ele><time>2026-04-03T08:26:38.001Z</time></trkpt><trkpt lat="43.547124946277606" lon="10.603584521720942"><ele>146.33333333333331</ele><time>2026-04-03T08:26:39.001Z</time></trkpt><trkpt lat="43.546939752466066" lon="10.603476722835994"><ele>149.66666666666666</ele><time>2026-04-03T08:26:40.001Z</time></trkpt><trkpt lat="43.546758954952715" lon="10.60333027604933"><ele>153.0</ele><time>2026-04-03T08:26:41.001Z</time></trkpt><trkpt lat="43.54657756971418" lon="10.603167249822206"><ele>153.0</ele><time>2026-04-03T08:26:42.001Z</time></trkpt><trkpt lat="43.54639899958943" lon="10.603006024283314"><ele>153.0</ele><time>2026-04-03T08:26:43.001Z</time></trkpt><trkpt lat="43.54621870166961" lon="10.60284599672833"><ele>153.0</ele><time>2026-04-03T08:26:44.001Z</time></trkpt><trkpt lat="43.54604116938199" lon="10.602692561036058"><ele>156.66666666666666</ele><time>2026-04-03T08:26:45.001Z</time></trkpt><trkpt lat="43.54586475609994" lon="10.602546672402587"><ele>160.33333333333331</ele><time>2026-04-03T08:26:46.001Z</time></trkpt><trkpt lat="43.54566886184538" lon="10.60243053686379"><ele>164.0</ele><time>2026-04-03T08:26:47.001Z</time></trkpt><trkpt lat="43.54547713393372" lon="10.602322462488749"><ele>168.0</ele><time>2026-04-03T08:26:48.001Z</time></trkpt><trkpt lat="43.54528442755043" lon="10.602220468171025"><ele>172.0</ele><time>2026-04-03T08:26:49.001Z</time></trkpt><trkpt lat="43.54509851771725" lon="10.602102537869696"><ele>176.0</ele><time>2026-04-03T08:26:50.001Z</time></trkpt><trkpt lat="43.54491450245082" lon="10.602009289131392"><ele>176.0</ele><time>2026-04-03T08:26:51.001Z</time></trkpt><trkpt lat="43.54473104887416" lon="10.60191797989429"><ele>176.0</ele><time>2026-04-03T08:26:52.001Z</time></trkpt><trkpt lat="43.544552732160604" lon="10.60182922750673"><ele>176.0</ele><time>2026-04-03T08:26:53.001Z</time></trkpt><trkpt lat="43.54437062828226" lon="10.601739010926305"><ele>175.33333333333331</ele><time>2026-04-03T08:26:54.001Z</time></trkpt><trkpt lat="43.544192554140935" lon="10.60165081440728"><ele>174.66666666666666</ele><time>2026-04-03T08:26:55.001Z</time></trkpt><trkpt lat="43.54401812237686" lon="10.601564970493744"><ele>174.0</ele><time>2026-04-03T08:26:56.001Z</time></trkpt><trkpt lat="43.54384036552868" lon="10.601476142696582"><ele>172.33333333333334</ele><time>2026-04-03T08:26:57.001Z</time></trkpt><trkpt lat="43.54367044747259" lon="10.601388027622052"><ele>170.66666666666669</ele><time>2026-04-03T08:26:58.001Z</time></trkpt><trkpt lat="43.5435106972104" lon="10.6013024848147"><ele>169.0</ele><time>2026-04-03T08:26:59.001Z</time></trkpt><trkpt lat="43.54335527701575" lon="10.601207940786624"><ele>170.66666666666669</ele><time>2026-04-03T08:27:00.001Z</time></trkpt><trkpt lat="43.54320393221023" lon="10.601087486521326"><ele>172.33333333333334</ele><time>2026-04-03T08:27:01.001Z</time></trkpt><trkpt lat="43.54304964889928" lon="10.600945477572271"><ele>174.0</ele><time>2026-04-03T08:27:02.001Z</time></trkpt><trkpt lat="43.542891681842534" lon="10.60079809703658"><ele>172.66666666666666</ele><time>2026-04-03T08:27:03.001Z</time></trkpt><trkpt lat="43.542722890302855" lon="10.600638749360197"><ele>171.33333333333331</ele><time>2026-04-03T08:27:04.001Z</time></trkpt><trkpt lat="43.54254965334513" lon="10.600472416577082"><ele>170.0</ele><time>2026-04-03T08:27:05.001Z</time></trkpt><trkpt lat="43.54235901334673" lon="10.60031416398419"><ele>168.0</ele><time>2026-04-03T08:27:06.001Z</time></trkpt><trkpt lat="43.542169895671634" lon="10.60013237560448"><ele>166.0</ele><time>2026-04-03T08:27:07.001Z</time></trkpt><trkpt lat="43.54198614416927" lon="10.599928620063983"><ele>166.0</ele><time>2026-04-03T08:27:08.001Z</time></trkpt><trkpt lat="43.54179101342835" lon="10.599737598067007"><ele>166.0</ele><time>2026-04-03T08:27:09.001Z</time></trkpt><trkpt lat="43.54159316241262" lon="10.599539547732515"><ele>161.5</ele><time>2026-04-03T08:27:10.001Z</time></trkpt><trkpt lat="43.54140246906551" lon="10.599338796232091"><ele>157.0</ele><time>2026-04-03T08:27:11.001Z</time></trkpt><trkpt lat="43.541244963814755" lon="10.599105841142078"><ele>161.0</ele><time>2026-04-03T08:27:12.001Z</time></trkpt><trkpt lat="43.54112239969619" lon="10.598834132982885"><ele>165.0</ele><time>2026-04-03T08:27:13.001Z</time></trkpt><trkpt lat="43.5410355631443" lon="10.598551314814985"><ele>165.0</ele><time>2026-04-03T08:27:14.001Z</time></trkpt><trkpt lat="43.54095456652531" lon="10.59828061162081"><ele>165.0</ele><time>2026-04-03T08:27:15.001Z</time></trkpt><trkpt lat="43.5408545166407" lon="10.598007717667315"><ele>165.0</ele><time>2026-04-03T08:27:16.001Z</time></trkpt><trkpt lat="43.54070027226801" lon="10.597781541776035"><ele>164.0</ele><time>2026-04-03T08:27:17.001Z</time></trkpt><trkpt lat="43.540534468174734" lon="10.597590274670601"><ele>163.0</ele><time>2026-04-03T08:27:18.001Z</time></trkpt><trkpt lat="43.54038594501791" lon="10.597372849487241"><ele>162.0</ele><time>2026-04-03T08:27:19.001Z</time></trkpt><trkpt lat="43.540260716662566" lon="10.597161036930471"><ele>166.0</ele><time>2026-04-03T08:27:20.001Z</time></trkpt><trkpt lat="43.540158782139216" lon="10.596942719742353"><ele>170.0</ele><time>2026-04-03T08:27:21.001Z</time></trkpt><trkpt lat="43.54006177437551" lon="10.596768795939477"><ele>174.0</ele><time>2026-04-03T08:27:22.001Z</time></trkpt><trkpt lat="43.53998893345937" lon="10.596603260282212"><ele>174.0</ele><time>2026-04-03T08:27:23.001Z</time></trkpt><trkpt lat="43.53990807420254" lon="10.596472739778546"><ele>174.0</ele><time>2026-04-03T08:27:24.001Z</time></trkpt><trkpt lat="43.539810262248075" lon="10.59640995902734"><ele>174.0</ele><time>2026-04-03T08:27:25.001Z</time></trkpt><trkpt lat="43.5396918740014" lon="10.596400360383349"><ele>174.0</ele><time>2026-04-03T08:27:26.001Z</time></trkpt><trkpt lat="43.539573980169344" lon="10.596438262837035"><ele>176.39999999999998</ele><time>2026-04-03T08:27:27.001Z</time></trkpt><trkpt lat="43.53945787760651" lon="10.596507377966654"><ele>178.8</ele><time>2026-04-03T08:27:28.001Z</time></trkpt><trkpt lat="43.53935595454613" lon="10.596572978185026"><ele>181.2</ele><time>2026-04-03T08:27:29.001Z</time></trkpt><trkpt lat="43.53927786745456" lon="10.59662908275636"><ele>183.60000000000002</ele><time>2026-04-03T08:27:30.001Z</time></trkpt><trkpt lat="43.5392062511516" lon="10.596644589346738"><ele>186.0</ele><time>2026-04-03T08:27:31.001Z</time></trkpt><trkpt lat="43.53913433296667" lon="10.59659239531537"><ele>186.0</ele><time>2026-04-03T08:27:32.001Z</time></trkpt><trkpt lat="43.539079300153986" lon="10.596453207656245"><ele>186.0</ele><time>2026-04-03T08:27:33.001Z</time></trkpt><trkpt lat="43.53893717344561" lon="10.596409549129245"><ele>186.0</ele><time>2026-04-03T08:27:34.001Z</time></trkpt><trkpt lat="43.53879076878789" lon="10.596365776520031"><ele>186.0</ele><time>2026-04-03T08:27:35.001Z</time></trkpt><trkpt lat="43.53863539368446" lon="10.596338635954504"><ele>186.0</ele><time>2026-04-03T08:27:36.001Z</time></trkpt><trkpt lat="43.53847609611097" lon="10.596316264919643"><ele>186.0</ele><time>2026-04-03T08:27:37.001Z</time></trkpt><trkpt lat="43.53829806950793" lon="10.596289984691895"><ele>186.0</ele><time>2026-04-03T08:27:38.001Z</time></trkpt><trkpt lat="43.53810733383462" lon="10.59625627312868"><ele>186.0</ele><time>2026-04-03T08:27:39.001Z</time></trkpt><trkpt lat="43.537910066272126" lon="10.596223636993159"><ele>186.0</ele><time>2026-04-03T08:27:40.001Z</time></trkpt><trkpt lat="43.53772139395797" lon="10.596196601738795"><ele>186.0</ele><time>2026-04-03T08:27:41.001Z</time></trkpt><trkpt lat="43.53753239349461" lon="10.596147097432096"><ele>185.0</ele><time>2026-04-03T08:27:42.001Z</time></trkpt><trkpt lat="43.537339728228595" lon="10.596142792979844"><ele>184.0</ele><time>2026-04-03T08:27:43.001Z</time></trkpt><trkpt lat="43.53714569013405" lon="10.596095544142042"><ele>183.0</ele><time>2026-04-03T08:27:44.001Z</time></trkpt><trkpt lat="43.5369486137837" lon="10.596069271000601"><ele>181.66666666666666</ele><time>2026-04-03T08:27:45.001Z</time></trkpt><trkpt lat="43.53675734796102" lon="10.596043772444098"><ele>180.33333333333331</ele><time>2026-04-03T08:27:46.001Z</time></trkpt><trkpt lat="43.53658207199866" lon="10.596020405593883"><ele>179.0</ele><time>2026-04-03T08:27:47.001Z</time></trkpt><trkpt lat="43.536436409480196" lon="10.595997260655011"><ele>179.0</ele><time>2026-04-03T08:27:48.001Z</time></trkpt><trkpt lat="43.5363216764285" lon="10.595999772654258"><ele>179.0</ele><time>2026-04-03T08:27:49.001Z</time></trkpt><trkpt lat="43.53624180105192" lon="10.595968657687658"><ele>179.0</ele><time>2026-04-03T08:27:50.001Z</time></trkpt><trkpt lat="43.536180110137614" lon="10.59594608368716"><ele>179.0</ele><time>2026-04-03T08:27:51.001Z</time></trkpt><trkpt lat="43.536104398661465" lon="10.595938270374255"><ele>179.0</ele><time>2026-04-03T08:27:53.001Z</time></trkpt><trkpt lat="43.53603739949849" lon="10.596015395530534"><ele>179.0</ele><time>2026-04-03T08:27:55.001Z</time></trkpt><trkpt lat="43.53601977019085" lon="10.596103009644409"><ele>178.75</ele><time>2026-04-03T08:27:56.001Z</time></trkpt><trkpt lat="43.535983008732586" lon="10.596214629697753"><ele>178.5</ele><time>2026-04-03T08:27:57.001Z</time></trkpt><trkpt lat="43.53596894586819" lon="10.596375259900917"><ele>178.25</ele><time>2026-04-03T08:27:58.001Z</time></trkpt><trkpt lat="43.535922230731266" lon="10.59659582971224"><ele>178.0</ele><time>2026-04-03T08:27:59.001Z</time></trkpt><trkpt lat="43.535864294852445" lon="10.596849036378126"><ele>178.33333333333334</ele><time>2026-04-03T08:28:00.001Z</time></trkpt><trkpt lat="43.53580334305581" lon="10.597102482443843"><ele>178.66666666666666</ele><time>2026-04-03T08:28:01.001Z</time></trkpt><trkpt lat="43.53572285251635" lon="10.597351755129125"><ele>179.0</ele><time>2026-04-03T08:28:02.001Z</time></trkpt><trkpt lat="43.535614482581046" lon="10.597582379189626"><ele>179.0</ele><time>2026-04-03T08:28:03.001Z</time></trkpt><trkpt lat="43.535531761678506" lon="10.597831798512093"><ele>179.0</ele><time>2026-04-03T08:28:04.001Z</time></trkpt><trkpt lat="43.53543362851715" lon="10.598069417031976"><ele>179.0</ele><time>2026-04-03T08:28:05.001Z</time></trkpt><trkpt lat="43.53536621205937" lon="10.598325290104807"><ele>180.0</ele><time>2026-04-03T08:28:06.001Z</time></trkpt><trkpt lat="43.53529597954365" lon="10.598589833735076"><ele>181.0</ele><time>2026-04-03T08:28:07.001Z</time></trkpt><trkpt lat="43.535237918630635" lon="10.598852966715013"><ele>182.0</ele><time>2026-04-03T08:28:08.001Z</time></trkpt><trkpt lat="43.535191636205454" lon="10.599121655823136"><ele>183.0</ele><time>2026-04-03T08:28:09.001Z</time></trkpt><trkpt lat="43.53515959924578" lon="10.599379492515732"><ele>184.0</ele><time>2026-04-03T08:28:10.001Z</time></trkpt><trkpt lat="43.535129802909275" lon="10.599619582090863"><ele>185.0</ele><time>2026-04-03T08:28:11.001Z</time></trkpt><trkpt lat="43.53507937507219" lon="10.5998269903146"><ele>185.0</ele><time>2026-04-03T08:28:12.001Z</time></trkpt><trkpt lat="43.534981393988325" lon="10.600012146549648"><ele>185.0</ele><time>2026-04-03T08:28:13.001Z</time></trkpt><trkpt lat="43.5348679121116" lon="10.600219023717521"><ele>185.0</ele><time>2026-04-03T08:28:14.001Z</time></trkpt><trkpt lat="43.534729762144266" lon="10.600421842622884"><ele>184.33333333333331</ele><time>2026-04-03T08:28:15.001Z</time></trkpt><trkpt lat="43.53458480627451" lon="10.600594176070464"><ele>183.66666666666666</ele><time>2026-04-03T08:28:16.001Z</time></trkpt><trkpt lat="43.53444275801546" lon="10.60075930924873"><ele>183.0</ele><time>2026-04-03T08:28:17.001Z</time></trkpt><trkpt lat="43.534312172964654" lon="10.600900692198223"><ele>184.5</ele><time>2026-04-03T08:28:18.001Z</time></trkpt><trkpt lat="43.53418621194071" lon="10.601012973440707"><ele>186.0</ele><time>2026-04-03T08:28:19.001Z</time></trkpt><trkpt lat="43.53405604691057" lon="10.60107205752338"><ele>187.5</ele><time>2026-04-03T08:28:20.001Z</time></trkpt><trkpt lat="43.53391346984929" lon="10.601077388758894"><ele>189.0</ele><time>2026-04-03T08:28:21.001Z</time></trkpt><trkpt lat="43.533737336882155" lon="10.601050471861333"><ele>193.0</ele><time>2026-04-03T08:28:22.001Z</time></trkpt><trkpt lat="43.53354336817547" lon="10.601012014623127"><ele>197.0</ele><time>2026-04-03T08:28:23.001Z</time></trkpt><trkpt lat="43.53334182558934" lon="10.60099776735681"><ele>201.0</ele><time>2026-04-03T08:28:24.001Z</time></trkpt><trkpt lat="43.53315952653449" lon="10.600986308049539"><ele>201.0</ele><time>2026-04-03T08:28:25.001Z</time></trkpt><trkpt lat="43.5329860879069" lon="10.601040534548323"><ele>201.0</ele><time>2026-04-03T08:28:26.001Z</time></trkpt><trkpt lat="43.532800616146375" lon="10.601140809789031"><ele>201.0</ele><time>2026-04-03T08:28:27.001Z</time></trkpt><trkpt lat="43.53261599789728" lon="10.601255824149835"><ele>196.66666666666666</ele><time>2026-04-03T08:28:28.001Z</time></trkpt><trkpt lat="43.53243216452155" lon="10.6013647515469"><ele>192.33333333333331</ele><time>2026-04-03T08:28:29.001Z</time></trkpt><trkpt lat="43.53225916708341" lon="10.601475002603937"><ele>188.0</ele><time>2026-04-03T08:28:30.001Z</time></trkpt><trkpt lat="43.53208261306726" lon="10.60157801776671"><ele>194.66666666666666</ele><time>2026-04-03T08:28:31.001Z</time></trkpt><trkpt lat="43.53191854367153" lon="10.601680589866445"><ele>201.33333333333331</ele><time>2026-04-03T08:28:32.001Z</time></trkpt><trkpt lat="43.53175082114266" lon="10.601776509094343"><ele>208.0</ele><time>2026-04-03T08:28:33.001Z</time></trkpt><trkpt lat="43.53158399517186" lon="10.601869021880821"><ele>208.0</ele><time>2026-04-03T08:28:34.001Z</time></trkpt><trkpt lat="43.53142604603118" lon="10.60195130450878"><ele>208.0</ele><time>2026-04-03T08:28:35.001Z</time></trkpt><trkpt lat="43.53127830197973" lon="10.602019157986028"><ele>208.0</ele><time>2026-04-03T08:28:36.001Z</time></trkpt><trkpt lat="43.53113465728438" lon="10.602051445638185"><ele>208.25</ele><time>2026-04-03T08:28:37.001Z</time></trkpt><trkpt lat="43.53098799887697" lon="10.602051675587411"><ele>208.5</ele><time>2026-04-03T08:28:38.001Z</time></trkpt><trkpt lat="43.530836572991106" lon="10.602010408545835"><ele>208.75</ele><time>2026-04-03T08:28:39.001Z</time></trkpt><trkpt lat="43.53070143396716" lon="10.60193217072144"><ele>209.0</ele><time>2026-04-03T08:28:40.001Z</time></trkpt><trkpt lat="43.53056070068761" lon="10.601838899107529"><ele>209.0</ele><time>2026-04-03T08:28:41.001Z</time></trkpt><trkpt lat="43.53044445119711" lon="10.601691871613845"><ele>209.0</ele><time>2026-04-03T08:28:42.001Z</time></trkpt><trkpt lat="43.53033098168515" lon="10.601533407960012"><ele>209.0</ele><time>2026-04-03T08:28:43.001Z</time></trkpt><trkpt lat="43.53021679408604" lon="10.601365620365797"><ele>209.33333333333334</ele><time>2026-04-03T08:28:44.001Z</time></trkpt><trkpt lat="43.53009888142834" lon="10.601191506359351"><ele>209.66666666666669</ele><time>2026-04-03T08:28:45.001Z</time></trkpt><trkpt lat="43.52997654876566" lon="10.601024300008257"><ele>210.0</ele><time>2026-04-03T08:28:46.001Z</time></trkpt><trkpt lat="43.52984267790374" lon="10.60088014281757"><ele>210.0</ele><time>2026-04-03T08:28:47.001Z</time></trkpt><trkpt lat="43.52971818778435" lon="10.600742536436885"><ele>210.0</ele><time>2026-04-03T08:28:48.001Z</time></trkpt><trkpt lat="43.52958616777236" lon="10.600629136663946"><ele>210.0</ele><time>2026-04-03T08:28:49.001Z</time></trkpt><trkpt lat="43.52946770334955" lon="10.600506875141912"><ele>209.25</ele><time>2026-04-03T08:28:50.001Z</time></trkpt><trkpt lat="43.52935825413411" lon="10.600422335647545"><ele>208.5</ele><time>2026-04-03T08:28:51.001Z</time></trkpt><trkpt lat="43.52931469630947" lon="10.600254791957111"><ele>207.75</ele><time>2026-04-03T08:28:52.001Z</time></trkpt><trkpt lat="43.529164917128696" lon="10.600382975060002"><ele>207.0</ele><time>2026-04-03T08:28:53.001Z</time></trkpt><trkpt lat="43.52909262791205" lon="10.600460383632331"><ele>207.0</ele><time>2026-04-03T08:28:54.001Z</time></trkpt><trkpt lat="43.52904877250122" lon="10.600587614704851"><ele>207.0</ele><time>2026-04-03T08:28:55.001Z</time></trkpt><trkpt lat="43.52904945911323" lon="10.600735223170272"><ele>207.0</ele><time>2026-04-03T08:28:56.001Z</time></trkpt><trkpt lat="43.52908113886736" lon="10.600892482381134"><ele>207.0</ele><time>2026-04-03T08:28:57.001Z</time></trkpt><trkpt lat="43.52911759308913" lon="10.601053492066649"><ele>206.5</ele><time>2026-04-03T08:28:58.001Z</time></trkpt><trkpt lat="43.529139637025494" lon="10.601230091506697"><ele>206.0</ele><time>2026-04-03T08:28:59.001Z</time></trkpt><trkpt lat="43.52917793875867" lon="10.601411476358127"><ele>205.5</ele><time>2026-04-03T08:29:00.001Z</time></trkpt><trkpt lat="43.529206617663085" lon="10.6015894597651"><ele>205.0</ele><time>2026-04-03T08:29:01.001Z</time></trkpt><trkpt lat="43.52922182396439" lon="10.601768790892082"><ele>205.0</ele><time>2026-04-03T08:29:02.001Z</time></trkpt><trkpt lat="43.52920860970058" lon="10.601949929204318"><ele>205.0</ele><time>2026-04-03T08:29:03.001Z</time></trkpt><trkpt lat="43.52916649176482" lon="10.602134536731892"><ele>205.0</ele><time>2026-04-03T08:29:04.001Z</time></trkpt><trkpt lat="43.52912015951122" lon="10.602318150366152"><ele>205.0</ele><time>2026-04-03T08:29:05.001Z</time></trkpt><trkpt lat="43.529080295850896" lon="10.602492842228049"><ele>203.5</ele><time>2026-04-03T08:29:06.001Z</time></trkpt><trkpt lat="43.52903799447756" lon="10.602650935165562"><ele>202.0</ele><time>2026-04-03T08:29:07.001Z</time></trkpt><trkpt lat="43.52895681227677" lon="10.602779660671835"><ele>200.5</ele><time>2026-04-03T08:29:08.001Z</time></trkpt><trkpt lat="43.528882523204494" lon="10.602918139368791"><ele>199.0</ele><time>2026-04-03T08:29:09.001Z</time></trkpt><trkpt lat="43.52882286889873" lon="10.603043094354756"><ele>200.16666666666666</ele><time>2026-04-03T08:29:10.001Z</time></trkpt><trkpt lat="43.52877030187573" lon="10.603145554536955"><ele>201.33333333333331</ele><time>2026-04-03T08:29:11.001Z</time></trkpt><trkpt lat="43.52871925599169" lon="10.60324383014171"><ele>202.5</ele><time>2026-04-03T08:29:12.001Z</time></trkpt><trkpt lat="43.52867344171803" lon="10.60333382528387"><ele>203.66666666666669</ele><time>2026-04-03T08:29:13.001Z</time></trkpt><trkpt lat="43.528621786913995" lon="10.603420685638046"><ele>204.83333333333334</ele><time>2026-04-03T08:29:14.001Z</time></trkpt><trkpt lat="43.52855456455684" lon="10.603506751142724"><ele>206.0</ele><time>2026-04-03T08:29:15.001Z</time></trkpt><trkpt lat="43.52847432198621" lon="10.60357102659209"><ele>206.00000000000003</ele><time>2026-04-03T08:29:16.001Z</time></trkpt><trkpt lat="43.52839127305526" lon="10.60361695383308"><ele>206.0</ele><time>2026-04-03T08:29:17.001Z</time></trkpt><trkpt lat="43.528314270043296" lon="10.603665064645446"><ele>206.0</ele><time>2026-04-03T08:29:18.001Z</time></trkpt><trkpt lat="43.5282451250094" lon="10.603716693166794"><ele>206.0</ele><time>2026-04-03T08:29:19.001Z</time></trkpt><trkpt lat="43.528181110740164" lon="10.603773315479083"><ele>206.00000000000003</ele><time>2026-04-03T08:29:20.001Z</time></trkpt><trkpt lat="43.528131731900324" lon="10.60383769921586"><ele>206.0</ele><time>2026-04-03T08:29:21.001Z</time></trkpt><trkpt lat="43.52810205688829" lon="10.60391427515962"><ele>206.16666666666669</ele><time>2026-04-03T08:29:22.001Z</time></trkpt><trkpt lat="43.52809437822661" lon="10.604092510634613"><ele>206.33333333333334</ele><time>2026-04-03T08:29:24.001Z</time></trkpt><trkpt lat="43.52810561679572" lon="10.604194603400458"><ele>206.5</ele><time>2026-04-03T08:29:25.001Z</time></trkpt><trkpt lat="43.52812076518177" lon="10.604297435156681"><ele>206.66666666666669</ele><time>2026-04-03T08:29:26.001Z</time></trkpt><trkpt lat="43.52813631491452" lon="10.60439954993284"><ele>206.83333333333334</ele><time>2026-04-03T08:29:27.001Z</time></trkpt><trkpt lat="43.5281506788539" lon="10.604506373519422"><ele>207.0</ele><time>2026-04-03T08:29:28.001Z</time></trkpt><trkpt lat="43.528160065588466" lon="10.604612393628122"><ele>207.00000000000003</ele><time>2026-04-03T08:29:29.001Z</time></trkpt><trkpt lat="43.52816687952162" lon="10.604718758549295"><ele>207.0</ele><time>2026-04-03T08:29:30.001Z</time></trkpt><trkpt lat="43.52817026162237" lon="10.604819562181406"><ele>207.0</ele><time>2026-04-03T08:29:31.001Z</time></trkpt><trkpt lat="43.5281744248962" lon="10.604914991751876"><ele>207.0</ele><time>2026-04-03T08:29:32.001Z</time></trkpt><trkpt lat="43.52817490324181" lon="10.605003316041833"><ele>207.0</ele><time>2026-04-03T08:29:33.001Z</time></trkpt><trkpt lat="43.528164483086776" lon="10.605092567446661"><ele>207.00000000000003</ele><time>2026-04-03T08:29:34.001Z</time></trkpt><trkpt lat="43.52813734328264" lon="10.605174153606702"><ele>207.0</ele><time>2026-04-03T08:29:35.001Z</time></trkpt><trkpt lat="43.5280832620099" lon="10.605244288986244"><ele>207.0</ele><time>2026-04-03T08:29:36.001Z</time></trkpt><trkpt lat="43.52800211131041" lon="10.605303680575734"><ele>207.0</ele><time>2026-04-03T08:29:37.001Z</time></trkpt><trkpt lat="43.52790687446554" lon="10.60535457691424"><ele>207.0</ele><time>2026-04-03T08:29:38.001Z</time></trkpt><trkpt lat="43.527809465359034" lon="10.605402298071672"><ele>207.0</ele><time>2026-04-03T08:29:39.001Z</time></trkpt><trkpt lat="43.52769848919711" lon="10.605435837899162"><ele>207.0</ele><time>2026-04-03T08:29:40.001Z</time></trkpt><trkpt lat="43.527585020130104" lon="10.605450195323295"><ele>203.0</ele><time>2026-04-03T08:29:41.001Z</time></trkpt><trkpt lat="43.52747652058567" lon="10.60544661196683"><ele>199.0</ele><time>2026-04-03T08:29:42.001Z</time></trkpt><trkpt lat="43.52737472250017" lon="10.605440972194856"><ele>195.0</ele><time>2026-04-03T08:29:43.001Z</time></trkpt><trkpt lat="43.527278253057936" lon="10.605444341960345"><ele>191.0</ele><time>2026-04-03T08:29:44.001Z</time></trkpt><trkpt lat="43.527180126939825" lon="10.605461410802802"><ele>187.0</ele><time>2026-04-03T08:29:45.001Z</time></trkpt><trkpt lat="43.52708307229551" lon="10.605482706121352"><ele>187.39999999999998</ele><time>2026-04-03T08:29:46.001Z</time></trkpt><trkpt lat="43.52699200373861" lon="10.605510325109123"><ele>187.79999999999998</ele><time>2026-04-03T08:29:47.001Z</time></trkpt><trkpt lat="43.526919815588236" lon="10.605539285300575"><ele>188.2</ele><time>2026-04-03T08:29:48.001Z</time></trkpt><trkpt lat="43.526850053581576" lon="10.605579207231399"><ele>188.6</ele><time>2026-04-03T08:29:49.001Z</time></trkpt><trkpt lat="43.52673310866555" lon="10.605657436147327"><ele>189.0</ele><time>2026-04-03T08:29:51.001Z</time></trkpt><trkpt lat="43.52667767518721" lon="10.605747686526144"><ele>189.0</ele><time>2026-04-03T08:29:52.001Z</time></trkpt><trkpt lat="43.52660164724001" lon="10.605882049349368"><ele>189.0</ele><time>2026-04-03T08:29:53.001Z</time></trkpt><trkpt lat="43.5265632003573" lon="10.60607218621483"><ele>189.0</ele><time>2026-04-03T08:29:54.001Z</time></trkpt><trkpt lat="43.526552908493244" lon="10.60625446465973"><ele>189.0</ele><time>2026-04-03T08:29:55.001Z</time></trkpt><trkpt lat="43.52653318817329" lon="10.606420008514943"><ele>187.25</ele><time>2026-04-03T08:29:56.001Z</time></trkpt><trkpt lat="43.5264819199384" lon="10.606549628009558"><ele>185.5</ele><time>2026-04-03T08:29:57.001Z</time></trkpt><trkpt lat="43.52642775382068" lon="10.606670516515159"><ele>183.75</ele><time>2026-04-03T08:29:58.001Z</time></trkpt><trkpt lat="43.526343716466435" lon="10.606810682659646"><ele>182.0</ele><time>2026-04-03T08:29:59.001Z</time></trkpt><trkpt lat="43.52624102714221" lon="10.606978166394908"><ele>182.0</ele><time>2026-04-03T08:30:00.001Z</time></trkpt><trkpt lat="43.526126197897504" lon="10.607162650124858"><ele>182.0</ele><time>2026-04-03T08:30:01.001Z</time></trkpt><trkpt lat="43.52601900989281" lon="10.607358649116353"><ele>182.0</ele><time>2026-04-03T08:30:02.001Z</time></trkpt><trkpt lat="43.5258847306524" lon="10.607546263245512"><ele>182.0</ele><time>2026-04-03T08:30:03.001Z</time></trkpt><trkpt lat="43.52575656451286" lon="10.60773760210394"><ele>182.0</ele><time>2026-04-03T08:30:04.001Z</time></trkpt><trkpt lat="43.52564549024779" lon="10.607916297399862"><ele>182.0</ele><time>2026-04-03T08:30:05.001Z</time></trkpt><trkpt lat="43.52556962481293" lon="10.608092010127825"><ele>179.33333333333331</ele><time>2026-04-03T08:30:06.001Z</time></trkpt><trkpt lat="43.525540517627014" lon="10.608304463460687"><ele>176.66666666666666</ele><time>2026-04-03T08:30:07.001Z</time></trkpt><trkpt lat="43.525545265743176" lon="10.608540101177697"><ele>174.0</ele><time>2026-04-03T08:30:08.001Z</time></trkpt><trkpt lat="43.525553070341815" lon="10.608785279724245"><ele>175.5</ele><time>2026-04-03T08:30:09.001Z</time></trkpt><trkpt lat="43.52555620819985" lon="10.609014077660442"><ele>177.0</ele><time>2026-04-03T08:30:10.001Z</time></trkpt><trkpt lat="43.52554022697321" lon="10.609192336711493"><ele>178.5</ele><time>2026-04-03T08:30:11.001Z</time></trkpt><trkpt lat="43.52546962524232" lon="10.609333794522229"><ele>180.0</ele><time>2026-04-03T08:30:12.001Z</time></trkpt><trkpt lat="43.52537074321332" lon="10.609468597021479"><ele>178.33333333333334</ele><time>2026-04-03T08:30:13.001Z</time></trkpt><trkpt lat="43.52524210012515" lon="10.609575609313376"><ele>176.66666666666669</ele><time>2026-04-03T08:30:14.001Z</time></trkpt><trkpt lat="43.52509850238775" lon="10.609687285927208"><ele>175.0</ele><time>2026-04-03T08:30:15.001Z</time></trkpt><trkpt lat="43.52495846987886" lon="10.60981412634941"><ele>175.0</ele><time>2026-04-03T08:30:16.001Z</time></trkpt><trkpt lat="43.52481264128936" lon="10.609928628278539"><ele>175.0</ele><time>2026-04-03T08:30:17.001Z</time></trkpt><trkpt lat="43.52467211726891" lon="10.609986899720688"><ele>175.0</ele><time>2026-04-03T08:30:18.001Z</time></trkpt><trkpt lat="43.52454472250797" lon="10.610046362053346"><ele>175.0</ele><time>2026-04-03T08:30:19.001Z</time></trkpt><trkpt lat="43.524382601555025" lon="10.610010497109151"><ele>174.33333333333334</ele><time>2026-04-03T08:30:20.001Z</time></trkpt><trkpt lat="43.52421024480847" lon="10.610001914750613"><ele>173.66666666666666</ele><time>2026-04-03T08:30:21.001Z</time></trkpt><trkpt lat="43.52403537966497" lon="10.609998762244542"><ele>173.0</ele><time>2026-04-03T08:30:22.001Z</time></trkpt><trkpt lat="43.52388389935732" lon="10.609961410898611"><ele>173.0</ele><time>2026-04-03T08:30:23.001Z</time></trkpt><trkpt lat="43.52376729262096" lon="10.609911039828846"><ele>173.0</ele><time>2026-04-03T08:30:24.001Z</time></trkpt><trkpt lat="43.52366742690979" lon="10.609853374712904"><ele>173.0</ele><time>2026-04-03T08:30:25.001Z</time></trkpt><trkpt lat="43.52356858396072" lon="10.609824745714889"><ele>173.0</ele><time>2026-04-03T08:30:26.001Z</time></trkpt><trkpt lat="43.523470751384224" lon="10.609847608082164"><ele>173.0</ele><time>2026-04-03T08:30:27.001Z</time></trkpt><trkpt lat="43.5233859604722" lon="10.609920472368165"><ele>172.0</ele><time>2026-04-03T08:30:28.001Z</time></trkpt><trkpt lat="43.52331794576468" lon="10.610038472838177"><ele>171.0</ele><time>2026-04-03T08:30:29.001Z</time></trkpt><trkpt lat="43.52325997707681" lon="10.610185537526307"><ele>170.0</ele><time>2026-04-03T08:30:30.001Z</time></trkpt><trkpt lat="43.52321318446493" lon="10.610341886281388"><ele>169.0</ele><time>2026-04-03T08:30:31.001Z</time></trkpt><trkpt lat="43.52316952875758" lon="10.61049435300681"><ele>167.25</ele><time>2026-04-03T08:30:32.001Z</time></trkpt><trkpt lat="43.52313289087032" lon="10.610649962697856"><ele>165.5</ele><time>2026-04-03T08:30:33.001Z</time></trkpt><trkpt lat="43.523117961197265" lon="10.610812603827728"><ele>163.75</ele><time>2026-04-03T08:30:34.001Z</time></trkpt><trkpt lat="43.523137730033234" lon="10.610969491199759"><ele>162.0</ele><time>2026-04-03T08:30:35.001Z</time></trkpt><trkpt lat="43.523192506462145" lon="10.61111886644033"><ele>161.5</ele><time>2026-04-03T08:30:36.001Z</time></trkpt><trkpt lat="43.52327361341104" lon="10.611258398946484"><ele>161.0</ele><time>2026-04-03T08:30:37.001Z</time></trkpt><trkpt lat="43.523374327707465" lon="10.611377941822882"><ele>160.5</ele><time>2026-04-03T08:30:38.001Z</time></trkpt><trkpt lat="43.52347345033949" lon="10.611502244232579"><ele>160.0</ele><time>2026-04-03T08:30:39.001Z</time></trkpt><trkpt lat="43.52356789690626" lon="10.611633248505328"><ele>160.0</ele><time>2026-04-03T08:30:40.001Z</time></trkpt><trkpt lat="43.523657467725975" lon="10.611758019928411"><ele>160.0</ele><time>2026-04-03T08:30:41.001Z</time></trkpt><trkpt lat="43.52374773677984" lon="10.611877798079265"><ele>160.0</ele><time>2026-04-03T08:30:42.001Z</time></trkpt><trkpt lat="43.52384000372275" lon="10.612011711653189"><ele>160.0</ele><time>2026-04-03T08:30:43.001Z</time></trkpt><trkpt lat="43.523918124184696" lon="10.612168200834432"><ele>158.5</ele><time>2026-04-03T08:30:44.001Z</time></trkpt><trkpt lat="43.52398172460158" lon="10.61234792089752"><ele>157.0</ele><time>2026-04-03T08:30:45.001Z</time></trkpt><trkpt lat="43.52401192401113" lon="10.612531109995102"><ele>155.5</ele><time>2026-04-03T08:30:46.001Z</time></trkpt><trkpt lat="43.524016385765094" lon="10.612724151761068"><ele>154.0</ele><time>2026-04-03T08:30:47.001Z</time></trkpt><trkpt lat="43.5239839148444" lon="10.612918366970966"><ele>154.0</ele><time>2026-04-03T08:30:48.001Z</time></trkpt><trkpt lat="43.523980473806326" lon="10.613126386495004"><ele>154.0</ele><time>2026-04-03T08:30:49.001Z</time></trkpt><trkpt lat="43.523956719306995" lon="10.613343668433261"><ele>154.0</ele><time>2026-04-03T08:30:50.001Z</time></trkpt><trkpt lat="43.52393996284237" lon="10.613564334356894"><ele>153.66666666666669</ele><time>2026-04-03T08:30:51.001Z</time></trkpt><trkpt lat="43.523921586879254" lon="10.613787264780933"><ele>153.33333333333334</ele><time>2026-04-03T08:30:52.001Z</time></trkpt><trkpt lat="43.52390334717623" lon="10.614019873591852"><ele>153.0</ele><time>2026-04-03T08:30:53.001Z</time></trkpt><trkpt lat="43.52388759573745" lon="10.614243561932442"><ele>153.0</ele><time>2026-04-03T08:30:54.001Z</time></trkpt><trkpt lat="43.523874628895754" lon="10.614460104006048"><ele>153.0</ele><time>2026-04-03T08:30:55.001Z</time></trkpt><trkpt lat="43.52386312054523" lon="10.61466481859815"><ele>153.0</ele><time>2026-04-03T08:30:56.001Z</time></trkpt><trkpt lat="43.52384337714327" lon="10.614860019629042"><ele>153.0</ele><time>2026-04-03T08:30:57.001Z</time></trkpt><trkpt lat="43.52382082577053" lon="10.615067709688814"><ele>152.5</ele><time>2026-04-03T08:30:58.001Z</time></trkpt><trkpt lat="43.523802447064504" lon="10.615274171228892"><ele>152.0</ele><time>2026-04-03T08:30:59.001Z</time></trkpt><trkpt lat="43.523779412839765" lon="10.615477004083722"><ele>151.5</ele><time>2026-04-03T08:31:00.001Z</time></trkpt><trkpt lat="43.5237532303258" lon="10.61566943558685"><ele>151.0</ele><time>2026-04-03T08:31:01.001Z</time></trkpt><trkpt lat="43.52372837381175" lon="10.615852737735445"><ele>150.5</ele><time>2026-04-03T08:31:02.001Z</time></trkpt><trkpt lat="43.523698190573185" lon="10.616035214004878"><ele>150.0</ele><time>2026-04-03T08:31:03.001Z</time></trkpt><trkpt lat="43.52366689867912" lon="10.616208331176862"><ele>149.5</ele><time>2026-04-03T08:31:04.001Z</time></trkpt><trkpt lat="43.523642198691064" lon="10.616376795559026"><ele>149.0</ele><time>2026-04-03T08:31:05.001Z</time></trkpt><trkpt lat="43.52360885245843" lon="10.616531086247358"><ele>148.2</ele><time>2026-04-03T08:31:06.001Z</time></trkpt><trkpt lat="43.52353602357306" lon="10.61663602176079"><ele>147.4</ele><time>2026-04-03T08:31:07.001Z</time></trkpt><trkpt lat="43.52347394161491" lon="10.616755553153103"><ele>146.6</ele><time>2026-04-03T08:31:08.001Z</time></trkpt><trkpt lat="43.52340447486737" lon="10.616848294353934"><ele>145.8</ele><time>2026-04-03T08:31:09.001Z</time></trkpt><trkpt lat="43.52332239481518" lon="10.616928930861054"><ele>145.0</ele><time>2026-04-03T08:31:10.001Z</time></trkpt><trkpt lat="43.52325582816031" lon="10.617028208567213"><ele>144.0</ele><time>2026-04-03T08:31:11.001Z</time></trkpt><trkpt lat="43.52319039696101" lon="10.617125439636144"><ele>143.0</ele><time>2026-04-03T08:31:12.001Z</time></trkpt><trkpt lat="43.523123416614354" lon="10.617226027369062"><ele>142.0</ele><time>2026-04-03T08:31:13.001Z</time></trkpt><trkpt lat="43.52305149182164" lon="10.617333604366184"><ele>141.0</ele><time>2026-04-03T08:31:14.001Z</time></trkpt><trkpt lat="43.522981341959685" lon="10.617451702412597"><ele>140.0</ele><time>2026-04-03T08:31:15.001Z</time></trkpt><trkpt lat="43.52288539680302" lon="10.617568612578204"><ele>139.75</ele><time>2026-04-03T08:31:16.001Z</time></trkpt><trkpt lat="43.522791744280376" lon="10.617710785130189"><ele>139.5</ele><time>2026-04-03T08:31:17.001Z</time></trkpt><trkpt lat="43.52269647185683" lon="10.617860550610288"><ele>139.25</ele><time>2026-04-03T08:31:18.001Z</time></trkpt><trkpt lat="43.522604303169544" lon="10.618007323991957"><ele>139.0</ele><time>2026-04-03T08:31:19.001Z</time></trkpt><trkpt lat="43.522515114263705" lon="10.618143148314559"><ele>138.25</ele><time>2026-04-03T08:31:20.001Z</time></trkpt><trkpt lat="43.52243252754353" lon="10.618268518892844"><ele>137.5</ele><time>2026-04-03T08:31:21.001Z</time></trkpt><trkpt lat="43.52235577737225" lon="10.61838455724707"><ele>136.75</ele><time>2026-04-03T08:31:22.001Z</time></trkpt><trkpt lat="43.52227751474469" lon="10.618506866191463"><ele>136.0</ele><time>2026-04-03T08:31:23.001Z</time></trkpt><trkpt lat="43.522189951566695" lon="10.618639771215612"><ele>135.0</ele><time>2026-04-03T08:31:24.001Z</time></trkpt><trkpt lat="43.522111523571404" lon="10.618792360205113"><ele>134.0</ele><time>2026-04-03T08:31:25.001Z</time></trkpt><trkpt lat="43.52199720590836" lon="10.618925932597131"><ele>133.0</ele><time>2026-04-03T08:31:26.001Z</time></trkpt><trkpt lat="43.521899191516646" lon="10.619079700754037"><ele>132.0</ele><time>2026-04-03T08:31:27.001Z</time></trkpt><trkpt lat="43.52180052382195" lon="10.619225122333154"><ele>132.0</ele><time>2026-04-03T08:31:28.001Z</time></trkpt><trkpt lat="43.521728988904975" lon="10.619384643962466"><ele>132.0</ele><time>2026-04-03T08:31:29.001Z</time></trkpt><trkpt lat="43.52169401774205" lon="10.619581960380222"><ele>132.0</ele><time>2026-04-03T08:31:30.001Z</time></trkpt><trkpt lat="43.52169382991569" lon="10.619809133991925"><ele>132.0</ele><time>2026-04-03T08:31:31.001Z</time></trkpt><trkpt lat="43.5217119567959" lon="10.620068886207882"><ele>136.0</ele><time>2026-04-03T08:31:32.001Z</time></trkpt><trkpt lat="43.52173525278338" lon="10.620337283490024"><ele>140.0</ele><time>2026-04-03T08:31:33.001Z</time></trkpt><trkpt lat="43.521758864383564" lon="10.620607404351652"><ele>144.0</ele><time>2026-04-03T08:31:34.001Z</time></trkpt><trkpt lat="43.52178804809757" lon="10.620872118564833"><ele>144.0</ele><time>2026-04-03T08:31:35.001Z</time></trkpt><trkpt lat="43.5218165388678" lon="10.62114062455573"><ele>144.0</ele><time>2026-04-03T08:31:36.001Z</time></trkpt><trkpt lat="43.52182479899656" lon="10.621401694023405"><ele>144.0</ele><time>2026-04-03T08:31:37.001Z</time></trkpt><trkpt lat="43.521788990603305" lon="10.621634919764452"><ele>144.66666666666666</ele><time>2026-04-03T08:31:38.001Z</time></trkpt><trkpt lat="43.52171048825661" lon="10.621865820306427"><ele>145.33333333333331</ele><time>2026-04-03T08:31:39.001Z</time></trkpt><trkpt lat="43.52160276542763" lon="10.62208096479484"><ele>146.0</ele><time>2026-04-03T08:31:40.001Z</time></trkpt><trkpt lat="43.52146395389641" lon="10.622280158812918"><ele>147.33333333333331</ele><time>2026-04-03T08:31:41.001Z</time></trkpt><trkpt lat="43.521312894477745" lon="10.622466803349838"><ele>148.66666666666666</ele><time>2026-04-03T08:31:42.001Z</time></trkpt><trkpt lat="43.52115150106784" lon="10.62265546722474"><ele>150.0</ele><time>2026-04-03T08:31:43.001Z</time></trkpt><trkpt lat="43.52100189887661" lon="10.622835144972246"><ele>152.0</ele><time>2026-04-03T08:31:44.001Z</time></trkpt><trkpt lat="43.52085119140812" lon="10.623019285485897"><ele>154.0</ele><time>2026-04-03T08:31:45.001Z</time></trkpt><trkpt lat="43.520694574139775" lon="10.623215274644954"><ele>156.0</ele><time>2026-04-03T08:31:46.001Z</time></trkpt><trkpt lat="43.520536163868705" lon="10.62341524403715"><ele>159.33333333333334</ele><time>2026-04-03T08:31:47.001Z</time></trkpt><trkpt lat="43.520379745527606" lon="10.623612466670497"><ele>162.66666666666669</ele><time>2026-04-03T08:31:48.001Z</time></trkpt><trkpt lat="43.52022281672571" lon="10.623805097755978"><ele>166.0</ele><time>2026-04-03T08:31:49.001Z</time></trkpt><trkpt lat="43.52008757082663" lon="10.623974838504388"><ele>166.0</ele><time>2026-04-03T08:31:50.001Z</time></trkpt><trkpt lat="43.51996380135051" lon="10.624135215870066"><ele>166.0</ele><time>2026-04-03T08:31:51.001Z</time></trkpt><trkpt lat="43.5198516829702" lon="10.62427488307825"><ele>166.0</ele><time>2026-04-03T08:31:52.001Z</time></trkpt><trkpt lat="43.51973753337614" lon="10.62440209751034"><ele>165.75</ele><time>2026-04-03T08:31:53.001Z</time></trkpt><trkpt lat="43.51962861601168" lon="10.624542654224278"><ele>165.5</ele><time>2026-04-03T08:31:54.001Z</time></trkpt><trkpt lat="43.51952026214324" lon="10.624674235452424"><ele>165.25</ele><time>2026-04-03T08:31:55.001Z</time></trkpt><trkpt lat="43.519423715197874" lon="10.624780208303523"><ele>165.0</ele><time>2026-04-03T08:31:56.001Z</time></trkpt><trkpt lat="43.51917846133495" lon="10.624575988434565"><ele>167.33333333333334</ele><time>2026-04-03T08:31:57.001Z</time></trkpt><trkpt lat="43.5190149434773" lon="10.62453258570843"><ele>169.66666666666669</ele><time>2026-04-03T08:31:58.001Z</time></trkpt><trkpt lat="43.518840645442346" lon="10.624502161487344"><ele>172.0</ele><time>2026-04-03T08:31:59.001Z</time></trkpt><trkpt lat="43.51867084240995" lon="10.624447710515877"><ele>174.66666666666669</ele><time>2026-04-03T08:32:00.001Z</time></trkpt><trkpt lat="43.518500240787205" lon="10.624400693386358"><ele>177.33333333333334</ele><time>2026-04-03T08:32:01.001Z</time></trkpt><trkpt lat="43.51832684294517" lon="10.624354964370402"><ele>180.0</ele><time>2026-04-03T08:32:02.001Z</time></trkpt><trkpt lat="43.51815413557993" lon="10.624310374719125"><ele>180.0</ele><time>2026-04-03T08:32:03.001Z</time></trkpt><trkpt lat="43.517977502360345" lon="10.624265938108257"><ele>180.0</ele><time>2026-04-03T08:32:04.001Z</time></trkpt><trkpt lat="43.517798379457396" lon="10.624223740516527"><ele>180.0</ele><time>2026-04-03T08:32:05.001Z</time></trkpt><trkpt lat="43.51762335346744" lon="10.624183627155672"><ele>184.0</ele><time>2026-04-03T08:32:06Z</time></trkpt><trkpt lat="43.51745137920865" lon="10.624148153157073"><ele>188.0</ele><time>2026-04-03T08:32:07Z</time></trkpt><trkpt lat="43.51728071987248" lon="10.624103159565808"><ele>192.0</ele><time>2026-04-03T08:32:08Z</time></trkpt><trkpt lat="43.5171538178555" lon="10.623994418466834"><ele>194.25</ele><time>2026-04-03T08:32:09Z</time></trkpt><trkpt lat="43.517047836859895" lon="10.623877301272275"><ele>196.5</ele><time>2026-04-03T08:32:10Z</time></trkpt><trkpt lat="43.51698300041858" lon="10.623728733016552"><ele>198.75</ele><time>2026-04-03T08:32:11Z</time></trkpt><trkpt lat="43.516941956622944" lon="10.62353406901608"><ele>201.0</ele><time>2026-04-03T08:32:12Z</time></trkpt><trkpt lat="43.516878856436186" lon="10.623325997059501"><ele>201.33333333333331</ele><time>2026-04-03T08:32:13Z</time></trkpt><trkpt lat="43.51682343905104" lon="10.623092741811169"><ele>201.66666666666666</ele><time>2026-04-03T08:32:14Z</time></trkpt><trkpt lat="43.51674384748974" lon="10.622869543755646"><ele>202.0</ele><time>2026-04-03T08:32:15Z</time></trkpt><trkpt lat="43.5166346191857" lon="10.62266678701243"><ele>202.33333333333331</ele><time>2026-04-03T08:32:16Z</time></trkpt><trkpt lat="43.51650430405314" lon="10.622492423137052"><ele>202.66666666666669</ele><time>2026-04-03T08:32:17Z</time></trkpt><trkpt lat="43.51635397012911" lon="10.622354640773777"><ele>203.0</ele><time>2026-04-03T08:32:18Z</time></trkpt><trkpt lat="43.5161803673575" lon="10.622235879407233"><ele>204.66666666666669</ele><time>2026-04-03T08:32:19Z</time></trkpt><trkpt lat="43.51598904411274" lon="10.622169984164291"><ele>206.33333333333331</ele><time>2026-04-03T08:32:20Z</time></trkpt><trkpt lat="43.51579100378646" lon="10.622163453805593"><ele>208.0</ele><time>2026-04-03T08:32:21Z</time></trkpt><trkpt lat="43.5155972971266" lon="10.62219897160958"><ele>208.0</ele><time>2026-04-03T08:32:22Z</time></trkpt><trkpt lat="43.515429423413806" lon="10.622181720195282"><ele>208.0</ele><time>2026-04-03T08:32:23Z</time></trkpt><trkpt lat="43.51528880736862" lon="10.622196558321003"><ele>208.0</ele><time>2026-04-03T08:32:24Z</time></trkpt><trkpt lat="43.51516664568617" lon="10.622180906352666"><ele>208.0</ele><time>2026-04-03T08:32:25Z</time></trkpt><trkpt lat="43.51504913241188" lon="10.62216064738896"><ele>209.5</ele><time>2026-04-03T08:32:26Z</time></trkpt><trkpt lat="43.51493188127398" lon="10.622135093113595"><ele>211.0</ele><time>2026-04-03T08:32:27Z</time></trkpt><trkpt lat="43.514809121518404" lon="10.622104918924578"><ele>212.5</ele><time>2026-04-03T08:32:28Z</time></trkpt><trkpt lat="43.5146865869375" lon="10.622071145561732"><ele>214.0</ele><time>2026-04-03T08:32:29Z</time></trkpt><trkpt lat="43.5145699124464" lon="10.622033821223525"><ele>214.5</ele><time>2026-04-03T08:32:30Z</time></trkpt><trkpt lat="43.51445666480054" lon="10.621983831931532"><ele>215.0</ele><time>2026-04-03T08:32:31Z</time></trkpt><trkpt lat="43.51435942437397" lon="10.621891815982517"><ele>215.5</ele><time>2026-04-03T08:32:32Z</time></trkpt><trkpt lat="43.51425561284251" lon="10.621814979559792"><ele>216.0</ele><time>2026-04-03T08:32:33Z</time></trkpt><trkpt lat="43.51414658631506" lon="10.6217325316001"><ele>217.4</ele><time>2026-04-03T08:32:34Z</time></trkpt><trkpt lat="43.51403006471331" lon="10.621682112403407"><ele>218.8</ele><time>2026-04-03T08:32:35Z</time></trkpt><trkpt lat="43.51391846744272" lon="10.621634255448434"><ele>220.20000000000002</ele><time>2026-04-03T08:32:36Z</time></trkpt><trkpt lat="43.513824705916754" lon="10.621612172746255"><ele>221.60000000000002</ele><time>2026-04-03T08:32:37Z</time></trkpt><trkpt lat="43.513752479339615" lon="10.621571996680025"><ele>223.0</ele><time>2026-04-03T08:32:38Z</time></trkpt><trkpt lat="43.51368160474822" lon="10.621548731985493"><ele>223.60000000000002</ele><time>2026-04-03T08:32:39Z</time></trkpt><trkpt lat="43.513596916764556" lon="10.621512414059337"><ele>224.20000000000002</ele><time>2026-04-03T08:32:40Z</time></trkpt><trkpt lat="43.5135397873124" lon="10.621463714558034"><ele>224.8</ele><time>2026-04-03T08:32:41Z</time></trkpt><trkpt lat="43.51346497172336" lon="10.621310801995653"><ele>225.4</ele><time>2026-04-03T08:32:43Z</time></trkpt><trkpt lat="43.513452345283774" lon="10.62120150006935"><ele>226.0</ele><time>2026-04-03T08:32:44Z</time></trkpt><trkpt lat="43.513470591857285" lon="10.621090477120372"><ele>226.49999999999997</ele><time>2026-04-03T08:32:45Z</time></trkpt><trkpt lat="43.51351881683511" lon="10.62100194845155"><ele>227.0</ele><time>2026-04-03T08:32:46Z</time></trkpt><trkpt lat="43.51358196755382" lon="10.620930971439916"><ele>227.5</ele><time>2026-04-03T08:32:47Z</time></trkpt><trkpt lat="43.51364472097571" lon="10.62085717572303"><ele>228.0</ele><time>2026-04-03T08:32:48Z</time></trkpt><trkpt lat="43.51370849070982" lon="10.620771617210451"><ele>228.49999999999997</ele><time>2026-04-03T08:32:49Z</time></trkpt><trkpt lat="43.51377610614065" lon="10.62067925042177"><ele>229.0</ele><time>2026-04-03T08:32:50Z</time></trkpt><trkpt lat="43.51384008182692" lon="10.620589898167761"><ele>229.0</ele><time>2026-04-03T08:32:51Z</time></trkpt><trkpt lat="43.51390292757977" lon="10.620500684694347"><ele>228.99999999999997</ele><time>2026-04-03T08:32:52Z</time></trkpt><trkpt lat="43.513965647921765" lon="10.62040799438536"><ele>228.99999999999997</ele><time>2026-04-03T08:32:53Z</time></trkpt><trkpt lat="43.51402188913151" lon="10.620312377652233"><ele>229.0</ele><time>2026-04-03T08:32:54Z</time></trkpt><trkpt lat="43.51406659349896" lon="10.62020981168386"><ele>229.0</ele><time>2026-04-03T08:32:55Z</time></trkpt><trkpt lat="43.51409958767687" lon="10.620092178372811"><ele>230.16666666666666</ele><time>2026-04-03T08:32:56Z</time></trkpt><trkpt lat="43.514118794604194" lon="10.619975454091966"><ele>231.33333333333331</ele><time>2026-04-03T08:32:57Z</time></trkpt><trkpt lat="43.51411556282204" lon="10.61987483578175"><ele>232.5</ele><time>2026-04-03T08:32:58Z</time></trkpt><trkpt lat="43.51408924091247" lon="10.619790341487015"><ele>233.66666666666669</ele><time>2026-04-03T08:32:59Z</time></trkpt><trkpt lat="43.514040639754676" lon="10.619717870306378"><ele>234.83333333333334</ele><time>2026-04-03T08:33:00Z</time></trkpt><trkpt lat="43.51398157260549" lon="10.619641888293986"><ele>236.0</ele><time>2026-04-03T08:33:01Z</time></trkpt><trkpt lat="43.51387018869226" lon="10.619580511061256"><ele>238.0</ele><time>2026-04-03T08:33:02Z</time></trkpt><trkpt lat="43.51371575934459" lon="10.619511150428336"><ele>240.0</ele><time>2026-04-03T08:33:03Z</time></trkpt><trkpt lat="43.51352014711843" lon="10.619420076724172"><ele>242.0</ele><time>2026-04-03T08:33:04Z</time></trkpt><trkpt lat="43.51329412392754" lon="10.619314484557972"><ele>244.0</ele><time>2026-04-03T08:33:05Z</time></trkpt><trkpt lat="43.51307389412294" lon="10.619211598978605"><ele>246.0</ele><time>2026-04-03T08:33:06Z</time></trkpt><trkpt lat="43.51286729256962" lon="10.619115080502562"><ele>249.0</ele><time>2026-04-03T08:33:07Z</time></trkpt><trkpt lat="43.512682927769255" lon="10.61902549128266"><ele>252.0</ele><time>2026-04-03T08:33:08Z</time></trkpt><trkpt lat="43.51252129384927" lon="10.618947620286036"><ele>255.0</ele><time>2026-04-03T08:33:09Z</time></trkpt><trkpt lat="43.51238077095264" lon="10.618876318435353"><ele>255.0</ele><time>2026-04-03T08:33:10Z</time></trkpt><trkpt lat="43.51225574595701" lon="10.61880624877169"><ele>255.0</ele><time>2026-04-03T08:33:11Z</time></trkpt><trkpt lat="43.51213806694618" lon="10.618712066331106"><ele>255.0</ele><time>2026-04-03T08:33:12Z</time></trkpt><trkpt lat="43.51202010526355" lon="10.618603277796284"><ele>255.0</ele><time>2026-04-03T08:33:13Z</time></trkpt><trkpt lat="43.511896892163506" lon="10.61850480239126"><ele>257.25</ele><time>2026-04-03T08:33:14Z</time></trkpt><trkpt lat="43.51177851723809" lon="10.618402421071245"><ele>259.5</ele><time>2026-04-03T08:33:15Z</time></trkpt><trkpt lat="43.511648474805746" lon="10.618325578591287"><ele>261.75</ele><time>2026-04-03T08:33:16Z</time></trkpt><trkpt lat="43.51151433822039" lon="10.618282543823154"><ele>264.0</ele><time>2026-04-03T08:33:17Z</time></trkpt><trkpt lat="43.51137650630357" lon="10.618259357244705"><ele>267.0</ele><time>2026-04-03T08:33:18Z</time></trkpt><trkpt lat="43.51123348181556" lon="10.618239085849481"><ele>270.0</ele><time>2026-04-03T08:33:19Z</time></trkpt><trkpt lat="43.5110799076389" lon="10.618209198408318"><ele>273.0</ele><time>2026-04-03T08:33:20Z</time></trkpt><trkpt lat="43.51093042918591" lon="10.618180956668201"><ele>273.0</ele><time>2026-04-03T08:33:21Z</time></trkpt><trkpt lat="43.51078937850926" lon="10.618174975985543"><ele>273.0</ele><time>2026-04-03T08:33:22Z</time></trkpt><trkpt lat="43.51064858770136" lon="10.61821408597271"><ele>273.0</ele><time>2026-04-03T08:33:23Z</time></trkpt><trkpt lat="43.51051394608224" lon="10.618299201151382"><ele>273.0</ele><time>2026-04-03T08:33:24Z</time></trkpt><trkpt lat="43.51040220811289" lon="10.618410133080785"><ele>274.6666666666667</ele><time>2026-04-03T08:33:25Z</time></trkpt><trkpt lat="43.510296118660435" lon="10.618490669647194"><ele>276.3333333333333</ele><time>2026-04-03T08:33:26Z</time></trkpt><trkpt lat="43.51020706928374" lon="10.618555194561933"><ele>278.0</ele><time>2026-04-03T08:33:27Z</time></trkpt><trkpt lat="43.51013041914669" lon="10.618567852716595"><ele>279.66666666666663</ele><time>2026-04-03T08:33:28Z</time></trkpt><trkpt lat="43.51006035424922" lon="10.61854922050135"><ele>281.3333333333333</ele><time>2026-04-03T08:33:29Z</time></trkpt><trkpt lat="43.51001131897671" lon="10.618473983806004"><ele>283.0</ele><time>2026-04-03T08:33:30Z</time></trkpt><trkpt lat="43.50999158268872" lon="10.618371640643476"><ele>283.0</ele><time>2026-04-03T08:33:31Z</time></trkpt><trkpt lat="43.50995712389321" lon="10.618249924420905"><ele>283.0</ele><time>2026-04-03T08:33:32Z</time></trkpt><trkpt lat="43.509904235726474" lon="10.618130226195381"><ele>283.0</ele><time>2026-04-03T08:33:33Z</time></trkpt><trkpt lat="43.509854618556766" lon="10.618001264760144"><ele>283.0</ele><time>2026-04-03T08:33:34Z</time></trkpt><trkpt lat="43.50980325554587" lon="10.617862611556856"><ele>283.0</ele><time>2026-04-03T08:33:35Z</time></trkpt><trkpt lat="43.50975104458474" lon="10.61772342652202"><ele>283.75</ele><time>2026-04-03T08:33:36Z</time></trkpt><trkpt lat="43.50967917104644" lon="10.617580331035125"><ele>284.5</ele><time>2026-04-03T08:33:37Z</time></trkpt><trkpt lat="43.509595124557784" lon="10.617445840952549"><ele>285.25</ele><time>2026-04-03T08:33:38Z</time></trkpt><trkpt lat="43.50950941572987" lon="10.617293847852919"><ele>286.0</ele><time>2026-04-03T08:33:39Z</time></trkpt><trkpt lat="43.50943270937288" lon="10.61714290676194"><ele>286.2</ele><time>2026-04-03T08:33:40Z</time></trkpt><trkpt lat="43.5093560869842" lon="10.616997404124662"><ele>286.40000000000003</ele><time>2026-04-03T08:33:41Z</time></trkpt><trkpt lat="43.50928327035462" lon="10.616862679094366"><ele>286.6</ele><time>2026-04-03T08:33:42Z</time></trkpt><trkpt lat="43.50922112199072" lon="10.616746462579492"><ele>286.8</ele><time>2026-04-03T08:33:43Z</time></trkpt><trkpt lat="43.50916617352806" lon="10.616647920769935"><ele>287.0</ele><time>2026-04-03T08:33:44Z</time></trkpt><trkpt lat="43.50911810264788" lon="10.616548971215598"><ele>287.83333333333337</ele><time>2026-04-03T08:33:45.001Z</time></trkpt><trkpt lat="43.50909753268212" lon="10.616459665478764"><ele>288.6666666666667</ele><time>2026-04-03T08:33:46.001Z</time></trkpt><trkpt lat="43.50906756393995" lon="10.616350866169977"><ele>289.5</ele><time>2026-04-03T08:33:47.001Z</time></trkpt><trkpt lat="43.509044231407465" lon="10.616253006630767"><ele>290.3333333333333</ele><time>2026-04-03T08:33:48.001Z</time></trkpt><trkpt lat="43.509037400965966" lon="10.616159089243457"><ele>291.16666666666663</ele><time>2026-04-03T08:33:49.001Z</time></trkpt><trkpt lat="43.50905837925813" lon="10.616068082255643"><ele>292.0</ele><time>2026-04-03T08:33:50.001Z</time></trkpt><trkpt lat="43.508967512428676" lon="10.615965877776816"><ele>292.4</ele><time>2026-04-03T08:33:51.001Z</time></trkpt><trkpt lat="43.50891401097757" lon="10.615837536543088"><ele>292.79999999999995</ele><time>2026-04-03T08:33:52.001Z</time></trkpt><trkpt lat="43.50890966544391" lon="10.61570116112225"><ele>293.2</ele><time>2026-04-03T08:33:53.001Z</time></trkpt><trkpt lat="43.508892991058154" lon="10.615570408984919"><ele>293.59999999999997</ele><time>2026-04-03T08:33:54.001Z</time></trkpt><trkpt lat="43.50885479719441" lon="10.615443889432104"><ele>294.0</ele><time>2026-04-03T08:33:55.001Z</time></trkpt><trkpt lat="43.50880155586907" lon="10.615310568059567"><ele>294.4</ele><time>2026-04-03T08:33:56.001Z</time></trkpt><trkpt lat="43.50876464526099" lon="10.615182792324108"><ele>294.79999999999995</ele><time>2026-04-03T08:33:57.001Z</time></trkpt><trkpt lat="43.508705816942026" lon="10.61510870947648"><ele>295.20000000000005</ele><time>2026-04-03T08:33:58.001Z</time></trkpt><trkpt lat="43.50858679058792" lon="10.615058333215853"><ele>295.6</ele><time>2026-04-03T08:34:00.001Z</time></trkpt><trkpt lat="43.50851434076411" lon="10.615159308689805"><ele>296.0</ele><time>2026-04-03T08:34:01Z</time></trkpt><trkpt lat="43.50846294516114" lon="10.615295496786457"><ele>298.0</ele><time>2026-04-03T08:34:02Z</time></trkpt><trkpt lat="43.50839834907685" lon="10.615418793368377"><ele>300.0</ele><time>2026-04-03T08:34:03Z</time></trkpt><trkpt lat="43.50831526566797" lon="10.615513874065368"><ele>302.0</ele><time>2026-04-03T08:34:04Z</time></trkpt><trkpt lat="43.508203566571574" lon="10.615553274295388"><ele>304.0</ele><time>2026-04-03T08:34:05Z</time></trkpt><trkpt lat="43.50809717195181" lon="10.615590841121344"><ele>306.0</ele><time>2026-04-03T08:34:06Z</time></trkpt><trkpt lat="43.507978568410266" lon="10.615626736102836"><ele>308.5</ele><time>2026-04-03T08:34:07Z</time></trkpt><trkpt lat="43.50785277811193" lon="10.61569329333881"><ele>311.0</ele><time>2026-04-03T08:34:08Z</time></trkpt><trkpt lat="43.50772453451296" lon="10.615764150995044"><ele>313.5</ele><time>2026-04-03T08:34:09Z</time></trkpt><trkpt lat="43.50759548259084" lon="10.615826043593527"><ele>316.0</ele><time>2026-04-03T08:34:10Z</time></trkpt><trkpt lat="43.50747671881437" lon="10.615893542233824"><ele>316.0</ele><time>2026-04-03T08:34:11Z</time></trkpt><trkpt lat="43.50736701470868" lon="10.615944889283156"><ele>316.0</ele><time>2026-04-03T08:34:12Z</time></trkpt><trkpt lat="43.50725708278475" lon="10.615980860205003"><ele>316.0</ele><time>2026-04-03T08:34:13Z</time></trkpt><trkpt lat="43.50711316141997" lon="10.616004419804575"><ele>316.0</ele><time>2026-04-03T08:34:14Z</time></trkpt><trkpt lat="43.506963100893756" lon="10.616041661120747"><ele>317.4</ele><time>2026-04-03T08:34:15Z</time></trkpt><trkpt lat="43.506818217466225" lon="10.616040124202407"><ele>318.8</ele><time>2026-04-03T08:34:17Z</time></trkpt><trkpt lat="43.50674729755631" lon="10.616023208150686"><ele>320.2</ele><time>2026-04-03T08:34:18Z</time></trkpt><trkpt lat="43.50666969010126" lon="10.615919435763066"><ele>321.59999999999997</ele><time>2026-04-03T08:34:20Z</time></trkpt><trkpt lat="43.506596714546134" lon="10.615825875178889"><ele>323.0</ele><time>2026-04-03T08:34:21Z</time></trkpt><trkpt lat="43.50652012847119" lon="10.61571214623666"><ele>323.0</ele><time>2026-04-03T08:34:22Z</time></trkpt><trkpt lat="43.5064411569854" lon="10.615583404495048"><ele>323.0</ele><time>2026-04-03T08:34:23Z</time></trkpt><trkpt lat="43.506371632848584" lon="10.615442999836223"><ele>323.0</ele><time>2026-04-03T08:34:24Z</time></trkpt><trkpt lat="43.50630195720467" lon="10.615297761665225"><ele>323.0</ele><time>2026-04-03T08:34:25Z</time></trkpt><trkpt lat="43.50623750534522" lon="10.615161619971882"><ele>324.5</ele><time>2026-04-03T08:34:26.001Z</time></trkpt><trkpt lat="43.506179533516004" lon="10.6150516067306"><ele>326.0</ele><time>2026-04-03T08:34:27.001Z</time></trkpt><trkpt lat="43.50612307450404" lon="10.614948723307519"><ele>327.5</ele><time>2026-04-03T08:34:28.001Z</time></trkpt><trkpt lat="43.50607103343509" lon="10.614847250051193"><ele>329.0</ele><time>2026-04-03T08:34:29.001Z</time></trkpt><trkpt lat="43.50603974838515" lon="10.61475399294866"><ele>330.5</ele><time>2026-04-03T08:34:30.001Z</time></trkpt><trkpt lat="43.5060134069406" lon="10.614671356298347"><ele>332.0</ele><time>2026-04-03T08:34:31.001Z</time></trkpt><trkpt lat="43.50598665815364" lon="10.614566280683785"><ele>331.8</ele><time>2026-04-03T08:34:32.001Z</time></trkpt><trkpt lat="43.50596092286123" lon="10.614445530434361"><ele>331.6</ele><time>2026-04-03T08:34:33.001Z</time></trkpt><trkpt lat="43.50594093205818" lon="10.614344971010159"><ele>331.40000000000003</ele><time>2026-04-03T08:34:34.001Z</time></trkpt><trkpt lat="43.50592085501622" lon="10.614233925664498"><ele>331.20000000000005</ele><time>2026-04-03T08:34:35.001Z</time></trkpt><trkpt lat="43.50590091098913" lon="10.61411669876642"><ele>331.0</ele><time>2026-04-03T08:34:36.001Z</time></trkpt><trkpt lat="43.50587519527092" lon="10.613965547083247"><ele>331.0</ele><time>2026-04-03T08:34:37.001Z</time></trkpt><trkpt lat="43.50584547576928" lon="10.613856733604278"><ele>331.0</ele><time>2026-04-03T08:34:38.001Z</time></trkpt><trkpt lat="43.50582690120251" lon="10.613752817350733"><ele>331.0</ele><time>2026-04-03T08:34:39.001Z</time></trkpt><trkpt lat="43.50581208819535" lon="10.61366052514966"><ele>331.0</ele><time>2026-04-03T08:34:40.001Z</time></trkpt><trkpt lat="43.505788179760586" lon="10.613549730285225"><ele>331.0</ele><time>2026-04-03T08:34:41.001Z</time></trkpt><trkpt lat="43.50576829068076" lon="10.613419562193089"><ele>331.0</ele><time>2026-04-03T08:34:42.001Z</time></trkpt><trkpt lat="43.50574008918988" lon="10.613307886048393"><ele>329.8</ele><time>2026-04-03T08:34:43.001Z</time></trkpt><trkpt lat="43.50571102494249" lon="10.61320699246186"><ele>328.6</ele><time>2026-04-03T08:34:44.001Z</time></trkpt><trkpt lat="43.50566302006131" lon="10.613112211489796"><ele>327.4</ele><time>2026-04-03T08:34:45.001Z</time></trkpt><trkpt lat="43.50562866218511" lon="10.61301532726762"><ele>326.2</ele><time>2026-04-03T08:34:46.001Z</time></trkpt><trkpt lat="43.50555889752262" lon="10.612912231284142"><ele>325.0</ele><time>2026-04-03T08:34:47.001Z</time></trkpt><trkpt lat="43.50546151364558" lon="10.612773333934152"><ele>324.4</ele><time>2026-04-03T08:34:48.001Z</time></trkpt><trkpt lat="43.50536052374325" lon="10.61262909480711"><ele>323.8</ele><time>2026-04-03T08:34:49.001Z</time></trkpt><trkpt lat="43.50529369995747" lon="10.612524350527464"><ele>323.20000000000005</ele><time>2026-04-03T08:34:50.001Z</time></trkpt><trkpt lat="43.50524154667296" lon="10.612421488487291"><ele>322.6</ele><time>2026-04-03T08:34:51.001Z</time></trkpt><trkpt lat="43.50517418324403" lon="10.612333602366364"><ele>322.0</ele><time>2026-04-03T08:34:52.001Z</time></trkpt><trkpt lat="43.5050834174003" lon="10.612305787676995"><ele>322.0</ele><time>2026-04-03T08:34:53.001Z</time></trkpt><trkpt lat="43.504979807044" lon="10.612282371687526"><ele>322.0</ele><time>2026-04-03T08:34:54.001Z</time></trkpt><trkpt lat="43.50484552222882" lon="10.612272570219403"><ele>322.0</ele><time>2026-04-03T08:34:55.001Z</time></trkpt><trkpt lat="43.50473536673275" lon="10.612280996409993"><ele>322.0</ele><time>2026-04-03T08:34:56.001Z</time></trkpt><trkpt lat="43.50461336289328" lon="10.612271225021647"><ele>321.40000000000003</ele><time>2026-04-03T08:34:57.001Z</time></trkpt><trkpt lat="43.50452510125359" lon="10.612245761032346"><ele>320.8</ele><time>2026-04-03T08:34:58.001Z</time></trkpt><trkpt lat="43.50444579852443" lon="10.612200838057179"><ele>320.2</ele><time>2026-04-03T08:34:59.001Z</time></trkpt><trkpt lat="43.5043487897637" lon="10.612132844740435"><ele>319.6</ele><time>2026-04-03T08:35:00.001Z</time></trkpt><trkpt lat="43.50424755161109" lon="10.612056263458996"><ele>319.0</ele><time>2026-04-03T08:35:01.001Z</time></trkpt><trkpt lat="43.50417456218351" lon="10.611965372035137"><ele>319.0</ele><time>2026-04-03T08:35:02.001Z</time></trkpt><trkpt lat="43.50411341303217" lon="10.61188030424554"><ele>319.0</ele><time>2026-04-03T08:35:03.001Z</time></trkpt><trkpt lat="43.50405318785157" lon="10.611805927372584"><ele>319.0</ele><time>2026-04-03T08:35:04.001Z</time></trkpt><trkpt lat="43.503996959237725" lon="10.611748100706038"><ele>319.0</ele><time>2026-04-03T08:35:05.001Z</time></trkpt><trkpt lat="43.503942490006196" lon="10.61168325239426"><ele>319.0</ele><time>2026-04-03T08:35:06.001Z</time></trkpt><trkpt lat="43.50384399469422" lon="10.611578980032407"><ele>319.0</ele><time>2026-04-03T08:35:08.001Z</time></trkpt><trkpt lat="43.50378589667077" lon="10.61153477116388"><ele>320.3333333333333</ele><time>2026-04-03T08:35:09.001Z</time></trkpt><trkpt lat="43.50372137875741" lon="10.611493342768508"><ele>321.66666666666663</ele><time>2026-04-03T08:35:10.001Z</time></trkpt><trkpt lat="43.503652512439764" lon="10.6114603810693"><ele>323.0</ele><time>2026-04-03T08:35:11.001Z</time></trkpt><trkpt lat="43.50358839933433" lon="10.611434153331368"><ele>324.3333333333333</ele><time>2026-04-03T08:35:12.001Z</time></trkpt><trkpt lat="43.50347455995924" lon="10.611406139086373"><ele>325.6666666666667</ele><time>2026-04-03T08:35:14.001Z</time></trkpt><trkpt lat="43.50339228307714" lon="10.611388708505547"><ele>327.0</ele><time>2026-04-03T08:35:16.001Z</time></trkpt><trkpt lat="43.50331811477021" lon="10.611377304509016"><ele>327.0</ele><time>2026-04-03T08:35:28.001Z</time></trkpt><trkpt lat="43.50325178910254" lon="10.611363073979826"><ele>327.0</ele><time>2026-04-03T08:36:11.001Z</time></trkpt><trkpt lat="43.50319002908107" lon="10.611387443667516"><ele>327.0</ele><time>2026-04-03T08:36:56.001Z</time></trkpt><trkpt lat="43.50311678826268" lon="10.611423138751183"><ele>327.0</ele><time>2026-04-03T08:37:08.001Z</time></trkpt><trkpt lat="43.50304185620129" lon="10.611492566620937"><ele>327.0</ele><time>2026-04-03T08:37:11.001Z</time></trkpt><trkpt lat="43.50298206969861" lon="10.611551996384945"><ele>327.0</ele><time>2026-04-03T08:37:13.001Z</time></trkpt><trkpt lat="43.502914824368126" lon="10.61157420373175"><ele>327.0</ele><time>2026-04-03T08:37:15.001Z</time></trkpt><trkpt lat="43.50285097344193" lon="10.611563258155854"><ele>327.0</ele><time>2026-04-03T08:37:17.001Z</time></trkpt><trkpt lat="43.50281767195192" lon="10.61143775328952"><ele>327.0</ele><time>2026-04-03T08:37:21.001Z</time></trkpt><trkpt lat="43.502883569755596" lon="10.611297732010257"><ele>327.0</ele><time>2026-04-03T08:37:23.001Z</time></trkpt><trkpt lat="43.50293680506796" lon="10.611216000324934"><ele>327.0</ele><time>2026-04-03T08:37:24.001Z</time></trkpt><trkpt lat="43.50300142481541" lon="10.611131226119834"><ele>327.0</ele><time>2026-04-03T08:37:25.001Z</time></trkpt><trkpt lat="43.50310016287381" lon="10.610988777700795"><ele>326.20000000000005</ele><time>2026-04-03T08:37:27.001Z</time></trkpt><trkpt lat="43.503136729837784" lon="10.610869803094289"><ele>325.4</ele><time>2026-04-03T08:37:28.001Z</time></trkpt><trkpt lat="43.50313758689546" lon="10.610754172289711"><ele>324.6</ele><time>2026-04-03T08:37:29.001Z</time></trkpt><trkpt lat="43.50312571633644" lon="10.61062345330375"><ele>323.79999999999995</ele><time>2026-04-03T08:37:30.001Z</time></trkpt><trkpt lat="43.50307650324122" lon="10.610497163290965"><ele>323.0</ele><time>2026-04-03T08:37:31.001Z</time></trkpt><trkpt lat="43.50300048175164" lon="10.610334824270845"><ele>322.4</ele><time>2026-04-03T08:37:32.001Z</time></trkpt><trkpt lat="43.502950362200274" lon="10.610206348758165"><ele>321.79999999999995</ele><time>2026-04-03T08:37:33.001Z</time></trkpt><trkpt lat="43.502955619436186" lon="10.610116950200856"><ele>321.2</ele><time>2026-04-03T08:37:34.001Z</time></trkpt><trkpt lat="43.502977953721825" lon="10.60996805609023"><ele>320.6</ele><time>2026-04-03T08:37:36.001Z</time></trkpt><trkpt lat="43.50298538458028" lon="10.609856909489801"><ele>320.0</ele><time>2026-04-03T08:37:38.001Z</time></trkpt><trkpt lat="43.50298340122752" lon="10.609707862370328"><ele>320.0</ele><time>2026-04-03T08:37:40.001Z</time></trkpt><trkpt lat="43.50294869520751" lon="10.609620246088886"><ele>320.0</ele><time>2026-04-03T08:37:41.001Z</time></trkpt><trkpt lat="43.50289511085471" lon="10.609550125202212"><ele>320.0</ele><time>2026-04-03T08:37:42.001Z</time></trkpt><trkpt lat="43.50283723615226" lon="10.609479787315024"><ele>320.0</ele><time>2026-04-03T08:37:43.001Z</time></trkpt><trkpt lat="43.50276468455192" lon="10.60942040640817"><ele>320.0</ele><time>2026-04-03T08:37:44.001Z</time></trkpt><trkpt lat="43.502689991652915" lon="10.609368870404714"><ele>320.0</ele><time>2026-04-03T08:37:45.001Z</time></trkpt><trkpt lat="43.50261002927909" lon="10.609345530784323"><ele>323.25</ele><time>2026-04-03T08:37:46.001Z</time></trkpt><trkpt lat="43.502524508714465" lon="10.609339485146817"><ele>326.5</ele><time>2026-04-03T08:37:47.001Z</time></trkpt><trkpt lat="43.50243009115491" lon="10.609368082466847"><ele>329.75</ele><time>2026-04-03T08:37:48.001Z</time></trkpt><trkpt lat="43.50231803029662" lon="10.609421576918574"><ele>333.0</ele><time>2026-04-03T08:37:49.001Z</time></trkpt><trkpt lat="43.50216986666803" lon="10.609526853946436"><ele>336.79999999999995</ele><time>2026-04-03T08:37:50.001Z</time></trkpt><trkpt lat="43.502057381370776" lon="10.60962275580419"><ele>340.6</ele><time>2026-04-03T08:37:51.001Z</time></trkpt><trkpt lat="43.50196329012108" lon="10.609642696396408"><ele>344.4</ele><time>2026-04-03T08:37:52.001Z</time></trkpt><trkpt lat="43.50187560366546" lon="10.609667742831249"><ele>348.20000000000005</ele><time>2026-04-03T08:37:53.001Z</time></trkpt><trkpt lat="43.501797592307376" lon="10.609701723684058"><ele>352.0</ele><time>2026-04-03T08:37:54.001Z</time></trkpt><trkpt lat="43.50166517261364" lon="10.609709304422454"><ele>352.0</ele><time>2026-04-03T08:37:56.001Z</time></trkpt><trkpt lat="43.501599074269166" lon="10.609677361145215"><ele>352.0</ele><time>2026-04-03T08:37:57.001Z</time></trkpt><trkpt lat="43.50153044407833" lon="10.609618015110327"><ele>352.0</ele><time>2026-04-03T08:37:58.001Z</time></trkpt><trkpt lat="43.501462308445866" lon="10.609525989434992"><ele>352.0</ele><time>2026-04-03T08:37:59.001Z</time></trkpt><trkpt lat="43.5013670713968" lon="10.60943216787515"><ele>352.0</ele><time>2026-04-03T08:38:00.001Z</time></trkpt><trkpt lat="43.50128597929879" lon="10.609391355920534"><ele>353.25</ele><time>2026-04-03T08:38:01.001Z</time></trkpt><trkpt lat="43.50117366978069" lon="10.60944823055468"><ele>354.5</ele><time>2026-04-03T08:38:02.001Z</time></trkpt><trkpt lat="43.50105370671256" lon="10.6095521625033"><ele>355.75</ele><time>2026-04-03T08:38:03.001Z</time></trkpt><trkpt lat="43.50091981560078" lon="10.609589417538796"><ele>357.0</ele><time>2026-04-03T08:38:04.001Z</time></trkpt><trkpt lat="43.50083225164186" lon="10.609606295510792"><ele>357.0</ele><time>2026-04-03T08:38:05.001Z</time></trkpt><trkpt lat="43.50074757139291" lon="10.609577524059198"><ele>357.0</ele><time>2026-04-03T08:38:06.001Z</time></trkpt><trkpt lat="43.50068146760153" lon="10.609475719959109"><ele>357.0</ele><time>2026-04-03T08:38:07.001Z</time></trkpt><trkpt lat="43.50064118535061" lon="10.609357201212267"><ele>357.0</ele><time>2026-04-03T08:38:08.001Z</time></trkpt><trkpt lat="43.50060854579947" lon="10.609195621024469"><ele>357.0</ele><time>2026-04-03T08:38:09.001Z</time></trkpt><trkpt lat="43.50052571650418" lon="10.609088416757803"><ele>357.0</ele><time>2026-04-03T08:38:10.001Z</time></trkpt><trkpt lat="43.50042301097459" lon="10.609006592088699"><ele>357.0</ele><time>2026-04-03T08:38:11.001Z</time></trkpt><trkpt lat="43.50033163876582" lon="10.60893256179648"><ele>357.0</ele><time>2026-04-03T08:38:12.001Z</time></trkpt><trkpt lat="43.500239748696615" lon="10.608863077145358"><ele>357.0</ele><time>2026-04-03T08:38:13.001Z</time></trkpt><trkpt lat="43.500206124150026" lon="10.60870699737172"><ele>357.0</ele><time>2026-04-03T08:38:14.001Z</time></trkpt><trkpt lat="43.50016464763324" lon="10.608545788251394"><ele>360.5</ele><time>2026-04-03T08:38:15.001Z</time></trkpt><trkpt lat="43.50009077672756" lon="10.608386926637953"><ele>364.0</ele><time>2026-04-03T08:38:16.001Z</time></trkpt><trkpt lat="43.49998990374401" lon="10.608246224186734"><ele>367.5</ele><time>2026-04-03T08:38:17.001Z</time></trkpt><trkpt lat="43.4999053113378" lon="10.608085016139517"><ele>371.0</ele><time>2026-04-03T08:38:18.001Z</time></trkpt><trkpt lat="43.49981264200453" lon="10.607940630392937"><ele>371.0</ele><time>2026-04-03T08:38:19.001Z</time></trkpt><trkpt lat="43.499724935367325" lon="10.6078380661271"><ele>371.0</ele><time>2026-04-03T08:38:20.001Z</time></trkpt><trkpt lat="43.49964848265225" lon="10.607735534242144"><ele>371.0</ele><time>2026-04-03T08:38:21.001Z</time></trkpt><trkpt lat="43.49956221859139" lon="10.607663722058717"><ele>371.0</ele><time>2026-04-03T08:38:22.001Z</time></trkpt><trkpt lat="43.499453542023616" lon="10.607606338577884"><ele>371.0</ele><time>2026-04-03T08:38:23.001Z</time></trkpt><trkpt lat="43.49935494599333" lon="10.607553325606718"><ele>373.0</ele><time>2026-04-03T08:38:24.001Z</time></trkpt><trkpt lat="43.49927265764552" lon="10.60748818824833"><ele>375.0</ele><time>2026-04-03T08:38:25.001Z</time></trkpt><trkpt lat="43.49921180190271" lon="10.607438085720968"><ele>377.0</ele><time>2026-04-03T08:38:26.001Z</time></trkpt><trkpt lat="43.49914420154821" lon="10.607344526591492"><ele>379.0</ele><time>2026-04-03T08:38:28.001Z</time></trkpt><trkpt lat="43.499138107220354" lon="10.607214560339198"><ele>381.0</ele><time>2026-04-03T08:38:30.001Z</time></trkpt><trkpt lat="43.49916033234599" lon="10.60709905245349"><ele>383.0</ele><time>2026-04-03T08:38:31.001Z</time></trkpt><trkpt lat="43.49921730139388" lon="10.606949837042139"><ele>383.79999999999995</ele><time>2026-04-03T08:38:32.001Z</time></trkpt><trkpt lat="43.499233161814594" lon="10.606812274771512"><ele>384.6</ele><time>2026-04-03T08:38:33.001Z</time></trkpt><trkpt lat="43.49918819546933" lon="10.606669956907412"><ele>385.4</ele><time>2026-04-03T08:38:34.001Z</time></trkpt><trkpt lat="43.4991413920757" lon="10.60655766490187"><ele>386.20000000000005</ele><time>2026-04-03T08:38:35.001Z</time></trkpt><trkpt lat="43.499072146658676" lon="10.606477549319782"><ele>387.0</ele><time>2026-04-03T08:38:36.001Z</time></trkpt><trkpt lat="43.49897282961038" lon="10.60635898973257"><ele>387.0</ele><time>2026-04-03T08:38:37.001Z</time></trkpt><trkpt lat="43.498907661436945" lon="10.606207856477903"><ele>387.0</ele><time>2026-04-03T08:38:38.001Z</time></trkpt><trkpt lat="43.49888059052022" lon="10.606064016441346"><ele>387.0</ele><time>2026-04-03T08:38:39.001Z</time></trkpt><trkpt lat="43.49890005026219" lon="10.605974579745581"><ele>387.0</ele><time>2026-04-03T08:38:40.001Z</time></trkpt><trkpt lat="43.49892562690019" lon="10.605829530710869"><ele>387.0</ele><time>2026-04-03T08:38:41.001Z</time></trkpt><trkpt lat="43.49888675839764" lon="10.605668069677119"><ele>387.25</ele><time>2026-04-03T08:38:42.001Z</time></trkpt><trkpt lat="43.49883990691492" lon="10.60544927677224"><ele>387.5</ele><time>2026-04-03T08:38:43.001Z</time></trkpt><trkpt lat="43.49880088143131" lon="10.605282787934243"><ele>387.75</ele><time>2026-04-03T08:38:44.001Z</time></trkpt><trkpt lat="43.498761669121265" lon="10.605130667733615"><ele>388.0</ele><time>2026-04-03T08:38:45.001Z</time></trkpt><trkpt lat="43.49875376765746" lon="10.604981660512896"><ele>391.4</ele><time>2026-04-03T08:38:46.001Z</time></trkpt><trkpt lat="43.49872322778785" lon="10.60487781501187"><ele>394.79999999999995</ele><time>2026-04-03T08:38:47.001Z</time></trkpt><trkpt lat="43.49865769138501" lon="10.604774437734148"><ele>398.2</ele><time>2026-04-03T08:38:48.001Z</time></trkpt><trkpt lat="43.498582325523635" lon="10.604698898564791"><ele>401.6</ele><time>2026-04-03T08:38:49.001Z</time></trkpt><trkpt lat="43.49849125796188" lon="10.604619431525657"><ele>405.0</ele><time>2026-04-03T08:38:50.001Z</time></trkpt><trkpt lat="43.49842592512" lon="10.604572058608055"><ele>405.0</ele><time>2026-04-03T08:38:51.001Z</time></trkpt><trkpt lat="43.49835197933229" lon="10.604534376550122"><ele>405.0</ele><time>2026-04-03T08:38:53.001Z</time></trkpt><trkpt lat="43.49827004421943" lon="10.604513179763822"><ele>405.0</ele><time>2026-04-03T08:38:57.001Z</time></trkpt><trkpt lat="43.498135833790045" lon="10.604474882110672"><ele>405.0</ele><time>2026-04-03T08:38:59.001Z</time></trkpt><trkpt lat="43.49805378115656" lon="10.604404902019688"><ele>405.0</ele><time>2026-04-03T08:39:00.001Z</time></trkpt><trkpt lat="43.49794013242252" lon="10.604322015338413"><ele>406.8</ele><time>2026-04-03T08:39:01.001Z</time></trkpt><trkpt lat="43.497844120358316" lon="10.604283798419903"><ele>408.6</ele><time>2026-04-03T08:39:02.001Z</time></trkpt><trkpt lat="43.49772928117701" lon="10.604331949849996"><ele>410.4</ele><time>2026-04-03T08:39:03.001Z</time></trkpt><trkpt lat="43.49762132710334" lon="10.604294369921988"><ele>412.2</ele><time>2026-04-03T08:39:04.001Z</time></trkpt><trkpt lat="43.49755829755333" lon="10.604244266677219"><ele>414.0</ele><time>2026-04-03T08:39:05.001Z</time></trkpt><trkpt lat="43.497507224215475" lon="10.604073836527599"><ele>414.0</ele><time>2026-04-03T08:39:07.001Z</time></trkpt><trkpt lat="43.4974667605104" lon="10.60392876172613"><ele>414.0</ele><time>2026-04-03T08:39:08.001Z</time></trkpt><trkpt lat="43.49741733176664" lon="10.603758313750236"><ele>414.0</ele><time>2026-04-03T08:39:09.001Z</time></trkpt><trkpt lat="43.49736854637123" lon="10.60362437584524"><ele>414.0</ele><time>2026-04-03T08:39:10.001Z</time></trkpt><trkpt lat="43.497302535614345" lon="10.603492819307522"><ele>415.0</ele><time>2026-04-03T08:39:11.001Z</time></trkpt><trkpt lat="43.49721255363141" lon="10.603426403060887"><ele>416.0</ele><time>2026-04-03T08:39:12.001Z</time></trkpt><trkpt lat="43.49715977430471" lon="10.603260959977813"><ele>417.0</ele><time>2026-04-03T08:39:14.001Z</time></trkpt><trkpt lat="43.49719109960767" lon="10.60310035851242"><ele>418.0</ele><time>2026-04-03T08:39:15.001Z</time></trkpt><trkpt lat="43.49716260512483" lon="10.602907979502284"><ele>420.0</ele><time>2026-04-03T08:39:16.001Z</time></trkpt><trkpt lat="43.49708622051042" lon="10.602798978392876"><ele>422.0</ele><time>2026-04-03T08:39:17.001Z</time></trkpt><trkpt lat="43.49699977896785" lon="10.60266079604911"><ele>424.0</ele><time>2026-04-03T08:39:18.001Z</time></trkpt><trkpt lat="43.49692877961185" lon="10.60252623114432"><ele>426.0</ele><time>2026-04-03T08:39:19.001Z</time></trkpt><trkpt lat="43.49687943532905" lon="10.602400721168674"><ele>427.20000000000005</ele><time>2026-04-03T08:39:20.001Z</time></trkpt><trkpt lat="43.49682696681481" lon="10.602297913574448"><ele>428.40000000000003</ele><time>2026-04-03T08:39:21.001Z</time></trkpt><trkpt lat="43.4968018345127" lon="10.602168676633287"><ele>429.6</ele><time>2026-04-03T08:39:22.001Z</time></trkpt><trkpt lat="43.49676534195623" lon="10.602041184689227"><ele>430.8</ele><time>2026-04-03T08:39:23.001Z</time></trkpt><trkpt lat="43.49673514239861" lon="10.60190959640928"><ele>432.0</ele><time>2026-04-03T08:39:24.001Z</time></trkpt><trkpt lat="43.496707784098746" lon="10.601752289214936"><ele>432.0</ele><time>2026-04-03T08:39:25.001Z</time></trkpt><trkpt lat="43.49669823035739" lon="10.601625711116988"><ele>432.0</ele><time>2026-04-03T08:39:26.001Z</time></trkpt><trkpt lat="43.49669825019001" lon="10.601519179708294"><ele>432.0</ele><time>2026-04-03T08:39:27.001Z</time></trkpt><trkpt lat="43.49670747773669" lon="10.601368182745995"><ele>432.0</ele><time>2026-04-03T08:39:29.001Z</time></trkpt><trkpt lat="43.496418261012366" lon="10.6013096205865"><ele>432.0</ele><time>2026-04-03T08:39:31.001Z</time></trkpt><trkpt lat="43.49632123798977" lon="10.601307633620772"><ele>432.00000000000006</ele><time>2026-04-03T08:39:32.001Z</time></trkpt><trkpt lat="43.49622865955535" lon="10.601317594863207"><ele>432.00000000000006</ele><time>2026-04-03T08:39:33.001Z</time></trkpt><trkpt lat="43.49614786149073" lon="10.60130160072999"><ele>432.0</ele><time>2026-04-03T08:39:34.001Z</time></trkpt><trkpt lat="43.4960571322699" lon="10.601278751735398"><ele>432.0</ele><time>2026-04-03T08:39:35.001Z</time></trkpt><trkpt lat="43.4959607177204" lon="10.601242194813475"><ele>433.0</ele><time>2026-04-03T08:39:36.001Z</time></trkpt><trkpt lat="43.495844875246455" lon="10.601204943933505"><ele>434.0</ele><time>2026-04-03T08:39:37.001Z</time></trkpt><trkpt lat="43.495699008102086" lon="10.601163454963032"><ele>435.0</ele><time>2026-04-03T08:39:38.001Z</time></trkpt><trkpt lat="43.49555634402751" lon="10.601111600027606"><ele>436.0</ele><time>2026-04-03T08:39:39.001Z</time></trkpt><trkpt lat="43.49542476739469" lon="10.601049476569552"><ele>438.0</ele><time>2026-04-03T08:39:40.001Z</time></trkpt><trkpt lat="43.49529108277003" lon="10.600978046549338"><ele>440.0</ele><time>2026-04-03T08:39:41.001Z</time></trkpt><trkpt lat="43.49516070739165" lon="10.60091910857181"><ele>442.0</ele><time>2026-04-03T08:39:42.001Z</time></trkpt><trkpt lat="43.495037742275684" lon="10.600878910003448"><ele>444.0</ele><time>2026-04-03T08:39:43.001Z</time></trkpt><trkpt lat="43.49491788659799" lon="10.600868389264209"><ele>444.0</ele><time>2026-04-03T08:39:44.001Z</time></trkpt><trkpt lat="43.49479137150386" lon="10.60088136845598"><ele>444.0</ele><time>2026-04-03T08:39:45.001Z</time></trkpt><trkpt lat="43.49467810941206" lon="10.600927840197189"><ele>444.0</ele><time>2026-04-03T08:39:46.001Z</time></trkpt><trkpt lat="43.49458628769957" lon="10.601004301501922"><ele>444.0</ele><time>2026-04-03T08:39:47.001Z</time></trkpt><trkpt lat="43.49448832120146" lon="10.601131436125222"><ele>445.79999999999995</ele><time>2026-04-03T08:39:48.001Z</time></trkpt><trkpt lat="43.49441244209197" lon="10.601224762241445"><ele>447.59999999999997</ele><time>2026-04-03T08:39:49.001Z</time></trkpt><trkpt lat="43.49435122781641" lon="10.601255754442924"><ele>449.4</ele><time>2026-04-03T08:39:50.001Z</time></trkpt><trkpt lat="43.49423907609457" lon="10.601173212956695"><ele>451.2</ele><time>2026-04-03T08:39:52.001Z</time></trkpt><trkpt lat="43.49414383748306" lon="10.601072936599541"><ele>453.0</ele><time>2026-04-03T08:39:53.001Z</time></trkpt><trkpt lat="43.494028636727315" lon="10.600953715478758"><ele>453.0</ele><time>2026-04-03T08:39:54.001Z</time></trkpt><trkpt lat="43.49391605863371" lon="10.600854861569958"><ele>453.0</ele><time>2026-04-03T08:39:55.001Z</time></trkpt><trkpt lat="43.49379452317854" lon="10.600766287647302"><ele>453.0</ele><time>2026-04-03T08:39:56.001Z</time></trkpt><trkpt lat="43.49367406874718" lon="10.60067909961519"><ele>453.0</ele><time>2026-04-03T08:39:57.001Z</time></trkpt><trkpt lat="43.49357080135334" lon="10.600595577100611"><ele>455.4</ele><time>2026-04-03T08:39:58.001Z</time></trkpt><trkpt lat="43.49349802163839" lon="10.60053109729639"><ele>457.79999999999995</ele><time>2026-04-03T08:39:59.001Z</time></trkpt><trkpt lat="43.4934118226651" lon="10.600502733565481"><ele>460.2</ele><time>2026-04-03T08:40:00.001Z</time></trkpt><trkpt lat="43.49329533691781" lon="10.6004967619966"><ele>462.6</ele><time>2026-04-03T08:40:01.001Z</time></trkpt><trkpt lat="43.49315864101659" lon="10.600514286237424"><ele>465.0</ele><time>2026-04-03T08:40:02.001Z</time></trkpt><trkpt lat="43.49302739880204" lon="10.600538013550691"><ele>464.6</ele><time>2026-04-03T08:40:03.001Z</time></trkpt><trkpt lat="43.49291523199715" lon="10.60057078974201"><ele>464.2</ele><time>2026-04-03T08:40:04.001Z</time></trkpt><trkpt lat="43.49282615551884" lon="10.600603223278812"><ele>463.79999999999995</ele><time>2026-04-03T08:40:05.001Z</time></trkpt><trkpt lat="43.49275961394512" lon="10.600617450232063"><ele>463.4</ele><time>2026-04-03T08:40:06.001Z</time></trkpt><trkpt lat="43.492643122144585" lon="10.600559348992931"><ele>463.0</ele><time>2026-04-03T08:40:08.001Z</time></trkpt><trkpt lat="43.49258754173981" lon="10.600496438370403"><ele>463.00000000000006</ele><time>2026-04-03T08:40:09.001Z</time></trkpt><trkpt lat="43.49250411843366" lon="10.600437839390686"><ele>463.0</ele><time>2026-04-03T08:40:11.001Z</time></trkpt><trkpt lat="43.49245533087219" lon="10.600516361540015"><ele>463.0</ele><time>2026-04-03T08:40:14.001Z</time></trkpt><trkpt lat="43.49247812606404" lon="10.600600720983453"><ele>463.0</ele><time>2026-04-03T08:40:16.001Z</time></trkpt><trkpt lat="43.49253543150661" lon="10.600687916541752"><ele>463.00000000000006</ele><time>2026-04-03T08:40:18.001Z</time></trkpt><trkpt lat="43.492626175388956" lon="10.60080442088164"><ele>463.0</ele><time>2026-04-03T08:40:20Z</time></trkpt><trkpt lat="43.49268533568835" lon="10.600875192798846"><ele>463.0</ele><time>2026-04-03T08:40:21Z</time></trkpt><trkpt lat="43.492746003207266" lon="10.600960879033785"><ele>462.99999999999994</ele><time>2026-04-03T08:40:22Z</time></trkpt><trkpt lat="43.49281036867986" lon="10.601050791400139"><ele>462.99999999999994</ele><time>2026-04-03T08:40:23Z</time></trkpt><trkpt lat="43.492892883171564" lon="10.601140195179147"><ele>463.0</ele><time>2026-04-03T08:40:24Z</time></trkpt><trkpt lat="43.492982991036975" lon="10.601210571961262"><ele>463.0</ele><time>2026-04-03T08:40:25Z</time></trkpt><trkpt lat="43.49309275790772" lon="10.601275583419568"><ele>463.59999999999997</ele><time>2026-04-03T08:40:26Z</time></trkpt><trkpt lat="43.49318839269083" lon="10.601323773634935"><ele>464.19999999999993</ele><time>2026-04-03T08:40:27Z</time></trkpt><trkpt lat="43.49327249797123" lon="10.60138288324318"><ele>464.8</ele><time>2026-04-03T08:40:28Z</time></trkpt><trkpt lat="43.49335186280972" lon="10.601462246855487"><ele>465.4</ele><time>2026-04-03T08:40:29Z</time></trkpt><trkpt lat="43.493434845982875" lon="10.601558972030494"><ele>466.0</ele><time>2026-04-03T08:40:30Z</time></trkpt><trkpt lat="43.4935048348901" lon="10.601659067998416"><ele>466.00000000000006</ele><time>2026-04-03T08:40:31Z</time></trkpt><trkpt lat="43.49357463360216" lon="10.601744671648946"><ele>466.0</ele><time>2026-04-03T08:40:32Z</time></trkpt><trkpt lat="43.49364270753158" lon="10.601842547439055"><ele>466.0</ele><time>2026-04-03T08:40:33Z</time></trkpt><trkpt lat="43.493692240181225" lon="10.601945202109205"><ele>466.0</ele><time>2026-04-03T08:40:34Z</time></trkpt><trkpt lat="43.49372480993824" lon="10.602044357816412"><ele>466.00000000000006</ele><time>2026-04-03T08:40:35Z</time></trkpt><trkpt lat="43.49374771688243" lon="10.602131823053455"><ele>466.0</ele><time>2026-04-03T08:40:36Z</time></trkpt><trkpt lat="43.49377205384715" lon="10.602229259366213"><ele>466.6</ele><time>2026-04-03T08:40:37Z</time></trkpt><trkpt lat="43.493795926477624" lon="10.602341261355502"><ele>467.20000000000005</ele><time>2026-04-03T08:40:38Z</time></trkpt><trkpt lat="43.49381067447468" lon="10.602468879795206"><ele>467.79999999999995</ele><time>2026-04-03T08:40:39Z</time></trkpt><trkpt lat="43.49381289432605" lon="10.602611901671404"><ele>468.4</ele><time>2026-04-03T08:40:40Z</time></trkpt><trkpt lat="43.49382303178968" lon="10.60276786946417"><ele>469.0</ele><time>2026-04-03T08:40:41Z</time></trkpt><trkpt lat="43.4938480569799" lon="10.602919918954914"><ele>469.0</ele><time>2026-04-03T08:40:42Z</time></trkpt><trkpt lat="43.493891580462055" lon="10.603047854514752"><ele>469.0</ele><time>2026-04-03T08:40:43Z</time></trkpt><trkpt lat="43.493959359615005" lon="10.603170042763413"><ele>469.0</ele><time>2026-04-03T08:40:44Z</time></trkpt><trkpt lat="43.494042335982" lon="10.60330547585529"><ele>469.0</ele><time>2026-04-03T08:40:45Z</time></trkpt><trkpt lat="43.494112230319615" lon="10.60344987404611"><ele>469.0</ele><time>2026-04-03T08:40:46Z</time></trkpt><trkpt lat="43.49418801695462" lon="10.603581057835745"><ele>469.0</ele><time>2026-04-03T08:40:47Z</time></trkpt><trkpt lat="43.49427101579967" lon="10.603692621324264"><ele>469.0</ele><time>2026-04-03T08:40:48Z</time></trkpt><trkpt lat="43.49435268474819" lon="10.603795095155828"><ele>469.0</ele><time>2026-04-03T08:40:49Z</time></trkpt><trkpt lat="43.49441504403067" lon="10.603899899879039"><ele>469.0</ele><time>2026-04-03T08:40:50Z</time></trkpt><trkpt lat="43.49446302151365" lon="10.603973143518694"><ele>469.0</ele><time>2026-04-03T08:40:51Z</time></trkpt><trkpt lat="43.494559372163245" lon="10.604054980771496"><ele>469.0</ele><time>2026-04-03T08:40:52Z</time></trkpt><trkpt lat="43.494651185501205" lon="10.60412836159212"><ele>469.0</ele><time>2026-04-03T08:40:53Z</time></trkpt><trkpt lat="43.494710896427165" lon="10.604159302090967"><ele>469.0</ele><time>2026-04-03T08:40:54Z</time></trkpt><trkpt lat="43.49482978385019" lon="10.604179112763093"><ele>469.0</ele><time>2026-04-03T08:40:56Z</time></trkpt><trkpt lat="43.494919076314886" lon="10.60422481238572"><ele>469.00000000000006</ele><time>2026-04-03T08:40:57Z</time></trkpt><trkpt lat="43.49499419680726" lon="10.604264439481584"><ele>469.0</ele><time>2026-04-03T08:40:58Z</time></trkpt><trkpt lat="43.49507376687685" lon="10.604332909886464"><ele>469.0</ele><time>2026-04-03T08:41:00Z</time></trkpt><trkpt lat="43.495148198242696" lon="10.604422736225967"><ele>469.0</ele><time>2026-04-03T08:41:02Z</time></trkpt><trkpt lat="43.49520002169995" lon="10.604511596610523"><ele>469.00000000000006</ele><time>2026-04-03T08:41:04Z</time></trkpt><trkpt lat="43.49524926396664" lon="10.604599549524119"><ele>469.0</ele><time>2026-04-03T08:41:05Z</time></trkpt><trkpt lat="43.4953110505332" lon="10.604672060814048"><ele>468.2</ele><time>2026-04-03T08:41:06Z</time></trkpt><trkpt lat="43.49539001244924" lon="10.604763972935142"><ele>467.4</ele><time>2026-04-03T08:41:08Z</time></trkpt><trkpt lat="43.4954321978262" lon="10.604881453083594"><ele>466.6</ele><time>2026-04-03T08:41:10Z</time></trkpt><trkpt lat="43.495432286569866" lon="10.605080034278195"><ele>465.8</ele><time>2026-04-03T08:41:12.001Z</time></trkpt><trkpt lat="43.495438206226" lon="10.605213302941586"><ele>465.0</ele><time>2026-04-03T08:41:13.001Z</time></trkpt><trkpt lat="43.49545225503966" lon="10.605352135469001"><ele>465.0</ele><time>2026-04-03T08:41:14.001Z</time></trkpt><trkpt lat="43.4954882805051" lon="10.605510851463885"><ele>465.0</ele><time>2026-04-03T08:41:15.001Z</time></trkpt><trkpt lat="43.495538827990295" lon="10.605658945887159"><ele>465.0</ele><time>2026-04-03T08:41:16.001Z</time></trkpt><trkpt lat="43.495584423102216" lon="10.605780331406985"><ele>465.0</ele><time>2026-04-03T08:41:17.001Z</time></trkpt><trkpt lat="43.4956419398741" lon="10.60589960170081"><ele>465.0</ele><time>2026-04-03T08:41:18.001Z</time></trkpt><trkpt lat="43.49570506536009" lon="10.606008195160358"><ele>465.0</ele><time>2026-04-03T08:41:19.001Z</time></trkpt><trkpt lat="43.49574031474462" lon="10.606103231884497"><ele>465.0</ele><time>2026-04-03T08:41:20.001Z</time></trkpt><trkpt lat="43.495759060037436" lon="10.606207684799163"><ele>465.0</ele><time>2026-04-03T08:41:22.001Z</time></trkpt><trkpt lat="43.495767423382844" lon="10.606340143222448"><ele>465.0</ele><time>2026-04-03T08:42:54Z</time></trkpt><trkpt lat="43.495773355269264" lon="10.606521215283998"><ele>465.0</ele><time>2026-04-03T08:43:02.001Z</time></trkpt><trkpt lat="43.49575429546195" lon="10.606630725904544"><ele>465.5</ele><time>2026-04-03T08:43:03.001Z</time></trkpt><trkpt lat="43.49572659894029" lon="10.606719552839568"><ele>466.0</ele><time>2026-04-03T08:43:04.001Z</time></trkpt><trkpt lat="43.49576084919093" lon="10.606815262517626"><ele>466.5</ele><time>2026-04-03T08:43:06.001Z</time></trkpt><trkpt lat="43.495865084334895" lon="10.606863354773655"><ele>467.0</ele><time>2026-04-03T08:43:13.001Z</time></trkpt><trkpt lat="43.49594967315258" lon="10.606841802029571"><ele>467.5</ele><time>2026-04-03T08:43:15.001Z</time></trkpt><trkpt lat="43.49601487288535" lon="10.606860913802418"><ele>468.0</ele><time>2026-04-03T08:43:17.001Z</time></trkpt><trkpt lat="43.49606502527862" lon="10.606925425546011"><ele>467.0</ele><time>2026-04-03T08:43:19.001Z</time></trkpt><trkpt lat="43.49607713525395" lon="10.607012058905923"><ele>466.00000000000006</ele><time>2026-04-03T08:43:21.001Z</time></trkpt><trkpt lat="43.49604105805301" lon="10.607088734030008"><ele>465.0</ele><time>2026-04-03T08:43:23.001Z</time></trkpt><trkpt lat="43.49597946466139" lon="10.60714408318902"><ele>464.0</ele><time>2026-04-03T08:43:25.001Z</time></trkpt><trkpt lat="43.495965879196255" lon="10.607249461154886"><ele>463.00000000000006</ele><time>2026-04-03T08:43:27.001Z</time></trkpt><trkpt lat="43.49593955437002" lon="10.607350424325201"><ele>462.0</ele><time>2026-04-03T08:43:29.001Z</time></trkpt><trkpt lat="43.49590268128027" lon="10.607447712699704"><ele>461.0</ele><time>2026-04-03T08:43:31.001Z</time></trkpt><trkpt lat="43.495878268610674" lon="10.607543938113004"><ele>460.99999999999994</ele><time>2026-04-03T08:43:33.001Z</time></trkpt><trkpt lat="43.49588626519752" lon="10.607669359073117"><ele>461.0</ele><time>2026-04-03T08:43:35.001Z</time></trkpt><trkpt lat="43.49589611256023" lon="10.607818849616233"><ele>461.0</ele><time>2026-04-03T08:43:37.001Z</time></trkpt><trkpt lat="43.49588108663043" lon="10.607949328981862"><ele>461.0</ele><time>2026-04-03T08:43:39.001Z</time></trkpt><trkpt lat="43.49584725565329" lon="10.608027945720506"><ele>460.99999999999994</ele><time>2026-04-03T08:43:41.001Z</time></trkpt><trkpt lat="43.49581120268778" lon="10.608109683208268"><ele>461.0</ele><time>2026-04-03T08:43:43.001Z</time></trkpt><trkpt lat="43.49576366893848" lon="10.608175236051764"><ele>460.20000000000005</ele><time>2026-04-03T08:43:45.001Z</time></trkpt><trkpt lat="43.49571244622028" lon="10.608269384039108"><ele>459.40000000000003</ele><time>2026-04-03T08:43:47.001Z</time></trkpt><trkpt lat="43.49564616221382" lon="10.608386667033146"><ele>458.6</ele><time>2026-04-03T08:43:49.001Z</time></trkpt><trkpt lat="43.49557951964586" lon="10.608485490445851"><ele>457.8</ele><time>2026-04-03T08:43:51.001Z</time></trkpt><trkpt lat="43.49547724895556" lon="10.608578505702495"><ele>457.0</ele><time>2026-04-03T08:43:53.001Z</time></trkpt><trkpt lat="43.495393706849356" lon="10.608655706762127"><ele>453.0</ele><time>2026-04-03T08:43:55.001Z</time></trkpt><trkpt lat="43.495281897687896" lon="10.608689114328483"><ele>449.00000000000006</ele><time>2026-04-03T08:43:57.001Z</time></trkpt><trkpt lat="43.49520088108022" lon="10.608766971600422"><ele>445.00000000000006</ele><time>2026-04-03T08:43:59.001Z</time></trkpt><trkpt lat="43.49514431875167" lon="10.608891314798933"><ele>441.0</ele><time>2026-04-03T08:44:01.001Z</time></trkpt><trkpt lat="43.495139968376584" lon="10.609023620741885"><ele>437.0</ele><time>2026-04-03T08:44:03.001Z</time></trkpt><trkpt lat="43.49515391133029" lon="10.609133499893868"><ele>437.0</ele><time>2026-04-03T08:44:05.001Z</time></trkpt><trkpt lat="43.49517974583777" lon="10.609224150892457"><ele>437.00000000000006</ele><time>2026-04-03T08:44:07.001Z</time></trkpt><trkpt lat="43.49521662520949" lon="10.60934516312079"><ele>437.00000000000006</ele><time>2026-04-03T08:44:10.001Z</time></trkpt><trkpt lat="43.49526743320313" lon="10.60947389074822"><ele>437.0</ele><time>2026-04-03T08:44:12.001Z</time></trkpt><trkpt lat="43.49529042657501" lon="10.60959870107543"><ele>437.0</ele><time>2026-04-03T08:44:14.001Z</time></trkpt><trkpt lat="43.495332139692806" lon="10.609711033295909"><ele>434.6</ele><time>2026-04-03T08:44:16.001Z</time></trkpt><trkpt lat="43.49538468340791" lon="10.609856099819492"><ele>432.20000000000005</ele><time>2026-04-03T08:44:18.001Z</time></trkpt><trkpt lat="43.49542351294381" lon="10.609934148004577"><ele>429.8</ele><time>2026-04-03T08:44:19.001Z</time></trkpt><trkpt lat="43.495458113247714" lon="10.610028822904177"><ele>427.4</ele><time>2026-04-03T08:44:20.001Z</time></trkpt><trkpt lat="43.49551098308853" lon="10.610160920631373"><ele>425.0</ele><time>2026-04-03T08:44:22.001Z</time></trkpt><trkpt lat="43.495540775897204" lon="10.61027410776142"><ele>427.2</ele><time>2026-04-03T08:44:24.001Z</time></trkpt><trkpt lat="43.49556243383131" lon="10.610421804102549"><ele>429.4</ele><time>2026-04-03T08:44:26.001Z</time></trkpt><trkpt lat="43.495575127782494" lon="10.610565698524569"><ele>431.6</ele><time>2026-04-03T08:44:28.001Z</time></trkpt><trkpt lat="43.49558006309481" lon="10.610660611711841"><ele>433.8</ele><time>2026-04-03T08:44:30.001Z</time></trkpt><trkpt lat="43.49552285375247" lon="10.610796693999806"><ele>436.0</ele><time>2026-04-03T08:45:04Z</time></trkpt><trkpt lat="43.49546329211742" lon="10.61086090193527"><ele>436.00000000000006</ele><time>2026-04-03T08:45:05Z</time></trkpt><trkpt lat="43.495414268794164" lon="10.610917170447543"><ele>436.0</ele><time>2026-04-03T08:45:06Z</time></trkpt><trkpt lat="43.49545965567462" lon="10.611026281069572"><ele>436.0</ele><time>2026-04-03T08:45:09.001Z</time></trkpt><trkpt lat="43.49554253743225" lon="10.611114636567189"><ele>436.0</ele><time>2026-04-03T08:45:11.001Z</time></trkpt><trkpt lat="43.49558470788425" lon="10.611179651934535"><ele>436.00000000000006</ele><time>2026-04-03T08:45:12.001Z</time></trkpt><trkpt lat="43.49564026965585" lon="10.611258525806907"><ele>436.0</ele><time>2026-04-03T08:45:13.001Z</time></trkpt><trkpt lat="43.49570454861489" lon="10.61134505846563"><ele>434.50000000000006</ele><time>2026-04-03T08:45:14.001Z</time></trkpt><trkpt lat="43.49576626801974" lon="10.61142793094409"><ele>433.0</ele><time>2026-04-03T08:45:15.001Z</time></trkpt><trkpt lat="43.49582802166863" lon="10.61150938055258"><ele>431.5</ele><time>2026-04-03T08:45:16.001Z</time></trkpt><trkpt lat="43.495879569755346" lon="10.611571103365131"><ele>430.0</ele><time>2026-04-03T08:45:17.001Z</time></trkpt><trkpt lat="43.4959324723315" lon="10.611630634288405"><ele>428.50000000000006</ele><time>2026-04-03T08:45:19.001Z</time></trkpt><trkpt lat="43.495997458589436" lon="10.61174811148509"><ele>427.0</ele><time>2026-04-03T08:45:22.001Z</time></trkpt><trkpt lat="43.49607981137935" lon="10.611891709596527"><ele>427.0</ele><time>2026-04-03T08:45:24.001Z</time></trkpt><trkpt lat="43.49614147848763" lon="10.611978914522657"><ele>427.00000000000006</ele><time>2026-04-03T08:45:25.001Z</time></trkpt><trkpt lat="43.496204126919885" lon="10.612072368473608"><ele>427.00000000000006</ele><time>2026-04-03T08:45:26.001Z</time></trkpt><trkpt lat="43.496270048019696" lon="10.612153439787331"><ele>427.0</ele><time>2026-04-03T08:45:27.001Z</time></trkpt><trkpt lat="43.49637568071729" lon="10.612226867439718"><ele>427.0</ele><time>2026-04-03T08:45:29.001Z</time></trkpt><trkpt lat="43.496460757503066" lon="10.612296695090373"><ele>426.83333333333337</ele><time>2026-04-03T08:45:30.001Z</time></trkpt><trkpt lat="43.496533913599734" lon="10.612358951933487"><ele>426.6666666666667</ele><time>2026-04-03T08:45:31.001Z</time></trkpt><trkpt lat="43.4966037201113" lon="10.612424932379334"><ele>426.5</ele><time>2026-04-03T08:45:32.001Z</time></trkpt><trkpt lat="43.49665748877339" lon="10.612483748481752"><ele>426.33333333333337</ele><time>2026-04-03T08:45:33.001Z</time></trkpt><trkpt lat="43.49672378361176" lon="10.612552339732375"><ele>426.1666666666667</ele><time>2026-04-03T08:45:34.001Z</time></trkpt><trkpt lat="43.49677020291491" lon="10.612612195755062"><ele>426.0</ele><time>2026-04-03T08:45:35.001Z</time></trkpt><trkpt lat="43.49685415031761" lon="10.612759859562823"><ele>425.5</ele><time>2026-04-03T08:45:37.001Z</time></trkpt><trkpt lat="43.49692461428765" lon="10.612858232265408"><ele>425.0</ele><time>2026-04-03T08:45:38.001Z</time></trkpt><trkpt lat="43.49699447199551" lon="10.612940255554095"><ele>424.5</ele><time>2026-04-03T08:45:39.001Z</time></trkpt><trkpt lat="43.4970562942009" lon="10.613012956295593"><ele>424.0</ele><time>2026-04-03T08:45:40.001Z</time></trkpt><trkpt lat="43.49711631642833" lon="10.613074400429111"><ele>423.5</ele><time>2026-04-03T08:45:41.001Z</time></trkpt><trkpt lat="43.4971733937733" lon="10.61312997385415"><ele>423.0</ele><time>2026-04-03T08:45:42.001Z</time></trkpt><trkpt lat="43.497235125739564" lon="10.613180557131614"><ele>423.0</ele><time>2026-04-03T08:45:43.001Z</time></trkpt><trkpt lat="43.497319994243185" lon="10.613230851729936"><ele>423.0</ele><time>2026-04-03T08:45:44.001Z</time></trkpt><trkpt lat="43.49739128458045" lon="10.613278537030608"><ele>423.0</ele><time>2026-04-03T08:45:45.001Z</time></trkpt><trkpt lat="43.497456205862086" lon="10.613271180404515"><ele>423.0</ele><time>2026-04-03T08:46:07.001Z</time></trkpt><trkpt lat="43.49752676770844" lon="10.61329267106806"><ele>423.0</ele><time>2026-04-03T08:46:09.001Z</time></trkpt><trkpt lat="43.497595508673975" lon="10.613327785846904"><ele>423.0</ele><time>2026-04-03T08:46:12.001Z</time></trkpt><trkpt lat="43.49766010929148" lon="10.613349455490106"><ele>423.0</ele><time>2026-04-03T08:46:14.001Z</time></trkpt><trkpt lat="43.49775036328196" lon="10.613352583568494"><ele>423.0</ele><time>2026-04-03T08:46:16.001Z</time></trkpt><trkpt lat="43.49782077594839" lon="10.61334412064403"><ele>423.0</ele><time>2026-04-03T08:46:18.001Z</time></trkpt><trkpt lat="43.4978892961892" lon="10.613305925645943"><ele>423.0</ele><time>2026-04-03T08:46:22.001Z</time></trkpt><trkpt lat="43.4979755968851" lon="10.613386740245884"><ele>423.0</ele><time>2026-04-03T08:47:02Z</time></trkpt><trkpt lat="43.498029026058546" lon="10.613436419864128"><ele>423.0</ele><time>2026-04-03T08:47:03Z</time></trkpt><trkpt lat="43.498074381423955" lon="10.61350481585294"><ele>423.0</ele><time>2026-04-03T08:47:04Z</time></trkpt><trkpt lat="43.49810602905519" lon="10.613593372646243"><ele>422.4</ele><time>2026-04-03T08:47:05Z</time></trkpt><trkpt lat="43.49816576254774" lon="10.613739715776317"><ele>421.79999999999995</ele><time>2026-04-03T08:47:07Z</time></trkpt><trkpt lat="43.498191948785205" lon="10.613894374752272"><ele>421.2</ele><time>2026-04-03T08:47:09Z</time></trkpt><trkpt lat="43.49821849928922" lon="10.614006828148453"><ele>420.6</ele><time>2026-04-03T08:47:10Z</time></trkpt><trkpt lat="43.49825987122036" lon="10.614141296351391"><ele>420.0</ele><time>2026-04-03T08:47:11Z</time></trkpt><trkpt lat="43.49832067108979" lon="10.614296783827259"><ele>420.0</ele><time>2026-04-03T08:47:12Z</time></trkpt><trkpt lat="43.49839578502905" lon="10.614457476251916"><ele>420.0</ele><time>2026-04-03T08:47:13Z</time></trkpt><trkpt lat="43.49846686694437" lon="10.61462680682411"><ele>420.0</ele><time>2026-04-03T08:47:14Z</time></trkpt><trkpt lat="43.49850573530698" lon="10.614768272934523"><ele>420.0</ele><time>2026-04-03T08:47:15Z</time></trkpt><trkpt lat="43.49854713906455" lon="10.61490548290912"><ele>420.0</ele><time>2026-04-03T08:47:16Z</time></trkpt><trkpt lat="43.49858213779849" lon="10.615005183829005"><ele>420.0</ele><time>2026-04-03T08:47:17Z</time></trkpt><trkpt lat="43.49862868440064" lon="10.615072611025727"><ele>420.0</ele><time>2026-04-03T08:47:18Z</time></trkpt><trkpt lat="43.498698854372634" lon="10.615122537044893"><ele>420.0</ele><time>2026-04-03T08:47:19Z</time></trkpt><trkpt lat="43.49879008811912" lon="10.61513451184219"><ele>420.0</ele><time>2026-04-03T08:47:20Z</time></trkpt><trkpt lat="43.498893510828175" lon="10.615127922263156"><ele>420.0</ele><time>2026-04-03T08:47:21Z</time></trkpt><trkpt lat="43.4989692713111" lon="10.615127785192104"><ele>418.5</ele><time>2026-04-03T08:47:22Z</time></trkpt><trkpt lat="43.499056062153265" lon="10.615200859318351"><ele>417.0</ele><time>2026-04-03T08:47:24Z</time></trkpt><trkpt lat="43.499119823199244" lon="10.615296660669742"><ele>415.5</ele><time>2026-04-03T08:47:26Z</time></trkpt><trkpt lat="43.49917458375475" lon="10.615394431576293"><ele>414.0</ele><time>2026-04-03T08:47:28Z</time></trkpt><trkpt lat="43.49917899675438" lon="10.615503017076605"><ele>412.5</ele><time>2026-04-03T08:47:29Z</time></trkpt><trkpt lat="43.49915461458263" lon="10.615589227449885"><ele>411.0</ele><time>2026-04-03T08:47:30Z</time></trkpt><trkpt lat="43.49911675027145" lon="10.615670526997572"><ele>410.85714285714283</ele><time>2026-04-03T08:47:31Z</time></trkpt><trkpt lat="43.49906788157955" lon="10.615753227871966"><ele>410.71428571428567</ele><time>2026-04-03T08:47:32Z</time></trkpt><trkpt lat="43.49902676929607" lon="10.615845979234171"><ele>410.57142857142856</ele><time>2026-04-03T08:47:33.001Z</time></trkpt><trkpt lat="43.49899147085287" lon="10.615919182019976"><ele>410.42857142857144</ele><time>2026-04-03T08:47:34.001Z</time></trkpt><trkpt lat="43.49896689909625" lon="10.616011800474913"><ele>410.2857142857143</ele><time>2026-04-03T08:47:36.001Z</time></trkpt><trkpt lat="43.498914155725345" lon="10.616069147267945"><ele>410.14285714285717</ele><time>2026-04-03T08:47:40.001Z</time></trkpt><trkpt lat="43.4988456273231" lon="10.616086356108477"><ele>410.0</ele><time>2026-04-03T08:47:52.001Z</time></trkpt><trkpt lat="43.4987223016459" lon="10.61605841254461"><ele>410.0</ele><time>2026-04-03T08:47:54.001Z</time></trkpt><trkpt lat="43.49860314903712" lon="10.616024455841217"><ele>410.0</ele><time>2026-04-03T08:47:56.001Z</time></trkpt><trkpt lat="43.49854327349586" lon="10.615988484875949"><ele>410.0</ele><time>2026-04-03T08:47:57.001Z</time></trkpt><trkpt lat="43.498458016542855" lon="10.615955076817917"><ele>410.0</ele><time>2026-04-03T08:47:58.001Z</time></trkpt><trkpt lat="43.498357648251556" lon="10.615914278177842"><ele>410.0</ele><time>2026-04-03T08:47:59.001Z</time></trkpt><trkpt lat="43.498251374181955" lon="10.615865825950639"><ele>409.99999999999994</ele><time>2026-04-03T08:48:00.001Z</time></trkpt><trkpt lat="43.49816010371952" lon="10.615827479232525"><ele>410.0</ele><time>2026-04-03T08:48:01.001Z</time></trkpt><trkpt lat="43.4980866754314" lon="10.615779732892554"><ele>410.0</ele><time>2026-04-03T08:48:02.001Z</time></trkpt><trkpt lat="43.49800022460295" lon="10.615722912098535"><ele>410.0</ele><time>2026-04-03T08:48:03.001Z</time></trkpt><trkpt lat="43.497934202596085" lon="10.615678749787346"><ele>409.99999999999994</ele><time>2026-04-03T08:48:04.001Z</time></trkpt><trkpt lat="43.49786520303067" lon="10.615630384048709"><ele>410.0</ele><time>2026-04-03T08:48:05.001Z</time></trkpt><trkpt lat="43.497777245898746" lon="10.615586425429816"><ele>407.2</ele><time>2026-04-03T08:48:06.001Z</time></trkpt><trkpt lat="43.49766714773138" lon="10.61558064393054"><ele>404.4</ele><time>2026-04-03T08:48:07.001Z</time></trkpt><trkpt lat="43.49756872342541" lon="10.615563325482416"><ele>401.6</ele><time>2026-04-03T08:48:08.001Z</time></trkpt><trkpt lat="43.49747503506604" lon="10.6155170134704"><ele>398.8</ele><time>2026-04-03T08:48:09.001Z</time></trkpt><trkpt lat="43.49738308575203" lon="10.615489393204996"><ele>396.0</ele><time>2026-04-03T08:48:10.001Z</time></trkpt><trkpt lat="43.49730549710498" lon="10.615481491932709"><ele>396.0</ele><time>2026-04-03T08:48:11.001Z</time></trkpt><trkpt lat="43.49720918323282" lon="10.615481166682082"><ele>396.0</ele><time>2026-04-03T08:48:13.001Z</time></trkpt><trkpt lat="43.49712492525875" lon="10.615454181268554"><ele>396.0</ele><time>2026-04-03T08:48:15.001Z</time></trkpt><trkpt lat="43.49706295904708" lon="10.615411268492432"><ele>396.0</ele><time>2026-04-03T08:48:17.001Z</time></trkpt><trkpt lat="43.49696396481145" lon="10.615383015534773"><ele>396.0</ele><time>2026-04-03T08:48:19.001Z</time></trkpt><trkpt lat="43.496873248633676" lon="10.615346374674713"><ele>396.0</ele><time>2026-04-03T08:48:21.001Z</time></trkpt><trkpt lat="43.49681536875287" lon="10.615271703909183"><ele>395.8333333333333</ele><time>2026-04-03T08:48:23.001Z</time></trkpt><trkpt lat="43.496752879791686" lon="10.61522868173378"><ele>395.66666666666663</ele><time>2026-04-03T08:48:25.001Z</time></trkpt><trkpt lat="43.496700872432484" lon="10.61512872279123"><ele>395.5</ele><time>2026-04-03T08:48:28.001Z</time></trkpt><trkpt lat="43.496666484565914" lon="10.61500534842658"><ele>395.3333333333333</ele><time>2026-04-03T08:48:31.001Z</time></trkpt><trkpt lat="43.49662262991538" lon="10.614930217713846"><ele>395.16666666666663</ele><time>2026-04-03T08:49:34Z</time></trkpt><trkpt lat="43.496559501605084" lon="10.61484232441858"><ele>395.0</ele><time>2026-04-03T08:49:37Z</time></trkpt><trkpt lat="43.49650968304422" lon="10.614760713178626"><ele>395.0</ele><time>2026-04-03T08:49:39Z</time></trkpt><trkpt lat="43.49645360169728" lon="10.614668647525075"><ele>395.0</ele><time>2026-04-03T08:49:41Z</time></trkpt><trkpt lat="43.496404973159756" lon="10.614591604514606"><ele>395.0</ele><time>2026-04-03T08:49:43Z</time></trkpt><trkpt lat="43.49633370377906" lon="10.61454776390478"><ele>395.0</ele><time>2026-04-03T08:49:45Z</time></trkpt><trkpt lat="43.49624903134279" lon="10.614431533334365"><ele>395.0</ele><time>2026-04-03T08:49:47Z</time></trkpt><trkpt lat="43.496206525134056" lon="10.61428898556429"><ele>394.66666666666663</ele><time>2026-04-03T08:49:49Z</time></trkpt><trkpt lat="43.496187064178244" lon="10.614203187495836"><ele>394.3333333333333</ele><time>2026-04-03T08:49:50Z</time></trkpt><trkpt lat="43.496178136390476" lon="10.614097218567636"><ele>394.0</ele><time>2026-04-03T08:49:51Z</time></trkpt><trkpt lat="43.49618352790491" lon="10.614004364071203"><ele>393.66666666666663</ele><time>2026-04-03T08:49:52Z</time></trkpt><trkpt lat="43.49615906426223" lon="10.613861431261183"><ele>393.3333333333333</ele><time>2026-04-03T08:49:54Z</time></trkpt><trkpt lat="43.49606774225532" lon="10.613821473630649"><ele>393.0</ele><time>2026-04-03T08:49:56Z</time></trkpt><trkpt lat="43.49598524244411" lon="10.613851028658015"><ele>393.0</ele><time>2026-04-03T08:49:58Z</time></trkpt><trkpt lat="43.49587402485581" lon="10.613903767010804"><ele>393.0</ele><time>2026-04-03T08:50:00Z</time></trkpt><trkpt lat="43.49576972902277" lon="10.613873749559318"><ele>393.0</ele><time>2026-04-03T08:50:02Z</time></trkpt><trkpt lat="43.49570752954576" lon="10.613833436238371"><ele>393.0</ele><time>2026-04-03T08:50:03Z</time></trkpt><trkpt lat="43.49562348622923" lon="10.61375992201246"><ele>393.0</ele><time>2026-04-03T08:50:04Z</time></trkpt><trkpt lat="43.49553318326957" lon="10.613698978497341"><ele>393.0</ele><time>2026-04-03T08:50:05Z</time></trkpt><trkpt lat="43.495448587707116" lon="10.61362464398941"><ele>393.0</ele><time>2026-04-03T08:50:06Z</time></trkpt><trkpt lat="43.49538078036735" lon="10.613558729758726"><ele>393.0</ele><time>2026-04-03T08:50:07Z</time></trkpt><trkpt lat="43.49531126089387" lon="10.613473614403171"><ele>393.0</ele><time>2026-04-03T08:50:09Z</time></trkpt><trkpt lat="43.49525265962636" lon="10.613349738977451"><ele>393.0</ele><time>2026-04-03T08:50:11Z</time></trkpt><trkpt lat="43.495223037120404" lon="10.613263691808676"><ele>393.0</ele><time>2026-04-03T08:50:12Z</time></trkpt><trkpt lat="43.495141023553415" lon="10.613214607774504"><ele>393.0</ele><time>2026-04-03T08:50:14Z</time></trkpt><trkpt lat="43.495022972479866" lon="10.613276063747033"><ele>393.0</ele><time>2026-04-03T08:50:16Z</time></trkpt><trkpt lat="43.494962194076344" lon="10.613305514323406"><ele>393.0</ele><time>2026-04-03T08:50:17Z</time></trkpt><trkpt lat="43.494877478602625" lon="10.61328590619746"><ele>393.0</ele><time>2026-04-03T08:50:19.001Z</time></trkpt><trkpt lat="43.49481131082855" lon="10.613255328143296"><ele>393.0</ele><time>2026-04-03T08:50:21.001Z</time></trkpt><trkpt lat="43.49474044448169" lon="10.613192437701178"><ele>393.0</ele><time>2026-04-03T08:50:23.001Z</time></trkpt><trkpt lat="43.49468649150894" lon="10.613146950991826"><ele>393.0</ele><time>2026-04-03T08:50:24.001Z</time></trkpt><trkpt lat="43.49461322525297" lon="10.613075256265411"><ele>393.0</ele><time>2026-04-03T08:50:25.001Z</time></trkpt><trkpt lat="43.49455066878033" lon="10.613009471483386"><ele>393.0</ele><time>2026-04-03T08:50:26.001Z</time></trkpt><trkpt lat="43.49449992018872" lon="10.612945267018771"><ele>393.0</ele><time>2026-04-03T08:50:27.001Z</time></trkpt><trkpt lat="43.49443418075837" lon="10.61286990384648"><ele>393.0</ele><time>2026-04-03T08:50:28.001Z</time></trkpt><trkpt lat="43.49436658782257" lon="10.612791446972631"><ele>393.2</ele><time>2026-04-03T08:50:29.001Z</time></trkpt><trkpt lat="43.49427561448857" lon="10.612689267053096"><ele>393.4</ele><time>2026-04-03T08:50:30.001Z</time></trkpt><trkpt lat="43.494188916145866" lon="10.612596858953626"><ele>393.59999999999997</ele><time>2026-04-03T08:50:31.001Z</time></trkpt><trkpt lat="43.49412557866296" lon="10.612545598069916"><ele>393.79999999999995</ele><time>2026-04-03T08:50:32.001Z</time></trkpt><trkpt lat="43.494049115021426" lon="10.612462519959607"><ele>394.0</ele><time>2026-04-03T08:50:34.001Z</time></trkpt><trkpt lat="43.49397058976477" lon="10.612392845916366"><ele>394.00000000000006</ele><time>2026-04-03T08:50:36.001Z</time></trkpt><trkpt lat="43.49391254469658" lon="10.61232747123701"><ele>394.0</ele><time>2026-04-03T08:50:38.001Z</time></trkpt><trkpt lat="43.49385034468226" lon="10.61226076764096"><ele>394.0</ele><time>2026-04-03T08:50:40.001Z</time></trkpt><trkpt lat="43.493770515550324" lon="10.612185017592623"><ele>394.0</ele><time>2026-04-03T08:50:42.001Z</time></trkpt><trkpt lat="43.49371798846116" lon="10.612079592276999"><ele>394.00000000000006</ele><time>2026-04-03T08:50:44.001Z</time></trkpt><trkpt lat="43.49370219552085" lon="10.611961601409394"><ele>394.0</ele><time>2026-04-03T08:50:46.001Z</time></trkpt><trkpt lat="43.4936162691198" lon="10.611815067586013"><ele>393.8571428571429</ele><time>2026-04-03T08:50:48.001Z</time></trkpt><trkpt lat="43.49355638223324" lon="10.611755851737765"><ele>393.7142857142857</ele><time>2026-04-03T08:50:49Z</time></trkpt><trkpt lat="43.4934891697123" lon="10.611702768436587"><ele>393.57142857142856</ele><time>2026-04-03T08:50:50Z</time></trkpt><trkpt lat="43.49344061003747" lon="10.611635893646255"><ele>393.42857142857144</ele><time>2026-04-03T08:50:52Z</time></trkpt><trkpt lat="43.49345710466558" lon="10.611549357946853"><ele>393.2857142857143</ele><time>2026-04-03T08:50:55Z</time></trkpt><trkpt lat="43.493494907195554" lon="10.611452962329533"><ele>393.14285714285717</ele><time>2026-04-03T09:03:17.001Z</time></trkpt><trkpt lat="43.493528424837976" lon="10.611354067452067"><ele>393.0</ele><time>2026-04-03T09:03:18.001Z</time></trkpt><trkpt lat="43.493545051826466" lon="10.611225804738265"><ele>393.0</ele><time>2026-04-03T09:03:19.001Z</time></trkpt><trkpt lat="43.49360495925597" lon="10.61109293036082"><ele>393.0</ele><time>2026-04-03T09:03:21.001Z</time></trkpt><trkpt lat="43.49363652536492" lon="10.611017635406261"><ele>393.0</ele><time>2026-04-03T09:03:22.001Z</time></trkpt><trkpt lat="43.49363648471798" lon="10.610877836796016"><ele>393.0</ele><time>2026-04-03T09:03:25Z</time></trkpt><trkpt lat="43.49366210865537" lon="10.610739683128497"><ele>393.0</ele><time>2026-04-03T09:03:27Z</time></trkpt><trkpt lat="43.493680282298875" lon="10.610557576248134"><ele>393.0</ele><time>2026-04-03T09:03:29Z</time></trkpt><trkpt lat="43.493688391376324" lon="10.610439409156424"><ele>393.0</ele><time>2026-04-03T09:03:30Z</time></trkpt><trkpt lat="43.493713407823144" lon="10.610355335579412"><ele>393.0</ele><time>2026-04-03T09:03:31Z</time></trkpt><trkpt lat="43.49374685849159" lon="10.610260093952466"><ele>393.0</ele><time>2026-04-03T09:03:33Z</time></trkpt><trkpt lat="43.49379467078896" lon="10.610151332368666"><ele>393.0</ele><time>2026-04-03T09:03:36Z</time></trkpt><trkpt lat="43.49385002658206" lon="10.610071940967824"><ele>393.0</ele><time>2026-04-03T09:03:38Z</time></trkpt><trkpt lat="43.49386211994014" lon="10.609968326397928"><ele>393.3333333333333</ele><time>2026-04-03T09:03:41Z</time></trkpt><trkpt lat="43.49381718740703" lon="10.609862073338496"><ele>393.66666666666663</ele><time>2026-04-03T09:03:44Z</time></trkpt><trkpt lat="43.49377203807212" lon="10.6097420634656"><ele>394.0</ele><time>2026-04-03T09:03:47Z</time></trkpt><trkpt lat="43.4937441373527" lon="10.609655566326344"><ele>394.3333333333333</ele><time>2026-04-03T09:03:49Z</time></trkpt><trkpt lat="43.493719369059484" lon="10.609571005369558"><ele>394.66666666666663</ele><time>2026-04-03T09:04:43.001Z</time></trkpt><trkpt lat="43.49369079321265" lon="10.609453859778904"><ele>395.0</ele><time>2026-04-03T09:06:59.001Z</time></trkpt><trkpt lat="43.49365079552828" lon="10.609342543155321"><ele>394.99999999999994</ele><time>2026-04-03T09:07:02.001Z</time></trkpt><trkpt lat="43.49360912036834" lon="10.609249816602254"><ele>395.0</ele><time>2026-04-03T09:07:05.001Z</time></trkpt><trkpt lat="43.49358090253098" lon="10.609164526947133"><ele>395.0</ele><time>2026-04-03T09:07:07.001Z</time></trkpt><trkpt lat="43.49351700174056" lon="10.609105752669699"><ele>395.0</ele><time>2026-04-03T09:07:12.001Z</time></trkpt><trkpt lat="43.49343707911589" lon="10.60902632396074"><ele>394.99999999999994</ele><time>2026-04-03T09:07:35.001Z</time></trkpt><trkpt lat="43.493365466233485" lon="10.608891591292476"><ele>395.0</ele><time>2026-04-03T09:07:37Z</time></trkpt><trkpt lat="43.493261549825945" lon="10.608793294037875"><ele>394.99999999999994</ele><time>2026-04-03T09:07:39Z</time></trkpt><trkpt lat="43.49318241598124" lon="10.608744496809178"><ele>395.0</ele><time>2026-04-03T09:07:40Z</time></trkpt><trkpt lat="43.493102323967726" lon="10.60869990963022"><ele>395.0</ele><time>2026-04-03T09:07:41Z</time></trkpt><trkpt lat="43.493041886196906" lon="10.608632069321805"><ele>395.0</ele><time>2026-04-03T09:07:42Z</time></trkpt><trkpt lat="43.49297793898129" lon="10.608562802192576"><ele>394.99999999999994</ele><time>2026-04-03T09:07:44Z</time></trkpt><trkpt lat="43.49292782251802" lon="10.608468105460442"><ele>395.0</ele><time>2026-04-03T09:07:46Z</time></trkpt><trkpt lat="43.492892459917336" lon="10.608361300762443"><ele>395.66666666666663</ele><time>2026-04-03T09:07:48Z</time></trkpt><trkpt lat="43.49284911279621" lon="10.608263094228963"><ele>396.3333333333333</ele><time>2026-04-03T09:07:51Z</time></trkpt><trkpt lat="43.49281828719539" lon="10.608183504579355"><ele>397.0</ele><time>2026-04-03T09:07:53Z</time></trkpt><trkpt lat="43.49275579083554" lon="10.608056926868828"><ele>397.66666666666663</ele><time>2026-04-03T09:07:56Z</time></trkpt><trkpt lat="43.49273034778173" lon="10.607961826849944"><ele>398.3333333333333</ele><time>2026-04-03T09:07:58Z</time></trkpt><trkpt lat="43.492743671106524" lon="10.607841861380361"><ele>399.0</ele><time>2026-04-03T09:08:00Z</time></trkpt><trkpt lat="43.49276523822571" lon="10.607706979668354"><ele>399.0</ele><time>2026-04-03T09:08:02Z</time></trkpt><trkpt lat="43.49276523472917" lon="10.60759547811132"><ele>399.0</ele><time>2026-04-03T09:08:04Z</time></trkpt><trkpt lat="43.492708629142115" lon="10.607504781175978"><ele>399.0</ele><time>2026-04-03T09:08:08Z</time></trkpt><trkpt lat="43.492584865709176" lon="10.607489036405724"><ele>399.0</ele><time>2026-04-03T09:08:11Z</time></trkpt><trkpt lat="43.4924671133178" lon="10.607443314748512"><ele>399.0</ele><time>2026-04-03T09:08:13Z</time></trkpt><trkpt lat="43.49240002293027" lon="10.607435116426183"><ele>399.0</ele><time>2026-04-03T09:08:14Z</time></trkpt><trkpt lat="43.49229913601455" lon="10.607381077474747"><ele>399.0</ele><time>2026-04-03T09:08:16Z</time></trkpt><trkpt lat="43.49221504890861" lon="10.607264756177388"><ele>399.0</ele><time>2026-04-03T09:08:18Z</time></trkpt><trkpt lat="43.49212611133639" lon="10.607173857256255"><ele>399.0</ele><time>2026-04-03T09:08:20Z</time></trkpt><trkpt lat="43.492056272258004" lon="10.607112803343846"><ele>399.0</ele><time>2026-04-03T09:08:22Z</time></trkpt><trkpt lat="43.491999653127706" lon="10.607042040234907"><ele>400.5</ele><time>2026-04-03T09:08:24Z</time></trkpt><trkpt lat="43.49192828192156" lon="10.60697088292297"><ele>402.0</ele><time>2026-04-03T09:08:27Z</time></trkpt><trkpt lat="43.491847877060415" lon="10.606965462449114"><ele>403.5</ele><time>2026-04-03T09:08:30Z</time></trkpt><trkpt lat="43.49177151809171" lon="10.607007786909731"><ele>405.0</ele><time>2026-04-03T09:08:34Z</time></trkpt><trkpt lat="43.49176858544068" lon="10.607094620035607"><ele>406.5</ele><time>2026-04-03T09:09:16.001Z</time></trkpt><trkpt lat="43.49176159551325" lon="10.607220900105284"><ele>408.0</ele><time>2026-04-03T09:09:20.001Z</time></trkpt><trkpt lat="43.491779389413026" lon="10.607344340497853"><ele>408.0</ele><time>2026-04-03T09:09:23.001Z</time></trkpt><trkpt lat="43.49177533969161" lon="10.607448850435562"><ele>408.0</ele><time>2026-04-03T09:09:25.001Z</time></trkpt><trkpt lat="43.491772349212006" lon="10.607565018411275"><ele>408.0</ele><time>2026-04-03T09:09:27.001Z</time></trkpt><trkpt lat="43.49177646772331" lon="10.607661588054377"><ele>408.0</ele><time>2026-04-03T09:09:29.001Z</time></trkpt><trkpt lat="43.49178557985013" lon="10.60777423806224"><ele>408.0</ele><time>2026-04-03T09:09:31.001Z</time></trkpt><trkpt lat="43.491807821911664" lon="10.607889354560369"><ele>408.0</ele><time>2026-04-03T09:09:33.001Z</time></trkpt><trkpt lat="43.49183305614326" lon="10.60804642186986"><ele>407.0</ele><time>2026-04-03T09:09:35.001Z</time></trkpt><trkpt lat="43.49182120183569" lon="10.608203153546993"><ele>406.0</ele><time>2026-04-03T09:09:37.001Z</time></trkpt><trkpt lat="43.491767379857045" lon="10.608275277112032"><ele>405.0</ele><time>2026-04-03T09:09:38.001Z</time></trkpt><trkpt lat="43.49170718052295" lon="10.608300862476009"><ele>404.0</ele><time>2026-04-03T09:09:39.001Z</time></trkpt><trkpt lat="43.4916129725984" lon="10.608305044651647"><ele>403.0</ele><time>2026-04-03T09:09:41.001Z</time></trkpt><trkpt lat="43.49154387932958" lon="10.608318330287652"><ele>402.0</ele><time>2026-04-03T09:09:43Z</time></trkpt><trkpt lat="43.49147405484597" lon="10.608349439667675"><ele>402.0</ele><time>2026-04-03T09:10:26Z</time></trkpt><trkpt lat="43.49140716849314" lon="10.608377443483823"><ele>402.0</ele><time>2026-04-03T09:10:28Z</time></trkpt><trkpt lat="43.4913335143608" lon="10.608408676320279"><ele>402.0</ele><time>2026-04-03T09:10:32Z</time></trkpt><trkpt lat="43.49125060456415" lon="10.608419191106846"><ele>402.0</ele><time>2026-04-03T09:10:35Z</time></trkpt><trkpt lat="43.49116724449885" lon="10.608403887971154"><ele>402.0</ele><time>2026-04-03T09:10:37Z</time></trkpt><trkpt lat="43.49108796781" lon="10.608352984506526"><ele>402.0</ele><time>2026-04-03T09:10:39Z</time></trkpt><trkpt lat="43.491004496751046" lon="10.608297604335531"><ele>403.0</ele><time>2026-04-03T09:10:42Z</time></trkpt><trkpt lat="43.4908925812536" lon="10.608179887984369"><ele>404.0</ele><time>2026-04-03T09:10:44Z</time></trkpt><trkpt lat="43.490811191627074" lon="10.60812405233288"><ele>405.0</ele><time>2026-04-03T09:10:45Z</time></trkpt><trkpt lat="43.490718291123585" lon="10.60800797693371"><ele>406.0</ele><time>2026-04-03T09:10:47Z</time></trkpt><trkpt lat="43.490691842474256" lon="10.60792910330381"><ele>407.0</ele><time>2026-04-03T09:10:48Z</time></trkpt><trkpt lat="43.49062330767754" lon="10.607779881387051"><ele>410.40000000000003</ele><time>2026-04-03T09:10:50Z</time></trkpt><trkpt lat="43.49059960972039" lon="10.607696457389476"><ele>413.8</ele><time>2026-04-03T09:10:51Z</time></trkpt><trkpt lat="43.490584266747064" lon="10.607565382523454"><ele>417.2</ele><time>2026-04-03T09:10:53Z</time></trkpt><trkpt lat="43.49057712181628" lon="10.607436015711182"><ele>420.6</ele><time>2026-04-03T09:10:55Z</time></trkpt><trkpt lat="43.49057057518854" lon="10.607312457480372"><ele>424.0</ele><time>2026-04-03T09:10:57Z</time></trkpt><trkpt lat="43.490574573130665" lon="10.607160144559623"><ele>424.00000000000006</ele><time>2026-04-03T09:10:59.001Z</time></trkpt><trkpt lat="43.49057392889363" lon="10.60706203059036"><ele>424.0</ele><time>2026-04-03T09:11:01.001Z</time></trkpt><trkpt lat="43.490564977850156" lon="10.606956674959077"><ele>424.0</ele><time>2026-04-03T09:11:03.001Z</time></trkpt><trkpt lat="43.49054432889587" lon="10.606803337089099"><ele>424.0</ele><time>2026-04-03T09:11:05.001Z</time></trkpt><trkpt lat="43.49051864101759" lon="10.606701374329173"><ele>424.00000000000006</ele><time>2026-04-03T09:11:07.001Z</time></trkpt><trkpt lat="43.490506107887576" lon="10.606594333730888"><ele>424.0</ele><time>2026-04-03T09:11:09.001Z</time></trkpt><trkpt lat="43.490501837892054" lon="10.60650411185051"><ele>424.50000000000006</ele><time>2026-04-03T09:11:10.001Z</time></trkpt><trkpt lat="43.490491096081776" lon="10.606387837787661"><ele>425.0</ele><time>2026-04-03T09:11:11.001Z</time></trkpt><trkpt lat="43.490474575081954" lon="10.606290510658784"><ele>425.5</ele><time>2026-04-03T09:11:12.001Z</time></trkpt><trkpt lat="43.49042453021268" lon="10.606167006832449"><ele>426.0</ele><time>2026-04-03T09:11:14.001Z</time></trkpt><trkpt lat="43.4903556772957" lon="10.606147774070033"><ele>426.50000000000006</ele><time>2026-04-03T09:11:16.001Z</time></trkpt><trkpt lat="43.490315243711116" lon="10.606256506133516"><ele>427.0</ele><time>2026-04-03T09:11:19.001Z</time></trkpt><trkpt lat="43.49033873384893" lon="10.606345345014569"><ele>428.50000000000006</ele><time>2026-04-03T09:11:21.001Z</time></trkpt><trkpt lat="43.49032365406887" lon="10.606457188263652"><ele>430.0</ele><time>2026-04-03T09:11:23.001Z</time></trkpt><trkpt lat="43.490305179358856" lon="10.606633276562448"><ele>431.5</ele><time>2026-04-03T09:11:25.001Z</time></trkpt><trkpt lat="43.49026752635099" lon="10.606725108321143"><ele>433.0</ele><time>2026-04-03T09:11:26.001Z</time></trkpt><trkpt lat="43.49021518294359" lon="10.606824814908034"><ele>434.50000000000006</ele><time>2026-04-03T09:11:28.001Z</time></trkpt><trkpt lat="43.49018311476161" lon="10.606900496525808"><ele>436.0</ele><time>2026-04-03T09:11:30.001Z</time></trkpt><trkpt lat="43.49011969380262" lon="10.606974671528674"><ele>436.00000000000006</ele><time>2026-04-03T09:12:26Z</time></trkpt><trkpt lat="43.49004954484028" lon="10.606956119464051"><ele>436.0</ele><time>2026-04-03T09:12:30Z</time></trkpt><trkpt lat="43.489988900832664" lon="10.607028401092768"><ele>436.0</ele><time>2026-04-03T09:13:35.001Z</time></trkpt><trkpt lat="43.48991461626512" lon="10.607064181976172"><ele>436.0</ele><time>2026-04-03T09:13:36.001Z</time></trkpt><trkpt lat="43.489817213543496" lon="10.607089202277102"><ele>436.00000000000006</ele><time>2026-04-03T09:13:37.001Z</time></trkpt><trkpt lat="43.489709388908025" lon="10.607119446340205"><ele>436.0</ele><time>2026-04-03T09:13:38.001Z</time></trkpt><trkpt lat="43.48958565741962" lon="10.607152390902714"><ele>435.4</ele><time>2026-04-03T09:13:39.001Z</time></trkpt><trkpt lat="43.48946685394368" lon="10.607207841330704"><ele>434.8</ele><time>2026-04-03T09:13:40.001Z</time></trkpt><trkpt lat="43.489381464669144" lon="10.607293983061192"><ele>434.19999999999993</ele><time>2026-04-03T09:13:41.001Z</time></trkpt><trkpt lat="43.48929453113528" lon="10.607423755063323"><ele>433.59999999999997</ele><time>2026-04-03T09:13:42.001Z</time></trkpt><trkpt lat="43.489234080515104" lon="10.607509499448895"><ele>433.0</ele><time>2026-04-03T09:13:43.001Z</time></trkpt><trkpt lat="43.48918828915844" lon="10.607609648108964"><ele>433.0</ele><time>2026-04-03T09:13:44.001Z</time></trkpt><trkpt lat="43.489149093087235" lon="10.607743638844699"><ele>432.99999999999994</ele><time>2026-04-03T09:13:45.001Z</time></trkpt><trkpt lat="43.48914452121745" lon="10.607853849604389"><ele>432.99999999999994</ele><time>2026-04-03T09:13:46.001Z</time></trkpt><trkpt lat="43.48913564189283" lon="10.60794970239602"><ele>433.0</ele><time>2026-04-03T09:13:47.001Z</time></trkpt><trkpt lat="43.48914295102306" lon="10.608102973998117"><ele>433.0</ele><time>2026-04-03T09:13:49.001Z</time></trkpt><trkpt lat="43.48914038248608" lon="10.608226311668917"><ele>430.1666666666667</ele><time>2026-04-03T09:13:51.001Z</time></trkpt><trkpt lat="43.48910847806209" lon="10.608397180179315"><ele>427.33333333333337</ele><time>2026-04-03T09:13:53.001Z</time></trkpt><trkpt lat="43.489067090940615" lon="10.60850398513142"><ele>424.5</ele><time>2026-04-03T09:13:54.001Z</time></trkpt><trkpt lat="43.48901755394615" lon="10.608572150910792"><ele>421.66666666666663</ele><time>2026-04-03T09:13:55Z</time></trkpt><trkpt lat="43.48895713532019" lon="10.608634899629989"><ele>418.8333333333333</ele><time>2026-04-03T09:13:56Z</time></trkpt><trkpt lat="43.488906470226446" lon="10.60868648479076"><ele>416.0</ele><time>2026-04-03T09:13:57Z</time></trkpt><trkpt lat="43.48885840174736" lon="10.60874295666438"><ele>414.8</ele><time>2026-04-03T09:13:58Z</time></trkpt><trkpt lat="43.488794408646015" lon="10.608852478735242"><ele>413.6</ele><time>2026-04-03T09:14:00Z</time></trkpt><trkpt lat="43.48876569761618" lon="10.609013061179668"><ele>412.4</ele><time>2026-04-03T09:14:02Z</time></trkpt><trkpt lat="43.48878900018484" lon="10.609158909385128"><ele>411.2</ele><time>2026-04-03T09:14:04Z</time></trkpt><trkpt lat="43.488800116367194" lon="10.609272146839828"><ele>410.0</ele><time>2026-04-03T09:14:06Z</time></trkpt><trkpt lat="43.48881151598144" lon="10.60936988851553"><ele>409.99999999999994</ele><time>2026-04-03T09:14:08Z</time></trkpt><trkpt lat="43.48877363884514" lon="10.609457636733419"><ele>410.0</ele><time>2026-04-03T09:14:11Z</time></trkpt><trkpt lat="43.488707153063885" lon="10.60949603866526"><ele>410.0</ele><time>2026-04-03T09:14:14Z</time></trkpt><trkpt lat="43.48861178322107" lon="10.609553109022189"><ele>410.0</ele><time>2026-04-03T09:14:16Z</time></trkpt><trkpt lat="43.488507375205536" lon="10.609600498412371"><ele>409.99999999999994</ele><time>2026-04-03T09:14:18Z</time></trkpt><trkpt lat="43.48843744752054" lon="10.609630627744473"><ele>410.0</ele><time>2026-04-03T09:14:19Z</time></trkpt><trkpt lat="43.48835188449624" lon="10.60962931856963"><ele>409.99999999999994</ele><time>2026-04-03T09:14:20Z</time></trkpt><trkpt lat="43.488271194111334" lon="10.609623101437679"><ele>410.0</ele><time>2026-04-03T09:14:21Z</time></trkpt><trkpt lat="43.488169513920276" lon="10.609615480522125"><ele>410.0</ele><time>2026-04-03T09:14:23Z</time></trkpt><trkpt lat="43.488105321306676" lon="10.609573908630944"><ele>410.0</ele><time>2026-04-03T09:14:24Z</time></trkpt><trkpt lat="43.48803147175691" lon="10.609520697284228"><ele>409.99999999999994</ele><time>2026-04-03T09:14:25Z</time></trkpt><trkpt lat="43.48792986219716" lon="10.609456190401557"><ele>410.0</ele><time>2026-04-03T09:14:26Z</time></trkpt><trkpt lat="43.48784566142989" lon="10.609398404942942"><ele>412.16666666666663</ele><time>2026-04-03T09:14:27Z</time></trkpt><trkpt lat="43.487754146942784" lon="10.609332165140993"><ele>414.3333333333333</ele><time>2026-04-03T09:14:28Z</time></trkpt><trkpt lat="43.48767722171738" lon="10.609295048179023"><ele>416.5</ele><time>2026-04-03T09:14:29Z</time></trkpt><trkpt lat="43.487599333659865" lon="10.609277822486005"><ele>418.66666666666663</ele><time>2026-04-03T09:14:30Z</time></trkpt><trkpt lat="43.48753046952329" lon="10.609308498289021"><ele>420.8333333333333</ele><time>2026-04-03T09:14:31Z</time></trkpt><trkpt lat="43.48746686887112" lon="10.60934801641807"><ele>423.0</ele><time>2026-04-03T09:14:32Z</time></trkpt><trkpt lat="43.48738252521614" lon="10.609350688594738"><ele>423.0</ele><time>2026-04-03T09:14:41.001Z</time></trkpt><trkpt lat="43.48730631715602" lon="10.609351386900444"><ele>423.0</ele><time>2026-04-03T09:14:44.001Z</time></trkpt><trkpt lat="43.487248880350954" lon="10.609408503507293"><ele>423.0</ele><time>2026-04-03T09:14:47.001Z</time></trkpt><trkpt lat="43.48721339220654" lon="10.609484551099449"><ele>423.0</ele><time>2026-04-03T09:14:55.001Z</time></trkpt><trkpt lat="43.48714613172357" lon="10.609493023033576"><ele>423.0</ele><time>2026-04-03T09:15:53.001Z</time></trkpt><trkpt lat="43.48704223486663" lon="10.609521613897948"><ele>423.0</ele><time>2026-04-03T09:15:55.001Z</time></trkpt><trkpt lat="43.486941319478646" lon="10.609564360525592"><ele>422.79999999999995</ele><time>2026-04-03T09:15:57.001Z</time></trkpt><trkpt lat="43.48684799517086" lon="10.609574911491508"><ele>422.6</ele><time>2026-04-03T09:15:59.001Z</time></trkpt><trkpt lat="43.48678426713118" lon="10.609524393334436"><ele>422.4</ele><time>2026-04-03T09:16:01Z</time></trkpt><trkpt lat="43.4867454769856" lon="10.609371190329176"><ele>422.20000000000005</ele><time>2026-04-03T09:16:04Z</time></trkpt><trkpt lat="43.486699538401666" lon="10.609240861415511"><ele>422.0</ele><time>2026-04-03T09:16:06Z</time></trkpt><trkpt lat="43.48664738747441" lon="10.609183344476396"><ele>421.99999999999994</ele><time>2026-04-03T09:16:07Z</time></trkpt><trkpt lat="43.48657399801638" lon="10.609129560661598"><ele>422.0</ele><time>2026-04-03T09:16:08Z</time></trkpt><trkpt lat="43.48651063055516" lon="10.609062984189757"><ele>422.0</ele><time>2026-04-03T09:16:09Z</time></trkpt><trkpt lat="43.486459459225706" lon="10.609007852086222"><ele>422.0</ele><time>2026-04-03T09:16:10Z</time></trkpt><trkpt lat="43.48638997847885" lon="10.608955995325458"><ele>421.99999999999994</ele><time>2026-04-03T09:16:12Z</time></trkpt><trkpt lat="43.48637779371148" lon="10.608864630986055"><ele>422.0</ele><time>2026-04-03T09:16:14Z</time></trkpt><trkpt lat="43.48636738180068" lon="10.608704328132776"><ele>424.8</ele><time>2026-04-03T09:16:16Z</time></trkpt><trkpt lat="43.4863834308295" lon="10.608560484197675"><ele>427.6</ele><time>2026-04-03T09:16:18Z</time></trkpt><trkpt lat="43.48641882282855" lon="10.608442553151297"><ele>430.40000000000003</ele><time>2026-04-03T09:16:20Z</time></trkpt><trkpt lat="43.48643967284489" lon="10.608335438722682"><ele>433.20000000000005</ele><time>2026-04-03T09:16:21Z</time></trkpt><trkpt lat="43.48643009417773" lon="10.608225339918793"><ele>436.0</ele><time>2026-04-03T09:16:22Z</time></trkpt><trkpt lat="43.486380043422066" lon="10.608115014190107"><ele>436.00000000000006</ele><time>2026-04-03T09:16:24Z</time></trkpt><trkpt lat="43.48630046011232" lon="10.608141225365909"><ele>436.0</ele><time>2026-04-03T09:16:25.999Z</time></trkpt><trkpt lat="43.48621857637035" lon="10.60818575905254"><ele>436.0</ele><time>2026-04-03T09:16:27.999Z</time></trkpt><trkpt lat="43.48616320812416" lon="10.608098242389872"><ele>436.0</ele><time>2026-04-03T09:16:29.999Z</time></trkpt><trkpt lat="43.48615057720193" lon="10.608012619313886"><ele>436.00000000000006</ele><time>2026-04-03T09:16:31.999Z</time></trkpt><trkpt lat="43.4861562174433" lon="10.60788306375305"><ele>436.0</ele><time>2026-04-03T09:16:33.999Z</time></trkpt><trkpt lat="43.486163480442784" lon="10.60778685562388"><ele>435.00000000000006</ele><time>2026-04-03T09:16:35.999Z</time></trkpt><trkpt lat="43.48618262921315" lon="10.607677775237592"><ele>434.0</ele><time>2026-04-03T09:16:38.999Z</time></trkpt><trkpt lat="43.486186193227994" lon="10.607544269484386"><ele>433.0</ele><time>2026-04-03T09:16:50.999Z</time></trkpt><trkpt lat="43.48616969375314" lon="10.607402883543465"><ele>432.0</ele><time>2026-04-03T09:16:52.999Z</time></trkpt><trkpt lat="43.486194233608096" lon="10.607303466218875"><ele>431.00000000000006</ele><time>2026-04-03T09:16:54.999Z</time></trkpt><trkpt lat="43.48622498964974" lon="10.607189318266183"><ele>430.0</ele><time>2026-04-03T09:16:56.999Z</time></trkpt><trkpt lat="43.48620909332607" lon="10.60706020290804"><ele>430.85714285714283</ele><time>2026-04-03T09:16:58.999Z</time></trkpt><trkpt lat="43.48618249523391" lon="10.606977773472222"><ele>431.7142857142857</ele><time>2026-04-03T09:17:01.999Z</time></trkpt><trkpt lat="43.486179707389624" lon="10.60687690048524"><ele>432.57142857142856</ele><time>2026-04-03T09:17:04.999Z</time></trkpt><trkpt lat="43.48618600142796" lon="10.606774779861935"><ele>433.42857142857144</ele><time>2026-04-03T09:17:05.999Z</time></trkpt><trkpt lat="43.48616895197652" lon="10.606666851051319"><ele>434.28571428571433</ele><time>2026-04-03T09:17:08.999Z</time></trkpt><trkpt lat="43.486178193751805" lon="10.60656843768424"><ele>435.14285714285717</ele><time>2026-04-03T09:17:11.999Z</time></trkpt><trkpt lat="43.48619459238401" lon="10.60648026181751"><ele>436.0</ele><time>2026-04-03T09:17:15.999Z</time></trkpt><trkpt lat="43.4862436527736" lon="10.606397541209718"><ele>438.83333333333337</ele><time>2026-04-03T09:17:30.999Z</time></trkpt><trkpt lat="43.48630587418199" lon="10.606294073805879"><ele>441.6666666666667</ele><time>2026-04-03T09:17:33.999Z</time></trkpt><trkpt lat="43.48636893856945" lon="10.606249968896215"><ele>444.5</ele><time>2026-04-03T09:17:36.999Z</time></trkpt><trkpt lat="43.48641632100388" lon="10.606159797218593"><ele>447.33333333333337</ele><time>2026-04-03T09:17:40Z</time></trkpt><trkpt lat="43.48639304133335" lon="10.606021418605366"><ele>450.1666666666667</ele><time>2026-04-03T09:17:42Z</time></trkpt><trkpt lat="43.486419181541834" lon="10.60593594355575"><ele>453.0</ele><time>2026-04-03T09:17:46Z</time></trkpt><trkpt lat="43.486447042811136" lon="10.60582089347434"><ele>455.0</ele><time>2026-04-03T09:17:50Z</time></trkpt><trkpt lat="43.486505283163496" lon="10.60573637943118"><ele>457.0</ele><time>2026-04-03T09:17:52.001Z</time></trkpt><trkpt lat="43.48657651538363" lon="10.605700138609972"><ele>459.0</ele><time>2026-04-03T09:17:55.001Z</time></trkpt><trkpt lat="43.48663956267166" lon="10.605637500541471"><ele>461.0</ele><time>2026-04-03T09:20:22Z</time></trkpt><trkpt lat="43.48671490141985" lon="10.605600812586182"><ele>463.0</ele><time>2026-04-03T09:20:24Z</time></trkpt><trkpt lat="43.48681962403617" lon="10.605566271419477"><ele>465.0</ele><time>2026-04-03T09:20:29Z</time></trkpt><trkpt lat="43.48691057978121" lon="10.605554644575589"><ele>465.0</ele><time>2026-04-03T09:20:32Z</time></trkpt><trkpt lat="43.48696969770322" lon="10.605597747543769"><ele>465.0</ele><time>2026-04-03T09:20:34Z</time></trkpt><trkpt lat="43.48702689050304" lon="10.60564267048168"><ele>465.0</ele><time>2026-04-03T09:20:39Z</time></trkpt><trkpt lat="43.48710798471582" lon="10.605637162385868"><ele>465.0</ele><time>2026-04-03T09:20:42Z</time></trkpt><trkpt lat="43.4871619284262" lon="10.60558070243125"><ele>465.0</ele><time>2026-04-03T09:20:44Z</time></trkpt><trkpt lat="43.487231124297764" lon="10.605540531564428"><ele>465.0</ele><time>2026-04-03T09:20:46Z</time></trkpt><trkpt lat="43.48719570748548" lon="10.605615829966661"><ele>465.0</ele><time>2026-04-03T09:21:05Z</time></trkpt><trkpt lat="43.48720544131946" lon="10.605542416004885"><ele>466.85714285714283</ele><time>2026-04-03T09:25:10Z</time></trkpt><trkpt lat="43.48728133981547" lon="10.60552893797869"><ele>468.7142857142858</ele><time>2026-04-03T09:25:13Z</time></trkpt><trkpt lat="43.487363166670264" lon="10.605581262606481"><ele>470.5714285714286</ele><time>2026-04-03T09:25:15Z</time></trkpt><trkpt lat="43.48738919172293" lon="10.605668563206427"><ele>472.42857142857144</ele><time>2026-04-03T09:25:16Z</time></trkpt><trkpt lat="43.48742150849242" lon="10.605750105696288"><ele>474.28571428571433</ele><time>2026-04-03T09:25:17Z</time></trkpt><trkpt lat="43.48746537834881" lon="10.605686699350226"><ele>476.1428571428572</ele><time>2026-04-03T09:25:27Z</time></trkpt><trkpt lat="43.48750519697587" lon="10.60561672991339"><ele>478.00000000000006</ele><time>2026-04-03T09:25:35Z</time></trkpt><trkpt lat="43.48756579978764" lon="10.605558962219755"><ele>478.00000000000006</ele><time>2026-04-03T09:25:39Z</time></trkpt><trkpt lat="43.487629447447276" lon="10.605615315332491"><ele>478.0</ele><time>2026-04-03T09:25:41Z</time></trkpt><trkpt lat="43.48768841162383" lon="10.605696595736545"><ele>478.0</ele><time>2026-04-03T09:25:43Z</time></trkpt><trkpt lat="43.48774114374905" lon="10.605760871657042"><ele>478.0</ele><time>2026-04-03T09:25:46Z</time></trkpt><trkpt lat="43.48782369159954" lon="10.605803841938958"><ele>478.00000000000006</ele><time>2026-04-03T09:25:48Z</time></trkpt><trkpt lat="43.48788383281255" lon="10.605834092371873"><ele>478.0</ele><time>2026-04-03T09:25:50Z</time></trkpt><trkpt lat="43.4879597631216" lon="10.605806509262324"><ele>478.4285714285715</ele><time>2026-04-03T09:25:53Z</time></trkpt><trkpt lat="43.48802406594079" lon="10.605771609139719"><ele>478.8571428571429</ele><time>2026-04-03T09:25:56Z</time></trkpt><trkpt lat="43.488081669459724" lon="10.605733798637207"><ele>479.2857142857143</ele><time>2026-04-03T09:26:58Z</time></trkpt><trkpt lat="43.48811632782879" lon="10.605635218287837"><ele>479.7142857142857</ele><time>2026-04-03T09:27:08Z</time></trkpt><trkpt lat="43.48812041616226" lon="10.605546711177796"><ele>480.1428571428571</ele><time>2026-04-03T09:27:13Z</time></trkpt><trkpt lat="43.48810997640234" lon="10.605433501561293"><ele>480.5714285714285</ele><time>2026-04-03T09:27:20Z</time></trkpt><trkpt lat="43.488100199767175" lon="10.60534225827213"><ele>480.99999999999994</ele><time>2026-04-03T09:27:24Z</time></trkpt><trkpt lat="43.488091054106434" lon="10.605226899056579"><ele>481.99999999999994</ele><time>2026-04-03T09:27:31Z</time></trkpt><trkpt lat="43.48808202467322" lon="10.605125840465853"><ele>483.0</ele><time>2026-04-03T09:27:34.001Z</time></trkpt><trkpt lat="43.48805302451333" lon="10.605028612448141"><ele>483.99999999999994</ele><time>2026-04-03T09:27:37.001Z</time></trkpt><trkpt lat="43.488024509139954" lon="10.604945493671627"><ele>484.99999999999994</ele><time>2026-04-03T09:27:39.001Z</time></trkpt><trkpt lat="43.48797798031634" lon="10.60486961184868"><ele>486.0</ele><time>2026-04-03T09:27:41.001Z</time></trkpt><trkpt lat="43.48793522818825" lon="10.604783075349365"><ele>486.99999999999994</ele><time>2026-04-03T09:27:43.001Z</time></trkpt><trkpt lat="43.487926849306426" lon="10.604671944953582"><ele>487.99999999999994</ele><time>2026-04-03T09:27:45.001Z</time></trkpt><trkpt lat="43.48790983290016" lon="10.604580463343403"><ele>489.99999999999994</ele><time>2026-04-03T09:27:47.001Z</time></trkpt><trkpt lat="43.487877120195456" lon="10.604447878736545"><ele>492.0</ele><time>2026-04-03T09:27:50.001Z</time></trkpt><trkpt lat="43.48784762327194" lon="10.604350941148068"><ele>494.0</ele><time>2026-04-03T09:27:52.001Z</time></trkpt><trkpt lat="43.48779680385876" lon="10.604276234184598"><ele>496.0</ele><time>2026-04-03T09:28:04.001Z</time></trkpt><trkpt lat="43.48772585434909" lon="10.604195173711732"><ele>497.99999999999994</ele><time>2026-04-03T09:28:29Z</time></trkpt><trkpt lat="43.487655659889874" lon="10.604153622249008"><ele>500.0</ele><time>2026-04-03T09:28:32Z</time></trkpt><trkpt lat="43.48760195877203" lon="10.604102639151526"><ele>499.99999999999994</ele><time>2026-04-03T09:28:37Z</time></trkpt><trkpt lat="43.487548937591605" lon="10.604047919258608"><ele>500.0</ele><time>2026-04-03T09:35:53.001Z</time></trkpt><trkpt lat="43.48744444640919" lon="10.60398247565619"><ele>500.0</ele><time>2026-04-03T09:35:55.001Z</time></trkpt><trkpt lat="43.487380624880956" lon="10.603966507458173"><ele>500.0</ele><time>2026-04-03T09:35:56.001Z</time></trkpt><trkpt lat="43.48731700167488" lon="10.60396008085755"><ele>499.99999999999994</ele><time>2026-04-03T09:35:57.001Z</time></trkpt><trkpt lat="43.48720430257101" lon="10.603916978960052"><ele>500.0</ele><time>2026-04-03T09:35:59.001Z</time></trkpt><trkpt lat="43.48713358099832" lon="10.603880455320397"><ele>500.49999999999994</ele><time>2026-04-03T09:36:00.001Z</time></trkpt><trkpt lat="43.4870682538285" lon="10.603837644962999"><ele>501.0</ele><time>2026-04-03T09:36:01.001Z</time></trkpt><trkpt lat="43.4869905368725" lon="10.603760134233152"><ele>501.5</ele><time>2026-04-03T09:36:03.001Z</time></trkpt><trkpt lat="43.4869431398131" lon="10.603677296577263"><ele>502.0</ele><time>2026-04-03T09:36:04.001Z</time></trkpt><trkpt lat="43.48690982203659" lon="10.603596591263495"><ele>502.49999999999994</ele><time>2026-04-03T09:36:05.001Z</time></trkpt><trkpt lat="43.4868576797431" lon="10.603518202612342"><ele>503.0</ele><time>2026-04-03T09:36:06.001Z</time></trkpt><trkpt lat="43.48681178930466" lon="10.60345597972894"><ele>503.0</ele><time>2026-04-03T09:36:07.001Z</time></trkpt><trkpt lat="43.4867630264395" lon="10.603386274456104"><ele>502.99999999999994</ele><time>2026-04-03T09:36:08.001Z</time></trkpt><trkpt lat="43.48671135641374" lon="10.603314504898764"><ele>502.99999999999994</ele><time>2026-04-03T09:36:09.001Z</time></trkpt><trkpt lat="43.48665854874323" lon="10.60319825312438"><ele>503.0</ele><time>2026-04-03T09:36:11.001Z</time></trkpt><trkpt lat="43.48664486774388" lon="10.603079706479496"><ele>503.0</ele><time>2026-04-03T09:36:13.001Z</time></trkpt><trkpt lat="43.486665348828325" lon="10.60289638947641"><ele>503.3333333333333</ele><time>2026-04-03T09:36:15.002Z</time></trkpt><trkpt lat="43.48666041450088" lon="10.602748475196387"><ele>503.66666666666663</ele><time>2026-04-03T09:36:17.002Z</time></trkpt><trkpt lat="43.48663676994522" lon="10.60266185496646"><ele>504.0</ele><time>2026-04-03T09:36:18.002Z</time></trkpt><trkpt lat="43.486595595660276" lon="10.602538825227573"><ele>504.33333333333337</ele><time>2026-04-03T09:36:20.002Z</time></trkpt><trkpt lat="43.48657527067901" lon="10.602449170248532"><ele>504.6666666666667</ele><time>2026-04-03T09:36:22.002Z</time></trkpt><trkpt lat="43.48653657236983" lon="10.60232710645817"><ele>505.0</ele><time>2026-04-03T09:36:24.002Z</time></trkpt><trkpt lat="43.48648584613359" lon="10.602238062121241"><ele>505.00000000000006</ele><time>2026-04-03T09:36:26.002Z</time></trkpt><trkpt lat="43.48645122262341" lon="10.602149291997994"><ele>505.0</ele><time>2026-04-03T09:36:29.002Z</time></trkpt><trkpt lat="43.48645875486875" lon="10.602050966212355"><ele>505.0</ele><time>2026-04-03T09:36:36.002Z</time></trkpt><trkpt lat="43.48646460336633" lon="10.60193063311785"><ele>505.0</ele><time>2026-04-03T09:36:54.001Z</time></trkpt><trkpt lat="43.48642991192119" lon="10.60181584695899"><ele>505.00000000000006</ele><time>2026-04-03T09:36:57.001Z</time></trkpt><trkpt lat="43.48639776255743" lon="10.601738986905778"><ele>505.0</ele><time>2026-04-03T09:36:59.001Z</time></trkpt><trkpt lat="43.48633951198205" lon="10.601660533519079"><ele>505.0</ele><time>2026-04-03T09:37:01.001Z</time></trkpt><trkpt lat="43.48632774858617" lon="10.601507266056487"><ele>505.0</ele><time>2026-04-03T09:37:03.001Z</time></trkpt><trkpt lat="43.48632829765519" lon="10.601378606297395"><ele>505.0</ele><time>2026-04-03T09:37:04.001Z</time></trkpt><trkpt lat="43.48632030699313" lon="10.601274444324083"><ele>505.0</ele><time>2026-04-03T09:37:05.001Z</time></trkpt><trkpt lat="43.48628090035459" lon="10.601132232581618"><ele>505.0</ele><time>2026-04-03T09:37:07.001Z</time></trkpt><trkpt lat="43.48625428515964" lon="10.600947307527992"><ele>505.0</ele><time>2026-04-03T09:37:09.001Z</time></trkpt><trkpt lat="43.48622248704834" lon="10.600855300495702"><ele>504.99999999999994</ele><time>2026-04-03T09:37:10.001Z</time></trkpt><trkpt lat="43.48618569088911" lon="10.600780154582036"><ele>505.0</ele><time>2026-04-03T09:37:11.001Z</time></trkpt><trkpt lat="43.48613774775836" lon="10.600700848209152"><ele>505.0</ele><time>2026-04-03T09:37:12.001Z</time></trkpt><trkpt lat="43.486085507036464" lon="10.600619410377018"><ele>504.99999999999994</ele><time>2026-04-03T09:37:13.001Z</time></trkpt><trkpt lat="43.4860326978615" lon="10.60054260574116"><ele>505.0</ele><time>2026-04-03T09:37:14.001Z</time></trkpt><trkpt lat="43.48599320474444" lon="10.600467706597257"><ele>505.0</ele><time>2026-04-03T09:37:15.001Z</time></trkpt><trkpt lat="43.48595194065225" lon="10.600385586703716"><ele>505.33333333333337</ele><time>2026-04-03T09:37:16.001Z</time></trkpt><trkpt lat="43.48591645342079" lon="10.600311543586889"><ele>505.6666666666667</ele><time>2026-04-03T09:37:17.001Z</time></trkpt><trkpt lat="43.48582973853784" lon="10.600229942756735"><ele>506.0</ele><time>2026-04-03T09:37:19.001Z</time></trkpt><trkpt lat="43.48574643805975" lon="10.600225511534882"><ele>506.33333333333337</ele><time>2026-04-03T09:37:21.001Z</time></trkpt><trkpt lat="43.48567299747229" lon="10.600166344199858"><ele>506.6666666666667</ele><time>2026-04-03T09:37:23.001Z</time></trkpt><trkpt lat="43.485576811818675" lon="10.600136127520217"><ele>507.0</ele><time>2026-04-03T09:37:25.001Z</time></trkpt><trkpt lat="43.485511331115774" lon="10.600110278357363"><ele>507.0</ele><time>2026-04-03T09:37:27.001Z</time></trkpt><trkpt lat="43.48550851615815" lon="10.599996751111608"><ele>507.0</ele><time>2026-04-03T09:37:29.001Z</time></trkpt><trkpt lat="43.48548273565983" lon="10.599907123260584"><ele>507.0</ele><time>2026-04-03T09:37:31.001Z</time></trkpt><trkpt lat="43.48548544137255" lon="10.599807085186889"><ele>507.0</ele><time>2026-04-03T09:37:35.001Z</time></trkpt><trkpt lat="43.48551430195695" lon="10.599707500817198"><ele>507.0</ele><time>2026-04-03T09:37:38.001Z</time></trkpt><trkpt lat="43.48552455204295" lon="10.599582942827297"><ele>507.0</ele><time>2026-04-03T09:37:41.001Z</time></trkpt><trkpt lat="43.485493935528474" lon="10.599466296026307"><ele>506.6666666666667</ele><time>2026-04-03T09:37:43.001Z</time></trkpt><trkpt lat="43.48541335413287" lon="10.599444822922052"><ele>506.33333333333337</ele><time>2026-04-03T09:37:46.001Z</time></trkpt><trkpt lat="43.485362201293164" lon="10.599508761373132"><ele>506.0</ele><time>2026-04-03T09:40:05.001Z</time></trkpt><trkpt lat="43.485353341142286" lon="10.599419459765853"><ele>505.6666666666667</ele><time>2026-04-03T09:49:23.001Z</time></trkpt><trkpt lat="43.4853740116536" lon="10.599275101942414"><ele>505.33333333333337</ele><time>2026-04-03T09:49:25.001Z</time></trkpt><trkpt lat="43.48545567142644" lon="10.599285625044077"><ele>505.0</ele><time>2026-04-03T09:49:28Z</time></trkpt><trkpt lat="43.48545353162177" lon="10.599384956057602"><ele>504.6666666666667</ele><time>2026-04-03T09:49:31Z</time></trkpt><trkpt lat="43.485377135956824" lon="10.599423411084627"><ele>504.33333333333337</ele><time>2026-04-03T09:49:33Z</time></trkpt><trkpt lat="43.48537031943432" lon="10.599323493848756"><ele>504.0</ele><time>2026-04-03T09:49:36Z</time></trkpt><trkpt lat="43.48534948952425" lon="10.599232713845986"><ele>503.66666666666663</ele><time>2026-04-03T09:49:39Z</time></trkpt><trkpt lat="43.48527871295378" lon="10.599267487979048"><ele>503.3333333333333</ele><time>2026-04-03T09:49:41Z</time></trkpt><trkpt lat="43.4852798028733" lon="10.599409318698488"><ele>503.0</ele><time>2026-04-03T09:49:43Z</time></trkpt><trkpt lat="43.48533251280831" lon="10.599471810370027"><ele>503.4</ele><time>2026-04-03T09:49:44Z</time></trkpt><trkpt lat="43.48539233792086" lon="10.599560198822054"><ele>503.79999999999995</ele><time>2026-04-03T09:50:02Z</time></trkpt><trkpt lat="43.48536795150328" lon="10.59967178607721"><ele>504.2</ele><time>2026-04-03T09:50:04Z</time></trkpt><trkpt lat="43.48529761957231" lon="10.599795460340415"><ele>504.6</ele><time>2026-04-03T09:50:06Z</time></trkpt><trkpt lat="43.4852113196965" lon="10.599908674636456"><ele>505.0</ele><time>2026-04-03T09:50:08Z</time></trkpt><trkpt lat="43.48514145458703" lon="10.599952006703612"><ele>505.0</ele><time>2026-04-03T09:50:09Z</time></trkpt><trkpt lat="43.485057162626624" lon="10.59999289172179"><ele>505.0</ele><time>2026-04-03T09:50:10Z</time></trkpt><trkpt lat="43.484940653508" lon="10.600018108280812"><ele>505.0</ele><time>2026-04-03T09:50:11Z</time></trkpt><trkpt lat="43.48479063234163" lon="10.600027778764373"><ele>505.0</ele><time>2026-04-03T09:50:12Z</time></trkpt><trkpt lat="43.484613944084984" lon="10.60004014979526"><ele>504.5</ele><time>2026-04-03T09:50:13Z</time></trkpt><trkpt lat="43.48445759525926" lon="10.600049208691875"><ele>504.0</ele><time>2026-04-03T09:50:14Z</time></trkpt><trkpt lat="43.484326055344326" lon="10.600073347829946"><ele>503.5</ele><time>2026-04-03T09:50:15Z</time></trkpt><trkpt lat="43.48420625548394" lon="10.600098860239314"><ele>503.0</ele><time>2026-04-03T09:50:16Z</time></trkpt><trkpt lat="43.48406250112801" lon="10.600111817247923"><ele>503.0</ele><time>2026-04-03T09:50:17Z</time></trkpt><trkpt lat="43.48390311582118" lon="10.600120258684116"><ele>503.0</ele><time>2026-04-03T09:50:18Z</time></trkpt><trkpt lat="43.48375573645259" lon="10.600113037505542"><ele>503.0</ele><time>2026-04-03T09:50:19Z</time></trkpt><trkpt lat="43.483643845311484" lon="10.600084034501194"><ele>503.0</ele><time>2026-04-03T09:50:20Z</time></trkpt><trkpt lat="43.48353148728414" lon="10.600044526544478"><ele>501.5</ele><time>2026-04-03T09:50:21Z</time></trkpt><trkpt lat="43.4834173596377" lon="10.599990953169184"><ele>500.0</ele><time>2026-04-03T09:50:22Z</time></trkpt><trkpt lat="43.48329762416715" lon="10.59992844483064"><ele>498.5</ele><time>2026-04-03T09:50:23Z</time></trkpt><trkpt lat="43.483155492132475" lon="10.599859204259394"><ele>497.0</ele><time>2026-04-03T09:50:24Z</time></trkpt><trkpt lat="43.48300456862909" lon="10.599782067548192"><ele>496.66666666666663</ele><time>2026-04-03T09:50:25Z</time></trkpt><trkpt lat="43.482866367615856" lon="10.599693452394535"><ele>496.33333333333337</ele><time>2026-04-03T09:50:26Z</time></trkpt><trkpt lat="43.48270584352997" lon="10.599575047884239"><ele>496.0</ele><time>2026-04-03T09:50:27Z</time></trkpt><trkpt lat="43.48253837848417" lon="10.59947137902468"><ele>496.0</ele><time>2026-04-03T09:50:28Z</time></trkpt><trkpt lat="43.48237345418133" lon="10.599393820202927"><ele>496.0</ele><time>2026-04-03T09:50:29Z</time></trkpt><trkpt lat="43.4822128919183" lon="10.599342629534274"><ele>496.0</ele><time>2026-04-03T09:50:30Z</time></trkpt><trkpt lat="43.48204789209643" lon="10.599329243994234"><ele>501.33333333333337</ele><time>2026-04-03T09:50:31Z</time></trkpt><trkpt lat="43.48185564478348" lon="10.599337956612038"><ele>506.66666666666663</ele><time>2026-04-03T09:50:32Z</time></trkpt><trkpt lat="43.48166546232905" lon="10.599361363648804"><ele>512.0</ele><time>2026-04-03T09:50:33Z</time></trkpt><trkpt lat="43.481494721198985" lon="10.599365989957235"><ele>512.0</ele><time>2026-04-03T09:50:34Z</time></trkpt><trkpt lat="43.48134760247613" lon="10.599383232145561"><ele>512.0</ele><time>2026-04-03T09:50:35Z</time></trkpt><trkpt lat="43.48119990017491" lon="10.599436959606312"><ele>512.0</ele><time>2026-04-03T09:50:36Z</time></trkpt><trkpt lat="43.48108637850577" lon="10.599481557260614"><ele>512.0</ele><time>2026-04-03T09:50:37Z</time></trkpt><trkpt lat="43.48098763167822" lon="10.599515437911279"><ele>514.8000000000001</ele><time>2026-04-03T09:50:38Z</time></trkpt><trkpt lat="43.48089728438303" lon="10.599540855865623"><ele>517.6</ele><time>2026-04-03T09:50:39Z</time></trkpt><trkpt lat="43.480796032203436" lon="10.59956358832664"><ele>520.4000000000001</ele><time>2026-04-03T09:50:40Z</time></trkpt><trkpt lat="43.48069130762032" lon="10.599596622256625"><ele>523.2</ele><time>2026-04-03T09:50:41Z</time></trkpt><trkpt lat="43.48056560242816" lon="10.599640805326729"><ele>526.0</ele><time>2026-04-03T09:50:42Z</time></trkpt><trkpt lat="43.480440264511124" lon="10.599699982257341"><ele>527.0</ele><time>2026-04-03T09:50:43Z</time></trkpt><trkpt lat="43.48031490411769" lon="10.59978600164152"><ele>528.0</ele><time>2026-04-03T09:50:44Z</time></trkpt><trkpt lat="43.48020897941531" lon="10.599892967824823"><ele>529.0</ele><time>2026-04-03T09:50:45Z</time></trkpt><trkpt lat="43.480116791802075" lon="10.600018877990442"><ele>530.0</ele><time>2026-04-03T09:50:46Z</time></trkpt><trkpt lat="43.48005512560101" lon="10.600147136246255"><ele>530.0</ele><time>2026-04-03T09:50:47Z</time></trkpt><trkpt lat="43.48000148217292" lon="10.60029893728032"><ele>530.0</ele><time>2026-04-03T09:50:48Z</time></trkpt><trkpt lat="43.47997549121741" lon="10.600454735487975"><ele>530.0</ele><time>2026-04-03T09:50:49Z</time></trkpt><trkpt lat="43.479970553621996" lon="10.600656621313773"><ele>530.0</ele><time>2026-04-03T09:50:50Z</time></trkpt><trkpt lat="43.47996953970642" lon="10.60083137121074"><ele>529.4</ele><time>2026-04-03T09:50:51Z</time></trkpt><trkpt lat="43.47994973995668" lon="10.600943732748728"><ele>528.8</ele><time>2026-04-03T09:50:52Z</time></trkpt><trkpt lat="43.47990468905849" lon="10.601036400586645"><ele>528.2</ele><time>2026-04-03T09:50:53Z</time></trkpt><trkpt lat="43.47984614534097" lon="10.60111675054055"><ele>527.6</ele><time>2026-04-03T09:50:54Z</time></trkpt><trkpt lat="43.47974160547667" lon="10.601197800854509"><ele>527.0</ele><time>2026-04-03T09:50:55Z</time></trkpt><trkpt lat="43.479614283810356" lon="10.6013040045233"><ele>531.0</ele><time>2026-04-03T09:50:56Z</time></trkpt><trkpt lat="43.47950055953658" lon="10.60143725682698"><ele>535.0</ele><time>2026-04-03T09:50:57Z</time></trkpt><trkpt lat="43.47942046898174" lon="10.601565679693008"><ele>539.0</ele><time>2026-04-03T09:50:58Z</time></trkpt><trkpt lat="43.47935753374458" lon="10.601663913660548"><ele>543.0</ele><time>2026-04-03T09:50:59Z</time></trkpt><trkpt lat="43.479287794737374" lon="10.601735053326136"><ele>543.0</ele><time>2026-04-03T09:51:00Z</time></trkpt><trkpt lat="43.47921538369204" lon="10.601767229179341"><ele>543.0</ele><time>2026-04-03T09:51:01Z</time></trkpt><trkpt lat="43.479138494948245" lon="10.601779278963457"><ele>543.0</ele><time>2026-04-03T09:51:02Z</time></trkpt><trkpt lat="43.47905570401614" lon="10.601772802345677"><ele>543.0</ele><time>2026-04-03T09:51:03Z</time></trkpt><trkpt lat="43.47897086696516" lon="10.601732411015647"><ele>543.0</ele><time>2026-04-03T09:51:04.001Z</time></trkpt><trkpt lat="43.47888362162758" lon="10.601713911791295"><ele>543.0</ele><time>2026-04-03T09:51:05.001Z</time></trkpt><trkpt lat="43.478812692983425" lon="10.60171846974027"><ele>543.4</ele><time>2026-04-03T09:51:06.001Z</time></trkpt><trkpt lat="43.478743774234744" lon="10.601749395797803"><ele>543.8</ele><time>2026-04-03T09:51:07.001Z</time></trkpt><trkpt lat="43.47865844395056" lon="10.601823178999403"><ele>544.2</ele><time>2026-04-03T09:51:08.001Z</time></trkpt><trkpt lat="43.47856291022404" lon="10.601931007761879"><ele>544.6</ele><time>2026-04-03T09:51:09.001Z</time></trkpt><trkpt lat="43.47849202369749" lon="10.602030393832656"><ele>545.0</ele><time>2026-04-03T09:51:10.001Z</time></trkpt><trkpt lat="43.47842326689098" lon="10.602128961901489"><ele>545.5</ele><time>2026-04-03T09:51:11.001Z</time></trkpt><trkpt lat="43.478344507367886" lon="10.602251471370367"><ele>546.0</ele><time>2026-04-03T09:51:12.001Z</time></trkpt><trkpt lat="43.478272111476365" lon="10.602417478242922"><ele>546.5</ele><time>2026-04-03T09:51:13.001Z</time></trkpt><trkpt lat="43.478214510400036" lon="10.602609455463657"><ele>547.0</ele><time>2026-04-03T09:51:14.001Z</time></trkpt><trkpt lat="43.47817002991744" lon="10.602762590425282"><ele>546.0</ele><time>2026-04-03T09:51:15.001Z</time></trkpt><trkpt lat="43.478118153860926" lon="10.60287415305686"><ele>545.0</ele><time>2026-04-03T09:51:16.001Z</time></trkpt><trkpt lat="43.478013886999044" lon="10.603002378947407"><ele>544.0</ele><time>2026-04-03T09:51:17.001Z</time></trkpt><trkpt lat="43.47788162813002" lon="10.603152168008833"><ele>543.0</ele><time>2026-04-03T09:51:18.001Z</time></trkpt><trkpt lat="43.47775319946882" lon="10.60332738481574"><ele>547.0</ele><time>2026-04-03T09:51:19.001Z</time></trkpt><trkpt lat="43.47765003422562" lon="10.603464403197083"><ele>551.0</ele><time>2026-04-03T09:51:20.001Z</time></trkpt><trkpt lat="43.47754681548473" lon="10.603555641544514"><ele>555.0</ele><time>2026-04-03T09:51:21.001Z</time></trkpt><trkpt lat="43.47744139374035" lon="10.603609640413497"><ele>559.0</ele><time>2026-04-03T09:51:22.001Z</time></trkpt><trkpt lat="43.47733004867296" lon="10.603642096196818"><ele>559.0</ele><time>2026-04-03T09:51:23.001Z</time></trkpt><trkpt lat="43.4771985261662" lon="10.60366159273801"><ele>559.0</ele><time>2026-04-03T09:51:24.001Z</time></trkpt><trkpt lat="43.47705521919061" lon="10.603701904496006"><ele>559.0</ele><time>2026-04-03T09:51:25.001Z</time></trkpt><trkpt lat="43.476937335502754" lon="10.603777669120428"><ele>559.0</ele><time>2026-04-03T09:51:26.001Z</time></trkpt><trkpt lat="43.47683968119297" lon="10.603845508191926"><ele>560.5</ele><time>2026-04-03T09:51:27.001Z</time></trkpt><trkpt lat="43.47675927156052" lon="10.60388660292526"><ele>562.0</ele><time>2026-04-03T09:51:28.001Z</time></trkpt><trkpt lat="43.47665483873449" lon="10.603899615282298"><ele>563.5</ele><time>2026-04-03T09:51:30.001Z</time></trkpt><trkpt lat="43.47658973813475" lon="10.603884459084366"><ele>565.0</ele><time>2026-04-03T09:51:32Z</time></trkpt><trkpt lat="43.47662305719967" lon="10.603968648053629"><ele>566.5</ele><time>2026-04-03T09:51:43Z</time></trkpt><trkpt lat="43.47667173548468" lon="10.604046414551563"><ele>568.0</ele><time>2026-04-03T09:51:45Z</time></trkpt><trkpt lat="43.476759530054" lon="10.604205567255232"><ele>568.0</ele><time>2026-04-03T09:51:47Z</time></trkpt><trkpt lat="43.47680330569924" lon="10.60430051578634"><ele>568.0</ele><time>2026-04-03T09:51:48Z</time></trkpt><trkpt lat="43.47682512868043" lon="10.60439186227593"><ele>568.0</ele><time>2026-04-03T09:51:49Z</time></trkpt><trkpt lat="43.476791316753754" lon="10.60455457007413"><ele>568.0</ele><time>2026-04-03T09:51:51Z</time></trkpt><trkpt lat="43.47673949246812" lon="10.604663064321924"><ele>568.0</ele><time>2026-04-03T09:51:52Z</time></trkpt><trkpt lat="43.47665300014818" lon="10.604813819392445"><ele>568.8</ele><time>2026-04-03T09:51:53Z</time></trkpt><trkpt lat="43.47659839686278" lon="10.604967209184357"><ele>569.5999999999999</ele><time>2026-04-03T09:51:54Z</time></trkpt><trkpt lat="43.47656971146724" lon="10.605093398364545"><ele>570.4000000000001</ele><time>2026-04-03T09:51:55Z</time></trkpt><trkpt lat="43.476582288161" lon="10.605200548156416"><ele>571.2</ele><time>2026-04-03T09:51:56Z</time></trkpt><trkpt lat="43.47661781292568" lon="10.605352336129107"><ele>572.0</ele><time>2026-04-03T09:51:57Z</time></trkpt><trkpt lat="43.47668266551152" lon="10.605502877466881"><ele>572.6</ele><time>2026-04-03T09:51:58Z</time></trkpt><trkpt lat="43.476747336138494" lon="10.605658232302067"><ele>573.2</ele><time>2026-04-03T09:51:59Z</time></trkpt><trkpt lat="43.476783437690536" lon="10.605793737850979"><ele>573.8</ele><time>2026-04-03T09:52:00Z</time></trkpt><trkpt lat="43.4768020237072" lon="10.605889140290234"><ele>574.4</ele><time>2026-04-03T09:52:01Z</time></trkpt><trkpt lat="43.47682100956915" lon="10.60598654705931"><ele>575.0</ele><time>2026-04-03T09:52:02Z</time></trkpt><trkpt lat="43.47681497178624" lon="10.606129419938355"><ele>575.5</ele><time>2026-04-03T09:52:03Z</time></trkpt><trkpt lat="43.47679286588123" lon="10.606322858078205"><ele>576.0</ele><time>2026-04-03T09:52:04Z</time></trkpt><trkpt lat="43.47678557721692" lon="10.606510979021758"><ele>576.5</ele><time>2026-04-03T09:52:05Z</time></trkpt><trkpt lat="43.476782702985446" lon="10.6067091073189"><ele>577.0</ele><time>2026-04-03T09:52:06Z</time></trkpt><trkpt lat="43.47681472815434" lon="10.606848302593967"><ele>577.25</ele><time>2026-04-03T09:52:07Z</time></trkpt><trkpt lat="43.47683859478071" lon="10.606996047823582"><ele>577.5</ele><time>2026-04-03T09:52:08Z</time></trkpt><trkpt lat="43.476854613660244" lon="10.607156484283376"><ele>577.75</ele><time>2026-04-03T09:52:09Z</time></trkpt><trkpt lat="43.476863841454495" lon="10.60732507679481"><ele>578.0</ele><time>2026-04-03T09:52:10Z</time></trkpt><trkpt lat="43.47685747751075" lon="10.607519382928645"><ele>578.0</ele><time>2026-04-03T09:52:11Z</time></trkpt><trkpt lat="43.47686242687009" lon="10.607706586298683"><ele>578.0</ele><time>2026-04-03T09:52:12Z</time></trkpt><trkpt lat="43.47687445449633" lon="10.607902034403905"><ele>578.0</ele><time>2026-04-03T09:52:13Z</time></trkpt><trkpt lat="43.4768940051847" lon="10.608091644548646"><ele>578.0</ele><time>2026-04-03T09:52:14Z</time></trkpt><trkpt lat="43.476906499193426" lon="10.608276201195741"><ele>578.4</ele><time>2026-04-03T09:52:15Z</time></trkpt><trkpt lat="43.47690930354" lon="10.608455673546048"><ele>578.8</ele><time>2026-04-03T09:52:16Z</time></trkpt><trkpt lat="43.476907144178995" lon="10.608614957975227"><ele>579.2</ele><time>2026-04-03T09:52:17Z</time></trkpt><trkpt lat="43.476912349497006" lon="10.608756724139534"><ele>579.6</ele><time>2026-04-03T09:52:18Z</time></trkpt><trkpt lat="43.47691244987102" lon="10.608869763707798"><ele>580.0</ele><time>2026-04-03T09:52:19Z</time></trkpt><trkpt lat="43.47690517459858" lon="10.608987207887727"><ele>580.0</ele><time>2026-04-03T09:52:20Z</time></trkpt><trkpt lat="43.476916355611145" lon="10.609173142277529"><ele>580.0</ele><time>2026-04-03T09:52:21Z</time></trkpt><trkpt lat="43.476933639985894" lon="10.609392338675546"><ele>580.0</ele><time>2026-04-03T09:52:22Z</time></trkpt><trkpt lat="43.47693468944485" lon="10.609609818693773"><ele>578.25</ele><time>2026-04-03T09:52:23Z</time></trkpt><trkpt lat="43.476946813117095" lon="10.609810967167093"><ele>576.5</ele><time>2026-04-03T09:52:24Z</time></trkpt><trkpt lat="43.47695300978027" lon="10.609986603270881"><ele>574.75</ele><time>2026-04-03T09:52:25Z</time></trkpt><trkpt lat="43.47695880944451" lon="10.610135425315823"><ele>573.0</ele><time>2026-04-03T09:52:26Z</time></trkpt><trkpt lat="43.476954864891674" lon="10.610296143012745"><ele>571.5</ele><time>2026-04-03T09:52:27Z</time></trkpt><trkpt lat="43.476959099629724" lon="10.610482957135549"><ele>570.0</ele><time>2026-04-03T09:52:28Z</time></trkpt><trkpt lat="43.47697200605012" lon="10.61065997378802"><ele>568.5</ele><time>2026-04-03T09:52:29Z</time></trkpt><trkpt lat="43.47699271686454" lon="10.610843606360875"><ele>567.0</ele><time>2026-04-03T09:52:30Z</time></trkpt><trkpt lat="43.477000880010976" lon="10.61103858235265"><ele>565.5</ele><time>2026-04-03T09:52:31Z</time></trkpt><trkpt lat="43.47700544234785" lon="10.611271509696838"><ele>564.0</ele><time>2026-04-03T09:52:32Z</time></trkpt><trkpt lat="43.477010874145456" lon="10.611472556540294"><ele>562.5</ele><time>2026-04-03T09:52:33Z</time></trkpt><trkpt lat="43.47701952454612" lon="10.611619313074012"><ele>561.0</ele><time>2026-04-03T09:52:34Z</time></trkpt><trkpt lat="43.477016781128405" lon="10.611728623136035"><ele>561.0</ele><time>2026-04-03T09:52:35Z</time></trkpt><trkpt lat="43.476997328585064" lon="10.611847031101151"><ele>561.0</ele><time>2026-04-03T09:52:37Z</time></trkpt><trkpt lat="43.47697381560009" lon="10.611947627580761"><ele>561.0</ele><time>2026-04-03T09:52:40Z</time></trkpt><trkpt lat="43.47695252895463" lon="10.612062894363431"><ele>561.0</ele><time>2026-04-03T09:53:17Z</time></trkpt><trkpt lat="43.477008829751334" lon="10.612199216786625"><ele>561.0</ele><time>2026-04-03T09:53:19Z</time></trkpt><trkpt lat="43.47701773058487" lon="10.612332883164072"><ele>560.2</ele><time>2026-04-03T09:53:21.001Z</time></trkpt><trkpt lat="43.4770034196736" lon="10.612477956572182"><ele>559.4000000000001</ele><time>2026-04-03T09:53:23.001Z</time></trkpt><trkpt lat="43.476992545102455" lon="10.612570706593154"><ele>558.6</ele><time>2026-04-03T09:53:24.001Z</time></trkpt><trkpt lat="43.47698991314367" lon="10.612669833661442"><ele>557.8000000000001</ele><time>2026-04-03T09:53:25.001Z</time></trkpt><trkpt lat="43.47698616906922" lon="10.61287016870669"><ele>557.0</ele><time>2026-04-03T09:53:27.001Z</time></trkpt><trkpt lat="43.47696781093985" lon="10.612978034493151"><ele>555.4</ele><time>2026-04-03T09:53:28.001Z</time></trkpt><trkpt lat="43.476992818677" lon="10.613111743599791"><ele>553.8000000000001</ele><time>2026-04-03T09:53:30.001Z</time></trkpt><trkpt lat="43.476994658247214" lon="10.613221340873011"><ele>552.2</ele><time>2026-04-03T09:53:31.001Z</time></trkpt><trkpt lat="43.47697658546983" lon="10.613339112254629"><ele>550.6</ele><time>2026-04-03T09:53:32.001Z</time></trkpt><trkpt lat="43.476950523622875" lon="10.613489932842139"><ele>549.0</ele><time>2026-04-03T09:53:34.001Z</time></trkpt><trkpt lat="43.47694227654524" lon="10.613639554158052"><ele>547.2</ele><time>2026-04-03T09:53:36.001Z</time></trkpt><trkpt lat="43.4769524786382" lon="10.6138035210946"><ele>545.4</ele><time>2026-04-03T09:53:38Z</time></trkpt><trkpt lat="43.47696415811233" lon="10.613952549099748"><ele>543.6</ele><time>2026-04-03T09:53:40Z</time></trkpt><trkpt lat="43.476961528498265" lon="10.61405279077095"><ele>541.8</ele><time>2026-04-03T09:53:42Z</time></trkpt><trkpt lat="43.47696609190468" lon="10.614142440138332"><ele>540.0</ele><time>2026-04-03T09:53:43Z</time></trkpt><trkpt lat="43.47699141769336" lon="10.61430294329553"><ele>540.0</ele><time>2026-04-03T09:53:45Z</time></trkpt><trkpt lat="43.477004659001935" lon="10.614408114132415"><ele>540.0</ele><time>2026-04-03T09:53:46Z</time></trkpt><trkpt lat="43.47699820537182" lon="10.614515499514605"><ele>540.0</ele><time>2026-04-03T09:53:47Z</time></trkpt><trkpt lat="43.4769894847842" lon="10.614611787104788"><ele>540.0</ele><time>2026-04-03T09:53:48Z</time></trkpt><trkpt lat="43.476971996139945" lon="10.614769371441373"><ele>540.0</ele><time>2026-04-03T09:53:50Z</time></trkpt><trkpt lat="43.476988442581764" lon="10.61489478559637"><ele>540.0</ele><time>2026-04-03T09:53:52Z</time></trkpt><trkpt lat="43.47700059788259" lon="10.615056511127026"><ele>539.0</ele><time>2026-04-03T09:53:54Z</time></trkpt><trkpt lat="43.47699191695833" lon="10.615153501176051"><ele>538.0</ele><time>2026-04-03T09:53:55Z</time></trkpt><trkpt lat="43.476975372766795" lon="10.61527660540265"><ele>537.0</ele><time>2026-04-03T09:53:56Z</time></trkpt><trkpt lat="43.476988684734636" lon="10.615454628941972"><ele>536.0</ele><time>2026-04-03T09:53:58Z</time></trkpt><trkpt lat="43.476995779914425" lon="10.615554548679999"><ele>535.0</ele><time>2026-04-03T09:53:59Z</time></trkpt><trkpt lat="43.47699001206669" lon="10.615662418802875"><ele>534.0</ele><time>2026-04-03T09:54:00Z</time></trkpt><trkpt lat="43.4769826421931" lon="10.6157664845503"><ele>533.0</ele><time>2026-04-03T09:54:01Z</time></trkpt><trkpt lat="43.476967769161966" lon="10.615851661754478"><ele>532.0</ele><time>2026-04-03T09:54:02Z</time></trkpt><trkpt lat="43.476942173908874" lon="10.616025311758849"><ele>531.0</ele><time>2026-04-03T09:54:04Z</time></trkpt><trkpt lat="43.476914885416875" lon="10.61613008347757"><ele>530.0</ele><time>2026-04-03T09:54:05Z</time></trkpt><trkpt lat="43.47690978977557" lon="10.616218490359936"><ele>529.0</ele><time>2026-04-03T09:54:06Z</time></trkpt><trkpt lat="43.47692621041865" lon="10.616364842242124"><ele>528.0</ele><time>2026-04-03T09:54:08Z</time></trkpt><trkpt lat="43.47692262825103" lon="10.616457068057413"><ele>527.1999999999999</ele><time>2026-04-03T09:54:09Z</time></trkpt><trkpt lat="43.476896070812316" lon="10.616550472658252"><ele>526.4</ele><time>2026-04-03T09:54:10Z</time></trkpt><trkpt lat="43.47687790029155" lon="10.616688897144764"><ele>525.5999999999999</ele><time>2026-04-03T09:54:11Z</time></trkpt><trkpt lat="43.47686324762126" lon="10.616824341381957"><ele>524.8</ele><time>2026-04-03T09:54:12Z</time></trkpt><trkpt lat="43.47683920330273" lon="10.61696955790997"><ele>524.0</ele><time>2026-04-03T09:54:14Z</time></trkpt><trkpt lat="43.47682907501057" lon="10.617067929680099"><ele>522.8</ele><time>2026-04-03T09:54:15Z</time></trkpt><trkpt lat="43.47682433781406" lon="10.617160742871604"><ele>521.5999999999999</ele><time>2026-04-03T09:54:16Z</time></trkpt><trkpt lat="43.476804364121826" lon="10.617343236717526"><ele>520.4</ele><time>2026-04-03T09:54:18Z</time></trkpt><trkpt lat="43.47678471479132" lon="10.617462514913536"><ele>519.1999999999999</ele><time>2026-04-03T09:54:19Z</time></trkpt><trkpt lat="43.476767941671945" lon="10.61756675306592"><ele>518.0</ele><time>2026-04-03T09:54:20Z</time></trkpt><trkpt lat="43.47673492990144" lon="10.617682113749364"><ele>518.0</ele><time>2026-04-03T09:54:21Z</time></trkpt><trkpt lat="43.47669688565419" lon="10.617802870224557"><ele>518.0</ele><time>2026-04-03T09:54:22Z</time></trkpt><trkpt lat="43.47666669018101" lon="10.617888111157422"><ele>518.0</ele><time>2026-04-03T09:54:23Z</time></trkpt><trkpt lat="43.47659362267927" lon="10.618018687788384"><ele>518.0</ele><time>2026-04-03T09:54:25Z</time></trkpt><trkpt lat="43.476478457670815" lon="10.618128894816959"><ele>518.0</ele><time>2026-04-03T09:54:27Z</time></trkpt><trkpt lat="43.47641512289798" lon="10.618170481870939"><ele>516.25</ele><time>2026-04-03T09:54:28Z</time></trkpt><trkpt lat="43.47635563783739" lon="10.618209768878435"><ele>514.5</ele><time>2026-04-03T09:54:29Z</time></trkpt><trkpt lat="43.476271583740505" lon="10.618322170332362"><ele>512.75</ele><time>2026-04-03T09:54:31Z</time></trkpt><trkpt lat="43.476186204311155" lon="10.618439412938137"><ele>511.0</ele><time>2026-04-03T09:54:33Z</time></trkpt><trkpt lat="43.47613851497007" lon="10.618645943071497"><ele>509.50000000000006</ele><time>2026-04-03T09:54:35Z</time></trkpt><trkpt lat="43.47614597010716" lon="10.618794335630552"><ele>508.0</ele><time>2026-04-03T09:54:36Z</time></trkpt><trkpt lat="43.47615261235228" lon="10.618909562672675"><ele>506.5</ele><time>2026-04-03T09:54:37Z</time></trkpt><trkpt lat="43.476145769680926" lon="10.619010446436043"><ele>505.0</ele><time>2026-04-03T09:54:38Z</time></trkpt><trkpt lat="43.47614461638884" lon="10.619113234602414"><ele>503.50000000000006</ele><time>2026-04-03T09:54:39Z</time></trkpt><trkpt lat="43.47613673641582" lon="10.619231148307112"><ele>502.0</ele><time>2026-04-03T09:54:40Z</time></trkpt><trkpt lat="43.476116553952934" lon="10.619366676918638"><ele>502.20000000000005</ele><time>2026-04-03T09:54:41Z</time></trkpt><trkpt lat="43.47608315399947" lon="10.619486412486182"><ele>502.40000000000003</ele><time>2026-04-03T09:54:42Z</time></trkpt><trkpt lat="43.476045948543835" lon="10.619637635699625"><ele>502.59999999999997</ele><time>2026-04-03T09:54:43Z</time></trkpt><trkpt lat="43.47603945982944" lon="10.619768934724362"><ele>502.79999999999995</ele><time>2026-04-03T09:54:44Z</time></trkpt><trkpt lat="43.47604354580116" lon="10.619904408269491"><ele>503.0</ele><time>2026-04-03T09:54:45Z</time></trkpt><trkpt lat="43.47602381052802" lon="10.620013012832453"><ele>502.99999999999994</ele><time>2026-04-03T09:54:46Z</time></trkpt><trkpt lat="43.475994413841626" lon="10.620097140605157"><ele>503.0</ele><time>2026-04-03T09:54:47Z</time></trkpt><trkpt lat="43.47599352714259" lon="10.620217865233617"><ele>503.0</ele><time>2026-04-03T09:54:49Z</time></trkpt><trkpt lat="43.47601710052037" lon="10.620330006069787"><ele>503.0</ele><time>2026-04-03T09:54:50Z</time></trkpt><trkpt lat="43.47602795594565" lon="10.620461239794041"><ele>502.99999999999994</ele><time>2026-04-03T09:54:51Z</time></trkpt><trkpt lat="43.47601125445983" lon="10.620561787235685"><ele>503.0</ele><time>2026-04-03T09:54:52Z</time></trkpt><trkpt lat="43.47599144613517" lon="10.620677009076964"><ele>502.8333333333333</ele><time>2026-04-03T09:54:53Z</time></trkpt><trkpt lat="43.47595574335464" lon="10.620766191118431"><ele>502.66666666666663</ele><time>2026-04-03T09:54:54Z</time></trkpt><trkpt lat="43.47592235232469" lon="10.620875842159753"><ele>502.5</ele><time>2026-04-03T09:54:55Z</time></trkpt><trkpt lat="43.475897986120415" lon="10.620981235145791"><ele>502.33333333333337</ele><time>2026-04-03T09:54:56Z</time></trkpt><trkpt lat="43.47588335796097" lon="10.621088824954738"><ele>502.1666666666667</ele><time>2026-04-03T09:54:57Z</time></trkpt><trkpt lat="43.47586850412303" lon="10.621210302239838"><ele>502.0</ele><time>2026-04-03T09:54:58Z</time></trkpt><trkpt lat="43.47584470598048" lon="10.621332312136726"><ele>502.2857142857142</ele><time>2026-04-03T09:54:59Z</time></trkpt><trkpt lat="43.475830341184995" lon="10.621416962941227"><ele>502.57142857142856</ele><time>2026-04-03T09:55:00Z</time></trkpt><trkpt lat="43.47580763927258" lon="10.621511083757332"><ele>502.85714285714283</ele><time>2026-04-03T09:55:01Z</time></trkpt><trkpt lat="43.47577169065952" lon="10.621602243302734"><ele>503.1428571428571</ele><time>2026-04-03T09:55:02Z</time></trkpt><trkpt lat="43.47574465605364" lon="10.621698383132378"><ele>503.42857142857144</ele><time>2026-04-03T09:55:03Z</time></trkpt><trkpt lat="43.47571587756546" lon="10.621800242627165"><ele>503.7142857142857</ele><time>2026-04-03T09:55:04Z</time></trkpt><trkpt lat="43.47568894724077" lon="10.621887667425577"><ele>504.0</ele><time>2026-04-03T09:55:05Z</time></trkpt><trkpt lat="43.47565953525235" lon="10.621988351054819"><ele>505.2</ele><time>2026-04-03T09:55:06Z</time></trkpt><trkpt lat="43.47562971824493" lon="10.622098447390792"><ele>506.4</ele><time>2026-04-03T09:55:07Z</time></trkpt><trkpt lat="43.47561543510684" lon="10.622211605755238"><ele>507.6</ele><time>2026-04-03T09:55:08Z</time></trkpt><trkpt lat="43.47560725577196" lon="10.622297863713989"><ele>508.8</ele><time>2026-04-03T09:55:10Z</time></trkpt><trkpt lat="43.475551796150654" lon="10.622467020036847"><ele>510.0</ele><time>2026-04-03T09:55:12Z</time></trkpt><trkpt lat="43.47550348479552" lon="10.622593846961038"><ele>510.0</ele><time>2026-04-03T09:55:13Z</time></trkpt><trkpt lat="43.475445683366004" lon="10.622752301915419"><ele>510.0</ele><time>2026-04-03T09:55:14Z</time></trkpt><trkpt lat="43.47539104197548" lon="10.62290459891158"><ele>510.0</ele><time>2026-04-03T09:55:15Z</time></trkpt><trkpt lat="43.47536442410145" lon="10.62301576458223"><ele>510.0</ele><time>2026-04-03T09:55:16Z</time></trkpt><trkpt lat="43.47534993071112" lon="10.623114317624312"><ele>510.0</ele><time>2026-04-03T09:55:17Z</time></trkpt><trkpt lat="43.475336048250234" lon="10.623202335651834"><ele>509.1666666666667</ele><time>2026-04-03T09:55:18Z</time></trkpt><trkpt lat="43.475339230902755" lon="10.623290454253553"><ele>508.33333333333337</ele><time>2026-04-03T09:55:19Z</time></trkpt><trkpt lat="43.4753397711321" lon="10.623404982311484"><ele>507.5</ele><time>2026-04-03T09:55:20Z</time></trkpt><trkpt lat="43.47535372294918" lon="10.623517559390843"><ele>506.6666666666667</ele><time>2026-04-03T09:55:21Z</time></trkpt><trkpt lat="43.47537165832738" lon="10.623648529834584"><ele>505.83333333333337</ele><time>2026-04-03T09:55:22Z</time></trkpt><trkpt lat="43.4753860024072" lon="10.623770198855183"><ele>505.0</ele><time>2026-04-03T09:55:23Z</time></trkpt><trkpt lat="43.47540475800953" lon="10.623888247427676"><ele>508.6</ele><time>2026-04-03T09:55:24Z</time></trkpt><trkpt lat="43.475494845577835" lon="10.623992735965317"><ele>512.2</ele><time>2026-04-03T09:55:26Z</time></trkpt><trkpt lat="43.4755577819861" lon="10.624047210901882"><ele>515.8</ele><time>2026-04-03T09:55:27Z</time></trkpt><trkpt lat="43.47562934818426" lon="10.624136619500733"><ele>519.4</ele><time>2026-04-03T09:55:28Z</time></trkpt><trkpt lat="43.47568327107643" lon="10.624247418073583"><ele>523.0</ele><time>2026-04-03T09:55:29Z</time></trkpt><trkpt lat="43.47572698526336" lon="10.624343259749319"><ele>523.0</ele><time>2026-04-03T09:55:30Z</time></trkpt><trkpt lat="43.475763609950974" lon="10.624422407326678"><ele>523.0</ele><time>2026-04-03T09:55:31.001Z</time></trkpt><trkpt lat="43.47579161254341" lon="10.624521791408124"><ele>523.0</ele><time>2026-04-03T09:55:32.001Z</time></trkpt><trkpt lat="43.47581053385954" lon="10.62462330468968"><ele>523.0</ele><time>2026-04-03T09:55:33.001Z</time></trkpt><trkpt lat="43.475843008958556" lon="10.624747344155436"><ele>523.0</ele><time>2026-04-03T09:55:34.001Z</time></trkpt><trkpt lat="43.4758850194106" lon="10.624892031229512"><ele>523.0</ele><time>2026-04-03T09:55:35.001Z</time></trkpt><trkpt lat="43.47592403652116" lon="10.625020133173068"><ele>522.8333333333334</ele><time>2026-04-03T09:55:36.001Z</time></trkpt><trkpt lat="43.47596409760513" lon="10.62511240390422"><ele>522.6666666666667</ele><time>2026-04-03T09:55:37.001Z</time></trkpt><trkpt lat="43.47599217793566" lon="10.6251997081446"><ele>522.5</ele><time>2026-04-03T09:55:38.001Z</time></trkpt><trkpt lat="43.47599773468059" lon="10.625291918023782"><ele>522.3333333333334</ele><time>2026-04-03T09:55:39.001Z</time></trkpt><trkpt lat="43.475988113598525" lon="10.625398442882238"><ele>522.1666666666666</ele><time>2026-04-03T09:55:40.001Z</time></trkpt><trkpt lat="43.47596926561843" lon="10.625511706860777"><ele>522.0</ele><time>2026-04-03T09:55:41.001Z</time></trkpt><trkpt lat="43.47594957386543" lon="10.625663604112644"><ele>521.5</ele><time>2026-04-03T09:55:43.001Z</time></trkpt><trkpt lat="43.47596307919059" lon="10.625760303130068"><ele>521.0</ele><time>2026-04-03T09:55:44Z</time></trkpt><trkpt lat="43.476003857846095" lon="10.625857041184723"><ele>520.5</ele><time>2026-04-03T09:55:45Z</time></trkpt><trkpt lat="43.47605440794304" lon="10.625951102072499"><ele>520.0</ele><time>2026-04-03T09:55:46Z</time></trkpt><trkpt lat="43.47608249247061" lon="10.626039379897097"><ele>519.5</ele><time>2026-04-03T09:55:47Z</time></trkpt><trkpt lat="43.47610808153743" lon="10.626167357379646"><ele>519.0</ele><time>2026-04-03T09:55:49Z</time></trkpt><trkpt lat="43.47611729707206" lon="10.626331310488087"><ele>519.4</ele><time>2026-04-03T09:55:51Z</time></trkpt><trkpt lat="43.47614792648422" lon="10.626440842903774"><ele>519.8</ele><time>2026-04-03T09:55:52Z</time></trkpt><trkpt lat="43.476218041255194" lon="10.626526495253403"><ele>520.2</ele><time>2026-04-03T09:55:53Z</time></trkpt><trkpt lat="43.47628308999743" lon="10.62660523585494"><ele>520.6</ele><time>2026-04-03T09:55:54Z</time></trkpt><trkpt lat="43.47638733567904" lon="10.626674860800257"><ele>521.0</ele><time>2026-04-03T09:55:56Z</time></trkpt><trkpt lat="43.47648959987551" lon="10.6267093177116"><ele>521.0</ele><time>2026-04-03T09:55:58Z</time></trkpt><trkpt lat="43.47658159881553" lon="10.626732081388086"><ele>521.0</ele><time>2026-04-03T09:56:00Z</time></trkpt><trkpt lat="43.47666660247703" lon="10.626857673463235"><ele>521.0</ele><time>2026-04-03T09:56:02Z</time></trkpt><trkpt lat="43.47669346176963" lon="10.626964150923406"><ele>521.0</ele><time>2026-04-03T09:56:03Z</time></trkpt><trkpt lat="43.47673147818852" lon="10.627074406093474"><ele>521.0</ele><time>2026-04-03T09:56:04Z</time></trkpt><trkpt lat="43.476764214197225" lon="10.627173346851647"><ele>518.8</ele><time>2026-04-03T09:56:05Z</time></trkpt><trkpt lat="43.476780675029396" lon="10.6273248018116"><ele>516.6</ele><time>2026-04-03T09:56:07Z</time></trkpt><trkpt lat="43.47679547485944" lon="10.627413364931009"><ele>514.4</ele><time>2026-04-03T09:56:08Z</time></trkpt><trkpt lat="43.476811213105975" lon="10.62751588286796"><ele>512.2</ele><time>2026-04-03T09:56:09Z</time></trkpt><trkpt lat="43.47683110137428" lon="10.627659324225966"><ele>510.0</ele><time>2026-04-03T09:56:11Z</time></trkpt><trkpt lat="43.476761446379065" lon="10.627774615069393"><ele>509.8333333333333</ele><time>2026-04-03T09:56:13Z</time></trkpt><trkpt lat="43.47669240270419" lon="10.627862979574825"><ele>509.66666666666663</ele><time>2026-04-03T09:56:15Z</time></trkpt><trkpt lat="43.47666009256658" lon="10.627940455118283"><ele>509.5</ele><time>2026-04-03T09:56:19Z</time></trkpt><trkpt lat="43.47660332146089" lon="10.628039700555934"><ele>509.3333333333333</ele><time>2026-04-03T09:56:24Z</time></trkpt><trkpt lat="43.4765612978477" lon="10.62811387131656"><ele>509.16666666666663</ele><time>2026-04-03T09:56:26Z</time></trkpt><trkpt lat="43.4765008231273" lon="10.628205443321004"><ele>509.0</ele><time>2026-04-03T09:56:28Z</time></trkpt><trkpt lat="43.47643365741498" lon="10.628328817621538"><ele>509.0</ele><time>2026-04-03T09:56:30Z</time></trkpt><trkpt lat="43.47639770789864" lon="10.62843633268718"><ele>509.0</ele><time>2026-04-03T09:56:31Z</time></trkpt><trkpt lat="43.47636674182904" lon="10.628579671875094"><ele>509.0</ele><time>2026-04-03T09:56:32Z</time></trkpt><trkpt lat="43.47635089571929" lon="10.628712232760094"><ele>509.0</ele><time>2026-04-03T09:56:33Z</time></trkpt><trkpt lat="43.47631940343283" lon="10.62888960040314"><ele>509.0</ele><time>2026-04-03T09:56:35Z</time></trkpt><trkpt lat="43.47630449550641" lon="10.628976364789578"><ele>507.66666666666663</ele><time>2026-04-03T09:56:36Z</time></trkpt><trkpt lat="43.47632174330201" lon="10.62907326164125"><ele>506.3333333333333</ele><time>2026-04-03T09:56:37Z</time></trkpt><trkpt lat="43.476354981944255" lon="10.62921364818608"><ele>505.0</ele><time>2026-04-03T09:56:39Z</time></trkpt><trkpt lat="43.476397447321446" lon="10.629346307292964"><ele>503.66666666666663</ele><time>2026-04-03T09:56:40Z</time></trkpt><trkpt lat="43.47644957519241" lon="10.62940925694218"><ele>502.3333333333333</ele><time>2026-04-03T09:56:41Z</time></trkpt><trkpt lat="43.47651580657008" lon="10.629459522902106"><ele>501.0</ele><time>2026-04-03T09:56:42Z</time></trkpt><trkpt lat="43.47658109546564" lon="10.629492234841997"><ele>497.8</ele><time>2026-04-03T09:56:43Z</time></trkpt><trkpt lat="43.47665148186062" lon="10.629523059697487"><ele>494.6</ele><time>2026-04-03T09:56:44Z</time></trkpt><trkpt lat="43.476714938479326" lon="10.629568176290512"><ele>491.4</ele><time>2026-04-03T09:56:45Z</time></trkpt><trkpt lat="43.47676989917566" lon="10.629612968155847"><ele>488.2</ele><time>2026-04-03T09:56:46Z</time></trkpt><trkpt lat="43.47682505518275" lon="10.629734188588289"><ele>485.0</ele><time>2026-04-03T09:56:48Z</time></trkpt><trkpt lat="43.476815740413336" lon="10.6299240375625"><ele>485.0</ele><time>2026-04-03T09:56:50Z</time></trkpt><trkpt lat="43.476795679552076" lon="10.630057974245961"><ele>485.0</ele><time>2026-04-03T09:56:51Z</time></trkpt><trkpt lat="43.47679359662542" lon="10.630178073809239"><ele>485.0</ele><time>2026-04-03T09:56:52Z</time></trkpt><trkpt lat="43.47679018498309" lon="10.630281368569005"><ele>485.0</ele><time>2026-04-03T09:56:53Z</time></trkpt><trkpt lat="43.47679912856563" lon="10.630428833119627"><ele>485.0</ele><time>2026-04-03T09:56:54Z</time></trkpt><trkpt lat="43.476818197790855" lon="10.630593981851554"><ele>482.8</ele><time>2026-04-03T09:56:55Z</time></trkpt><trkpt lat="43.476841077789025" lon="10.630763962240225"><ele>480.6</ele><time>2026-04-03T09:56:56Z</time></trkpt><trkpt lat="43.476857979247725" lon="10.630890974593227"><ele>478.4</ele><time>2026-04-03T09:56:57Z</time></trkpt><trkpt lat="43.47686777226551" lon="10.630980885791118"><ele>476.2</ele><time>2026-04-03T09:56:58Z</time></trkpt><trkpt lat="43.47683582926106" lon="10.631114559543663"><ele>474.0</ele><time>2026-04-03T09:57:00Z</time></trkpt><trkpt lat="43.47678476282807" lon="10.631193681409659"><ele>473.79999999999995</ele><time>2026-04-03T09:57:01Z</time></trkpt><trkpt lat="43.4767269327292" lon="10.631232773245028"><ele>473.59999999999997</ele><time>2026-04-03T09:57:02Z</time></trkpt><trkpt lat="43.47667748472621" lon="10.631293638749877"><ele>473.4</ele><time>2026-04-03T09:57:03Z</time></trkpt><trkpt lat="43.47658818055085" lon="10.631407706517123"><ele>473.2</ele><time>2026-04-03T09:57:05Z</time></trkpt><trkpt lat="43.47648630438309" lon="10.63152546433693"><ele>473.0</ele><time>2026-04-03T09:57:07Z</time></trkpt><trkpt lat="43.47642888809414" lon="10.631586210241624"><ele>472.99999999999994</ele><time>2026-04-03T09:57:08Z</time></trkpt><trkpt lat="43.4763709155722" lon="10.631632026849347"><ele>473.0</ele><time>2026-04-03T09:57:09Z</time></trkpt><trkpt lat="43.476292039984926" lon="10.631667035356832"><ele>473.0</ele><time>2026-04-03T09:57:10Z</time></trkpt><trkpt lat="43.476229095213" lon="10.6316867665396"><ele>473.0</ele><time>2026-04-03T09:57:11Z</time></trkpt><trkpt lat="43.47617187237982" lon="10.63172647521269"><ele>472.99999999999994</ele><time>2026-04-03T09:57:12Z</time></trkpt><trkpt lat="43.47607752373088" lon="10.631810503988026"><ele>473.0</ele><time>2026-04-03T09:57:14Z</time></trkpt><trkpt lat="43.4760179791444" lon="10.631922938800024"><ele>470.3333333333333</ele><time>2026-04-03T09:57:16Z</time></trkpt><trkpt lat="43.47600117209934" lon="10.632013710131924"><ele>467.66666666666663</ele><time>2026-04-03T09:57:17Z</time></trkpt><trkpt lat="43.47598305658568" lon="10.632107080522765"><ele>465.0</ele><time>2026-04-03T09:57:18Z</time></trkpt><trkpt lat="43.47596581411952" lon="10.632199351261951"><ele>462.33333333333337</ele><time>2026-04-03T09:57:19Z</time></trkpt><trkpt lat="43.47594736315892" lon="10.632285816001401"><ele>459.6666666666667</ele><time>2026-04-03T09:57:20Z</time></trkpt><trkpt lat="43.475942226419946" lon="10.632376054080702"><ele>457.0</ele><time>2026-04-03T09:57:21Z</time></trkpt><trkpt lat="43.47594539442238" lon="10.632550423134711"><ele>457.00000000000006</ele><time>2026-04-03T09:57:23Z</time></trkpt><trkpt lat="43.4759587935916" lon="10.632645136662802"><ele>457.0</ele><time>2026-04-03T09:57:24Z</time></trkpt><trkpt lat="43.4759809941318" lon="10.63273515127175"><ele>457.0</ele><time>2026-04-03T09:57:25Z</time></trkpt><trkpt lat="43.476038854515146" lon="10.632914852516858"><ele>457.0</ele><time>2026-04-03T09:57:27Z</time></trkpt><trkpt lat="43.47607645269821" lon="10.633021120215645"><ele>457.00000000000006</ele><time>2026-04-03T09:57:28Z</time></trkpt><trkpt lat="43.47611511732119" lon="10.633115144739907"><ele>457.0</ele><time>2026-04-03T09:57:29Z</time></trkpt><trkpt lat="43.47614113206315" lon="10.633209670286247"><ele>455.20000000000005</ele><time>2026-04-03T09:57:30Z</time></trkpt><trkpt lat="43.47617089271004" lon="10.633331660490471"><ele>453.40000000000003</ele><time>2026-04-03T09:57:31Z</time></trkpt><trkpt lat="43.476196457865214" lon="10.633479340763053"><ele>451.59999999999997</ele><time>2026-04-03T09:57:32Z</time></trkpt><trkpt lat="43.47622759112853" lon="10.633639711468803"><ele>449.79999999999995</ele><time>2026-04-03T09:57:33Z</time></trkpt><trkpt lat="43.476257611380326" lon="10.633788418811148"><ele>448.0</ele><time>2026-04-03T09:57:34Z</time></trkpt><trkpt lat="43.47628698677122" lon="10.63392241268577"><ele>448.0</ele><time>2026-04-03T09:57:35Z</time></trkpt><trkpt lat="43.47632328017627" lon="10.63405174927718"><ele>447.99999999999994</ele><time>2026-04-03T09:57:36Z</time></trkpt><trkpt lat="43.476365243835176" lon="10.634183100653983"><ele>447.99999999999994</ele><time>2026-04-03T09:57:37Z</time></trkpt><trkpt lat="43.47640029684984" lon="10.634314402034818"><ele>448.0</ele><time>2026-04-03T09:57:38Z</time></trkpt><trkpt lat="43.47643612600807" lon="10.63445297896373"><ele>448.0</ele><time>2026-04-03T09:57:39Z</time></trkpt><trkpt lat="43.47647577991341" lon="10.634591217731588"><ele>444.2</ele><time>2026-04-03T09:57:40Z</time></trkpt><trkpt lat="43.47650674042068" lon="10.634720517069299"><ele>440.4</ele><time>2026-04-03T09:57:41Z</time></trkpt><trkpt lat="43.47653936995309" lon="10.634840153849595"><ele>436.59999999999997</ele><time>2026-04-03T09:57:42Z</time></trkpt><trkpt lat="43.47657225002395" lon="10.634953594883934"><ele>432.79999999999995</ele><time>2026-04-03T09:57:43Z</time></trkpt><trkpt lat="43.476610068005144" lon="10.635054957443769"><ele>429.0</ele><time>2026-04-03T09:57:44Z</time></trkpt><trkpt lat="43.47666506628984" lon="10.635161120341786"><ele>429.0</ele><time>2026-04-03T09:57:45Z</time></trkpt><trkpt lat="43.47673180178808" lon="10.63527005872611"><ele>429.0</ele><time>2026-04-03T09:57:46Z</time></trkpt><trkpt lat="43.47679510312116" lon="10.635351627992538"><ele>429.0</ele><time>2026-04-03T09:57:47Z</time></trkpt><trkpt lat="43.47686235924483" lon="10.635430966522613"><ele>429.0</ele><time>2026-04-03T09:57:48Z</time></trkpt><trkpt lat="43.47692186152108" lon="10.635500771609767"><ele>429.0</ele><time>2026-04-03T09:57:49Z</time></trkpt><trkpt lat="43.47697833371879" lon="10.635574013032493"><ele>429.0</ele><time>2026-04-03T09:57:49.999Z</time></trkpt><trkpt lat="43.47702229071284" lon="10.635649282943437"><ele>428.5</ele><time>2026-04-03T09:57:50.999Z</time></trkpt><trkpt lat="43.47706061579009" lon="10.635721701780442"><ele>428.0</ele><time>2026-04-03T09:57:51.999Z</time></trkpt><trkpt lat="43.477103881507695" lon="10.635872503584915"><ele>427.5</ele><time>2026-04-03T09:57:53.999Z</time></trkpt><trkpt lat="43.47711042105581" lon="10.635959820778936"><ele>427.0</ele><time>2026-04-03T09:57:54.999Z</time></trkpt><trkpt lat="43.47710617217513" lon="10.636054614397672"><ele>426.5</ele><time>2026-04-03T09:57:55.999Z</time></trkpt><trkpt lat="43.47709953691139" lon="10.636154080716654"><ele>426.0</ele><time>2026-04-03T09:57:56.999Z</time></trkpt><trkpt lat="43.47709290315671" lon="10.636261411717307"><ele>422.8333333333333</ele><time>2026-04-03T09:57:57.999Z</time></trkpt><trkpt lat="43.477086071059055" lon="10.636369492518336"><ele>419.66666666666663</ele><time>2026-04-03T09:57:58.999Z</time></trkpt><trkpt lat="43.47707891885263" lon="10.636485075477555"><ele>416.5</ele><time>2026-04-03T09:57:59.999Z</time></trkpt><trkpt lat="43.47707484339795" lon="10.63660301176986"><ele>413.3333333333333</ele><time>2026-04-03T09:58:00.999Z</time></trkpt><trkpt lat="43.4770694390503" lon="10.636725671178478"><ele>410.16666666666663</ele><time>2026-04-03T09:58:01.999Z</time></trkpt><trkpt lat="43.47706388611207" lon="10.636835368314564"><ele>407.0</ele><time>2026-04-03T09:58:02.999Z</time></trkpt><trkpt lat="43.477059655921245" lon="10.636937924509786"><ele>406.3333333333333</ele><time>2026-04-03T09:58:03.999Z</time></trkpt><trkpt lat="43.47705159772428" lon="10.637028487514579"><ele>405.66666666666663</ele><time>2026-04-03T09:58:05Z</time></trkpt><trkpt lat="43.477035120104254" lon="10.637113586052024"><ele>405.0</ele><time>2026-04-03T09:58:06Z</time></trkpt><trkpt lat="43.47696603242632" lon="10.637252970642546"><ele>404.33333333333337</ele><time>2026-04-03T09:58:08Z</time></trkpt><trkpt lat="43.47691219408015" lon="10.637314580662707"><ele>403.6666666666667</ele><time>2026-04-03T09:58:09Z</time></trkpt><trkpt lat="43.47686056368223" lon="10.637386416956252"><ele>403.0</ele><time>2026-04-03T09:58:10Z</time></trkpt><trkpt lat="43.47682707818719" lon="10.637479423372012"><ele>403.0</ele><time>2026-04-03T09:58:11Z</time></trkpt><trkpt lat="43.47679758892999" lon="10.637583899869892"><ele>403.0</ele><time>2026-04-03T09:58:12Z</time></trkpt><trkpt lat="43.47675708146377" lon="10.637683387281639"><ele>403.0</ele><time>2026-04-03T09:58:13Z</time></trkpt><trkpt lat="43.47670243782503" lon="10.637788341386157"><ele>403.0</ele><time>2026-04-03T09:58:14Z</time></trkpt><trkpt lat="43.47663934711528" lon="10.63790250551551"><ele>403.0</ele><time>2026-04-03T09:58:15Z</time></trkpt><trkpt lat="43.476569007353426" lon="10.638025303601196"><ele>401.0</ele><time>2026-04-03T09:58:16Z</time></trkpt><trkpt lat="43.47649284330083" lon="10.638149239036103"><ele>399.0</ele><time>2026-04-03T09:58:17Z</time></trkpt><trkpt lat="43.476402809229704" lon="10.638273266323269"><ele>397.0</ele><time>2026-04-03T09:58:18Z</time></trkpt><trkpt lat="43.47631421634319" lon="10.638390357202471"><ele>395.0</ele><time>2026-04-03T09:58:19Z</time></trkpt><trkpt lat="43.47622576135402" lon="10.638516799595202"><ele>393.6</ele><time>2026-04-03T09:58:20Z</time></trkpt><trkpt lat="43.47613792909987" lon="10.638639116028223"><ele>392.2</ele><time>2026-04-03T09:58:21Z</time></trkpt><trkpt lat="43.476075073213465" lon="10.638756791635508"><ele>390.79999999999995</ele><time>2026-04-03T09:58:22Z</time></trkpt><trkpt lat="43.47604047791572" lon="10.638874850757325"><ele>389.4</ele><time>2026-04-03T09:58:23Z</time></trkpt><trkpt lat="43.47600421290027" lon="10.638976110049528"><ele>388.0</ele><time>2026-04-03T09:58:24Z</time></trkpt><trkpt lat="43.475965421928066" lon="10.639053490633183"><ele>388.00000000000006</ele><time>2026-04-03T09:58:25Z</time></trkpt><trkpt lat="43.475881714696165" lon="10.63919004237721"><ele>388.0</ele><time>2026-04-03T09:58:27Z</time></trkpt><trkpt lat="43.47584416575945" lon="10.639278198625153"><ele>388.0</ele><time>2026-04-03T09:58:28Z</time></trkpt><trkpt lat="43.47580231795261" lon="10.639370897848314"><ele>388.0</ele><time>2026-04-03T09:58:29Z</time></trkpt><trkpt lat="43.47576352855432" lon="10.6394715452212"><ele>388.00000000000006</ele><time>2026-04-03T09:58:30Z</time></trkpt><trkpt lat="43.47571865793373" lon="10.639566138073365"><ele>388.0</ele><time>2026-04-03T09:58:31Z</time></trkpt><trkpt lat="43.47564750761611" lon="10.639665756080667"><ele>387.25</ele><time>2026-04-03T09:58:32Z</time></trkpt><trkpt lat="43.475559202905096" lon="10.639776158231443"><ele>386.5</ele><time>2026-04-03T09:58:33Z</time></trkpt><trkpt lat="43.4754677948672" lon="10.639897664971231"><ele>385.75</ele><time>2026-04-03T09:58:34Z</time></trkpt><trkpt lat="43.475385301678706" lon="10.640022048525067"><ele>385.0</ele><time>2026-04-03T09:58:35Z</time></trkpt><trkpt lat="43.475311470914924" lon="10.640153187626062"><ele>382.8</ele><time>2026-04-03T09:58:36Z</time></trkpt><trkpt lat="43.47520503514262" lon="10.640228665192119"><ele>380.6</ele><time>2026-04-03T09:58:37Z</time></trkpt><trkpt lat="43.47514698698777" lon="10.640327465660876"><ele>378.4</ele><time>2026-04-03T09:58:38Z</time></trkpt><trkpt lat="43.475106964878" lon="10.640426391570045"><ele>376.2</ele><time>2026-04-03T09:58:39Z</time></trkpt><trkpt lat="43.47509330879565" lon="10.640594811397307"><ele>374.0</ele><time>2026-04-03T09:58:41Z</time></trkpt><trkpt lat="43.47516409884628" lon="10.640663373679208"><ele>370.0</ele><time>2026-04-03T09:58:42Z</time></trkpt><trkpt lat="43.47519446245607" lon="10.64074015472667"><ele>370.0</ele><time>2026-04-03T09:58:46Z</time></trkpt><trkpt lat="43.47521710703806" lon="10.64083476920401"><ele>370.0</ele><time>2026-04-03T09:58:52Z</time></trkpt></trkseg></trk></gpx>